<?xml version='1.0' encoding='UTF-8'?><gpx version="1.1" creator="JPX - https://github.com/jenetics/jpx" xmlns="http://www.topografix.com/GPX/1/1"><trk><trkseg><trkpt lat="45.64733322020234" lon="9.37448494457115"><ele>218.00000000000003</ele><time>2026-04-19T16:07:20Z</time></trkpt><trkpt lat="45.6472452940153" lon="9.374464553548872"><ele>218.0</ele><time>2026-04-19T16:07:23Z</time></trkpt><trkpt lat="45.64718343397396" lon="9.374435209761623"><ele>218.0</ele><time>2026-04-19T16:07:25Z</time></trkpt><trkpt lat="45.6471152839476" lon="9.374399987227537"><ele>218.0</ele><time>2026-04-19T16:07:27Z</time></trkpt><trkpt lat="45.64703781400806" lon="9.374383069989161"><ele>218.00000000000003</ele><time>2026-04-19T16:07:29Z</time></trkpt><trkpt lat="45.64696897666125" lon="9.374323326048977"><ele>218.0</ele><time>2026-04-19T16:07:31Z</time></trkpt><trkpt lat="45.64691064758087" lon="9.37421600542815"><ele>217.60000000000002</ele><time>2026-04-19T16:07:33Z</time></trkpt><trkpt lat="45.64684301851117" lon="9.374107298943656"><ele>217.20000000000002</ele><time>2026-04-19T16:07:35Z</time></trkpt><trkpt lat="45.64675733674342" lon="9.374005502979244"><ele>216.8</ele><time>2026-04-19T16:07:37Z</time></trkpt><trkpt lat="45.646660052005366" lon="9.373964986750934"><ele>216.4</ele><time>2026-04-19T16:07:39Z</time></trkpt><trkpt lat="45.64655066035662" lon="9.373935778261476"><ele>216.0</ele><time>2026-04-19T16:07:41Z</time></trkpt><trkpt lat="45.64645369408875" lon="9.373894840130502"><ele>215.60000000000002</ele><time>2026-04-19T16:07:43Z</time></trkpt><trkpt lat="45.646353307357124" lon="9.373850359681414"><ele>215.20000000000002</ele><time>2026-04-19T16:07:45Z</time></trkpt><trkpt lat="45.64624756239829" lon="9.3738081496585"><ele>214.79999999999998</ele><time>2026-04-19T16:07:47Z</time></trkpt><trkpt lat="45.64615147862476" lon="9.373770108652485"><ele>214.39999999999998</ele><time>2026-04-19T16:07:49Z</time></trkpt><trkpt lat="45.64605620219805" lon="9.373726143805914"><ele>214.0</ele><time>2026-04-19T16:07:51Z</time></trkpt><trkpt lat="45.645961424653066" lon="9.373678907143226"><ele>213.99999999999997</ele><time>2026-04-19T16:07:53Z</time></trkpt><trkpt lat="45.64587029676317" lon="9.373642317597621"><ele>214.0</ele><time>2026-04-19T16:07:55Z</time></trkpt><trkpt lat="45.645811016513505" lon="9.373611827897516"><ele>214.0</ele><time>2026-04-19T16:07:56Z</time></trkpt><trkpt lat="45.64572628356747" lon="9.37357513304948"><ele>214.0</ele><time>2026-04-19T16:07:58Z</time></trkpt><trkpt lat="45.64563841438353" lon="9.373524778679093"><ele>213.99999999999997</ele><time>2026-04-19T16:08:00Z</time></trkpt><trkpt lat="45.645545548144675" lon="9.373493530951626"><ele>214.0</ele><time>2026-04-19T16:08:02Z</time></trkpt><trkpt lat="45.64546502524731" lon="9.37345079074712"><ele>214.0</ele><time>2026-04-19T16:08:04Z</time></trkpt><trkpt lat="45.6453775779284" lon="9.373411923441418"><ele>213.99999999999997</ele><time>2026-04-19T16:08:06Z</time></trkpt><trkpt lat="45.64528599728538" lon="9.37336860689147"><ele>213.99999999999997</ele><time>2026-04-19T16:08:08Z</time></trkpt><trkpt lat="45.64519417766803" lon="9.37333622556803"><ele>214.0</ele><time>2026-04-19T16:08:10Z</time></trkpt><trkpt lat="45.645098971461856" lon="9.373295955771129"><ele>214.0</ele><time>2026-04-19T16:08:12Z</time></trkpt><trkpt lat="45.64499742787177" lon="9.373250956777353"><ele>214.0</ele><time>2026-04-19T16:08:14Z</time></trkpt><trkpt lat="45.6448978330074" lon="9.373210570154203"><ele>213.99999999999997</ele><time>2026-04-19T16:08:16Z</time></trkpt><trkpt lat="45.644799172583696" lon="9.37316656846939"><ele>213.99999999999997</ele><time>2026-04-19T16:08:18Z</time></trkpt><trkpt lat="45.64469789105046" lon="9.373121592732723"><ele>214.0</ele><time>2026-04-19T16:08:20Z</time></trkpt><trkpt lat="45.64459141148323" lon="9.37307227380482"><ele>214.0</ele><time>2026-04-19T16:08:22Z</time></trkpt><trkpt lat="45.644480385876456" lon="9.373026495822987"><ele>213.5</ele><time>2026-04-19T16:08:24Z</time></trkpt><trkpt lat="45.64436793669368" lon="9.372970486512926"><ele>213.0</ele><time>2026-04-19T16:08:26Z</time></trkpt><trkpt lat="45.644257880800545" lon="9.372928567936151"><ele>212.5</ele><time>2026-04-19T16:08:28Z</time></trkpt><trkpt lat="45.644148579052725" lon="9.372880577890163"><ele>212.0</ele><time>2026-04-19T16:08:30Z</time></trkpt><trkpt lat="45.64404293965356" lon="9.372824056585038"><ele>212.0</ele><time>2026-04-19T16:08:32Z</time></trkpt><trkpt lat="45.643947002680804" lon="9.37272919285571"><ele>212.0</ele><time>2026-04-19T16:08:34Z</time></trkpt><trkpt lat="45.64387152955281" lon="9.372594070074165"><ele>212.0</ele><time>2026-04-19T16:08:36Z</time></trkpt><trkpt lat="45.64386093124115" lon="9.372406288299576"><ele>212.0</ele><time>2026-04-19T16:08:38Z</time></trkpt><trkpt lat="45.643858605971865" lon="9.37231060533941"><ele>212.0</ele><time>2026-04-19T16:08:39Z</time></trkpt><trkpt lat="45.64384615928513" lon="9.372221141377162"><ele>212.14285714285714</ele><time>2026-04-19T16:08:40Z</time></trkpt><trkpt lat="45.643839225252364" lon="9.372128229553278"><ele>212.28571428571428</ele><time>2026-04-19T16:08:41Z</time></trkpt><trkpt lat="45.643833084359485" lon="9.372033372526728"><ele>212.42857142857142</ele><time>2026-04-19T16:08:42Z</time></trkpt><trkpt lat="45.64382844534646" lon="9.3719366980173"><ele>212.57142857142856</ele><time>2026-04-19T16:08:43Z</time></trkpt><trkpt lat="45.643819836458114" lon="9.371840540191926"><ele>212.71428571428572</ele><time>2026-04-19T16:08:44Z</time></trkpt><trkpt lat="45.64381209824566" lon="9.371745097594628"><ele>212.85714285714283</ele><time>2026-04-19T16:08:45Z</time></trkpt><trkpt lat="45.6438040155843" lon="9.371652720737886"><ele>213.0</ele><time>2026-04-19T16:08:46Z</time></trkpt><trkpt lat="45.643795131975956" lon="9.371558950373695"><ele>213.0</ele><time>2026-04-19T16:08:47Z</time></trkpt><trkpt lat="45.64378208713936" lon="9.37146886941015"><ele>213.0</ele><time>2026-04-19T16:08:48Z</time></trkpt><trkpt lat="45.64377260027239" lon="9.371374861356342"><ele>213.0</ele><time>2026-04-19T16:08:49Z</time></trkpt><trkpt lat="45.64376597828353" lon="9.371275351390429"><ele>213.0</ele><time>2026-04-19T16:08:50Z</time></trkpt><trkpt lat="45.64375991051348" lon="9.37108912370191"><ele>213.0</ele><time>2026-04-19T16:08:52Z</time></trkpt><trkpt lat="45.64375258297795" lon="9.370998360913324"><ele>213.0</ele><time>2026-04-19T16:08:53Z</time></trkpt><trkpt lat="45.64374760228339" lon="9.370906053623138"><ele>212.83333333333334</ele><time>2026-04-19T16:08:54Z</time></trkpt><trkpt lat="45.64373973830573" lon="9.370816307490982"><ele>212.66666666666669</ele><time>2026-04-19T16:08:55Z</time></trkpt><trkpt lat="45.64373584834593" lon="9.370724736706757"><ele>212.5</ele><time>2026-04-19T16:08:56Z</time></trkpt><trkpt lat="45.643730918177766" lon="9.370633828196391"><ele>212.33333333333334</ele><time>2026-04-19T16:08:57Z</time></trkpt><trkpt lat="45.643719845963076" lon="9.370458236098404"><ele>212.16666666666669</ele><time>2026-04-19T16:08:59Z</time></trkpt><trkpt lat="45.64370829509619" lon="9.370295564032237"><ele>212.0</ele><time>2026-04-19T16:09:01Z</time></trkpt><trkpt lat="45.643698500607066" lon="9.370144773445361"><ele>212.0</ele><time>2026-04-19T16:09:03Z</time></trkpt><trkpt lat="45.64368216917992" lon="9.37000623090576"><ele>212.0</ele><time>2026-04-19T16:09:05Z</time></trkpt><trkpt lat="45.64365525616264" lon="9.369889086544152"><ele>212.0</ele><time>2026-04-19T16:09:07Z</time></trkpt><trkpt lat="45.64361718381604" lon="9.369771848768883"><ele>212.0</ele><time>2026-04-19T16:09:09Z</time></trkpt><trkpt lat="45.643574507727585" lon="9.369660242801164"><ele>212.0</ele><time>2026-04-19T16:09:11Z</time></trkpt><trkpt lat="45.643538732955584" lon="9.369544890268147"><ele>212.33333333333334</ele><time>2026-04-19T16:09:13Z</time></trkpt><trkpt lat="45.643508784577584" lon="9.369423690551939"><ele>212.66666666666669</ele><time>2026-04-19T16:09:15Z</time></trkpt><trkpt lat="45.64348684993103" lon="9.369302282528487"><ele>213.0</ele><time>2026-04-19T16:09:17Z</time></trkpt><trkpt lat="45.64348404381706" lon="9.369191297936036"><ele>213.33333333333331</ele><time>2026-04-19T16:09:19Z</time></trkpt><trkpt lat="45.643473882107344" lon="9.369093501608779"><ele>213.66666666666666</ele><time>2026-04-19T16:09:21Z</time></trkpt><trkpt lat="45.64348539811776" lon="9.369002774129747"><ele>214.0</ele><time>2026-04-19T16:09:23Z</time></trkpt><trkpt lat="45.643500929480304" lon="9.368912604523612"><ele>214.00000000000003</ele><time>2026-04-19T16:09:25Z</time></trkpt><trkpt lat="45.64351693061705" lon="9.368816370555086"><ele>214.0</ele><time>2026-04-19T16:09:27Z</time></trkpt><trkpt lat="45.64353629652429" lon="9.368717059255271"><ele>214.0</ele><time>2026-04-19T16:09:29Z</time></trkpt><trkpt lat="45.64354527393246" lon="9.368616059853203"><ele>214.0</ele><time>2026-04-19T16:09:31Z</time></trkpt><trkpt lat="45.6435859558252" lon="9.368515362723578"><ele>214.0</ele><time>2026-04-19T16:09:33Z</time></trkpt><trkpt lat="45.64359935128362" lon="9.36840869418164"><ele>214.00000000000003</ele><time>2026-04-19T16:09:35Z</time></trkpt><trkpt lat="45.64360521643043" lon="9.368302584156138"><ele>214.0</ele><time>2026-04-19T16:09:37Z</time></trkpt><trkpt lat="45.64360871661229" lon="9.368203277728336"><ele>213.99999999999997</ele><time>2026-04-19T16:09:39Z</time></trkpt><trkpt lat="45.64360973119042" lon="9.368108391299598"><ele>214.0</ele><time>2026-04-19T16:09:41Z</time></trkpt><trkpt lat="45.64360872897794" lon="9.367981822875729"><ele>214.0</ele><time>2026-04-19T16:09:44Z</time></trkpt><trkpt lat="45.64360104619938" lon="9.36786046855148"><ele>214.0</ele><time>2026-04-19T16:09:47Z</time></trkpt><trkpt lat="45.64361372943107" lon="9.367760955761119"><ele>213.99999999999997</ele><time>2026-04-19T16:09:50Z</time></trkpt><trkpt lat="45.64364538407641" lon="9.367643570311053"><ele>214.0</ele><time>2026-04-19T16:09:53Z</time></trkpt><trkpt lat="45.64359746113476" lon="9.367579781741545"><ele>213.39999999999998</ele><time>2026-04-19T16:09:55Z</time></trkpt><trkpt lat="45.64351227334521" lon="9.367585175369406"><ele>212.79999999999998</ele><time>2026-04-19T16:09:58Z</time></trkpt><trkpt lat="45.64342624167792" lon="9.367602174176863"><ele>212.2</ele><time>2026-04-19T16:10:01Z</time></trkpt><trkpt lat="45.643338050866554" lon="9.367633025943128"><ele>211.60000000000002</ele><time>2026-04-19T16:10:03Z</time></trkpt><trkpt lat="45.643242812609024" lon="9.367648165551811"><ele>211.0</ele><time>2026-04-19T16:10:05Z</time></trkpt><trkpt lat="45.6431452604304" lon="9.36765205568899"><ele>210.99999999999997</ele><time>2026-04-19T16:10:07Z</time></trkpt><trkpt lat="45.64305277559907" lon="9.367656441547593"><ele>211.0</ele><time>2026-04-19T16:10:09Z</time></trkpt><trkpt lat="45.64296725598639" lon="9.367656344701416"><ele>211.0</ele><time>2026-04-19T16:10:11Z</time></trkpt><trkpt lat="45.64288093657452" lon="9.36765981721801"><ele>211.0</ele><time>2026-04-19T16:10:13Z</time></trkpt><trkpt lat="45.64280008139003" lon="9.3676551474599"><ele>210.99999999999997</ele><time>2026-04-19T16:10:15Z</time></trkpt><trkpt lat="45.64272150726047" lon="9.36766085840104"><ele>211.0</ele><time>2026-04-19T16:10:17Z</time></trkpt><trkpt lat="45.6426460874377" lon="9.367657445200885"><ele>211.28571428571428</ele><time>2026-04-19T16:10:19Z</time></trkpt><trkpt lat="45.64257319453614" lon="9.367661713724196"><ele>211.57142857142858</ele><time>2026-04-19T16:10:21Z</time></trkpt><trkpt lat="45.642501332645466" lon="9.367666274731144"><ele>211.85714285714283</ele><time>2026-04-19T16:10:23Z</time></trkpt><trkpt lat="45.64243126230792" lon="9.36767103847463"><ele>212.14285714285714</ele><time>2026-04-19T16:10:25Z</time></trkpt><trkpt lat="45.64236149031334" lon="9.367672840018097"><ele>212.42857142857142</ele><time>2026-04-19T16:10:27Z</time></trkpt><trkpt lat="45.642296877406324" lon="9.367671444051558"><ele>212.7142857142857</ele><time>2026-04-19T16:10:29Z</time></trkpt><trkpt lat="45.64219909660561" lon="9.36767036211175"><ele>213.0</ele><time>2026-04-19T16:10:32Z</time></trkpt><trkpt lat="45.642126159541945" lon="9.367673940808853"><ele>213.0</ele><time>2026-04-19T16:10:34Z</time></trkpt><trkpt lat="45.64205657189876" lon="9.3676800896331"><ele>213.0</ele><time>2026-04-19T16:10:36Z</time></trkpt><trkpt lat="45.64198960497211" lon="9.367681695634417"><ele>213.0</ele><time>2026-04-19T16:10:38Z</time></trkpt><trkpt lat="45.641908941183075" lon="9.367693273842315"><ele>213.0</ele><time>2026-04-19T16:10:40Z</time></trkpt><trkpt lat="45.64182783278622" lon="9.367683708374985"><ele>213.0</ele><time>2026-04-19T16:10:42Z</time></trkpt><trkpt lat="45.6417381135318" lon="9.367687572483701"><ele>213.0</ele><time>2026-04-19T16:10:44Z</time></trkpt><trkpt lat="45.64164845224838" lon="9.367696991497205"><ele>212.66666666666666</ele><time>2026-04-19T16:10:46Z</time></trkpt><trkpt lat="45.64156254137972" lon="9.3676962697171"><ele>212.33333333333331</ele><time>2026-04-19T16:10:48Z</time></trkpt><trkpt lat="45.64147923350514" lon="9.367704756622524"><ele>212.0</ele><time>2026-04-19T16:10:50Z</time></trkpt><trkpt lat="45.64139779468013" lon="9.367712612359194"><ele>211.66666666666666</ele><time>2026-04-19T16:10:52Z</time></trkpt><trkpt lat="45.641318847045426" lon="9.367714808893167"><ele>211.33333333333331</ele><time>2026-04-19T16:10:54Z</time></trkpt><trkpt lat="45.64123639603432" lon="9.367716350079277"><ele>211.0</ele><time>2026-04-19T16:10:56Z</time></trkpt><trkpt lat="45.641157074538555" lon="9.367722191909902"><ele>210.66666666666666</ele><time>2026-04-19T16:10:58Z</time></trkpt><trkpt lat="45.641077812657926" lon="9.367732500524506"><ele>210.33333333333331</ele><time>2026-04-19T16:11:00Z</time></trkpt><trkpt lat="45.64100022168209" lon="9.367705592116963"><ele>210.0</ele><time>2026-04-19T16:11:02Z</time></trkpt><trkpt lat="45.64092223995517" lon="9.367684242357658"><ele>209.66666666666669</ele><time>2026-04-19T16:11:04Z</time></trkpt><trkpt lat="45.640846959990185" lon="9.367705231323942"><ele>209.33333333333334</ele><time>2026-04-19T16:11:06Z</time></trkpt><trkpt lat="45.64079027820172" lon="9.36777913535599"><ele>209.0</ele><time>2026-04-19T16:11:08Z</time></trkpt><trkpt lat="45.640718430254985" lon="9.367761171337925"><ele>209.00000000000003</ele><time>2026-04-19T16:11:10Z</time></trkpt><trkpt lat="45.64063977199911" lon="9.367773898529387"><ele>209.0</ele><time>2026-04-19T16:11:12Z</time></trkpt><trkpt lat="45.64055719085545" lon="9.367760123462208"><ele>209.0</ele><time>2026-04-19T16:11:14Z</time></trkpt><trkpt lat="45.640476879918886" lon="9.367759771338104"><ele>209.0</ele><time>2026-04-19T16:11:16Z</time></trkpt><trkpt lat="45.64039819225684" lon="9.367760093864955"><ele>209.00000000000003</ele><time>2026-04-19T16:11:18Z</time></trkpt><trkpt lat="45.64033466402512" lon="9.367760999496625"><ele>209.0</ele><time>2026-04-19T16:11:20Z</time></trkpt><trkpt lat="45.64025653252572" lon="9.367764559407355"><ele>209.00000000000003</ele><time>2026-04-19T16:11:22Z</time></trkpt><trkpt lat="45.64017113998293" lon="9.367771350536353"><ele>209.0</ele><time>2026-04-19T16:11:24Z</time></trkpt><trkpt lat="45.64009073311812" lon="9.367781790354872"><ele>209.0</ele><time>2026-04-19T16:11:26Z</time></trkpt><trkpt lat="45.640015415853185" lon="9.367782129516037"><ele>209.0</ele><time>2026-04-19T16:11:28Z</time></trkpt><trkpt lat="45.6399291019975" lon="9.367782883051921"><ele>209.00000000000003</ele><time>2026-04-19T16:11:30Z</time></trkpt><trkpt lat="45.63983532185049" lon="9.367777169746608"><ele>209.0</ele><time>2026-04-19T16:11:33Z</time></trkpt><trkpt lat="45.63976691223987" lon="9.367773570972014"><ele>209.0</ele><time>2026-04-19T16:11:35Z</time></trkpt><trkpt lat="45.639699458634226" lon="9.367783635011792"><ele>209.0</ele><time>2026-04-19T16:11:37Z</time></trkpt><trkpt lat="45.639632159004464" lon="9.367778418661857"><ele>209.0</ele><time>2026-04-19T16:11:39Z</time></trkpt><trkpt lat="45.63956152036776" lon="9.367789832686707"><ele>209.0</ele><time>2026-04-19T16:11:41Z</time></trkpt><trkpt lat="45.63948829923145" lon="9.367800751478596"><ele>209.0</ele><time>2026-04-19T16:11:43Z</time></trkpt><trkpt lat="45.639416132026525" lon="9.367812129820624"><ele>209.0</ele><time>2026-04-19T16:11:45Z</time></trkpt><trkpt lat="45.639345711785666" lon="9.367828753876069"><ele>209.0</ele><time>2026-04-19T16:11:47Z</time></trkpt><trkpt lat="45.63928214786581" lon="9.367805929774189"><ele>209.16666666666669</ele><time>2026-04-19T16:11:49Z</time></trkpt><trkpt lat="45.639242839030565" lon="9.36766707182585"><ele>209.33333333333334</ele><time>2026-04-19T16:11:52Z</time></trkpt><trkpt lat="45.6392345213167" lon="9.367570287972557"><ele>209.5</ele><time>2026-04-19T16:11:54Z</time></trkpt><trkpt lat="45.63922054398987" lon="9.36746784665821"><ele>209.66666666666669</ele><time>2026-04-19T16:11:56Z</time></trkpt><trkpt lat="45.639220648917195" lon="9.36735679398558"><ele>209.83333333333334</ele><time>2026-04-19T16:11:58Z</time></trkpt><trkpt lat="45.63921717333108" lon="9.367248524886959"><ele>210.0</ele><time>2026-04-19T16:12:00Z</time></trkpt><trkpt lat="45.63920942997817" lon="9.367133357096485"><ele>210.0</ele><time>2026-04-19T16:12:02Z</time></trkpt><trkpt lat="45.63920112069437" lon="9.36702791196671"><ele>210.0</ele><time>2026-04-19T16:12:04Z</time></trkpt><trkpt lat="45.639192943922524" lon="9.366932495271096"><ele>210.0</ele><time>2026-04-19T16:12:06Z</time></trkpt><trkpt lat="45.639184227607146" lon="9.366829599302973"><ele>210.0</ele><time>2026-04-19T16:12:08Z</time></trkpt><trkpt lat="45.63916615597527" lon="9.366713209940642"><ele>210.0</ele><time>2026-04-19T16:12:10Z</time></trkpt><trkpt lat="45.63915235889987" lon="9.366593981380026"><ele>210.0</ele><time>2026-04-19T16:12:12Z</time></trkpt><trkpt lat="45.639132420511864" lon="9.366473564161655"><ele>210.0</ele><time>2026-04-19T16:12:14Z</time></trkpt><trkpt lat="45.639110848255484" lon="9.366352156218078"><ele>210.0</ele><time>2026-04-19T16:12:16Z</time></trkpt><trkpt lat="45.639088704234425" lon="9.366233665424971"><ele>210.0</ele><time>2026-04-19T16:12:18Z</time></trkpt><trkpt lat="45.639067188227784" lon="9.366105310453202"><ele>210.0</ele><time>2026-04-19T16:12:20Z</time></trkpt><trkpt lat="45.63904351433522" lon="9.365983267450684"><ele>210.0</ele><time>2026-04-19T16:12:22Z</time></trkpt><trkpt lat="45.63902417870305" lon="9.365875632963803"><ele>210.0</ele><time>2026-04-19T16:12:24Z</time></trkpt><trkpt lat="45.63900157548082" lon="9.365758398291327"><ele>210.0</ele><time>2026-04-19T16:12:26Z</time></trkpt><trkpt lat="45.63897625358084" lon="9.365631275667383"><ele>210.0</ele><time>2026-04-19T16:12:28Z</time></trkpt><trkpt lat="45.63895177466032" lon="9.365510132759962"><ele>210.0</ele><time>2026-04-19T16:12:30Z</time></trkpt><trkpt lat="45.6389279096816" lon="9.365385891954757"><ele>210.0</ele><time>2026-04-19T16:12:32Z</time></trkpt><trkpt lat="45.6389168912354" lon="9.365261342652982"><ele>210.0</ele><time>2026-04-19T16:12:34Z</time></trkpt><trkpt lat="45.638906467186075" lon="9.365142624613288"><ele>210.0</ele><time>2026-04-19T16:12:36Z</time></trkpt><trkpt lat="45.63889047524807" lon="9.36503283380971"><ele>210.16666666666666</ele><time>2026-04-19T16:12:38Z</time></trkpt><trkpt lat="45.638877270406816" lon="9.364925622229011"><ele>210.33333333333331</ele><time>2026-04-19T16:12:40Z</time></trkpt><trkpt lat="45.63886751175913" lon="9.364819186394074"><ele>210.5</ele><time>2026-04-19T16:12:42Z</time></trkpt><trkpt lat="45.638868499676946" lon="9.364685771156553"><ele>210.66666666666666</ele><time>2026-04-19T16:12:45Z</time></trkpt><trkpt lat="45.63886135506096" lon="9.364564867815503"><ele>210.83333333333331</ele><time>2026-04-19T16:12:48Z</time></trkpt><trkpt lat="45.63884241808825" lon="9.364466837367912"><ele>211.0</ele><time>2026-04-19T16:12:51Z</time></trkpt><trkpt lat="45.638727163352726" lon="9.364456917306843"><ele>210.99999999999997</ele><time>2026-04-19T16:12:53Z</time></trkpt><trkpt lat="45.63864813065527" lon="9.364451555642658"><ele>211.0</ele><time>2026-04-19T16:12:55Z</time></trkpt><trkpt lat="45.63856930405312" lon="9.364453526023988"><ele>211.0</ele><time>2026-04-19T16:12:57Z</time></trkpt><trkpt lat="45.63849192780163" lon="9.364453630454294"><ele>211.0</ele><time>2026-04-19T16:12:59Z</time></trkpt><trkpt lat="45.638418380740454" lon="9.364461128531806"><ele>210.99999999999997</ele><time>2026-04-19T16:13:01Z</time></trkpt><trkpt lat="45.63834472854804" lon="9.364481202735131"><ele>211.0</ele><time>2026-04-19T16:13:03Z</time></trkpt><trkpt lat="45.63827148000687" lon="9.364508811311167"><ele>211.16666666666666</ele><time>2026-04-19T16:13:05Z</time></trkpt><trkpt lat="45.6381914308705" lon="9.364523929882617"><ele>211.33333333333331</ele><time>2026-04-19T16:13:07Z</time></trkpt><trkpt lat="45.63810852560156" lon="9.36455074109374"><ele>211.5</ele><time>2026-04-19T16:13:09Z</time></trkpt><trkpt lat="45.638023534258366" lon="9.364577286541937"><ele>211.66666666666669</ele><time>2026-04-19T16:13:11Z</time></trkpt><trkpt lat="45.6379365248704" lon="9.364601119120705"><ele>211.83333333333334</ele><time>2026-04-19T16:13:13Z</time></trkpt><trkpt lat="45.637847923319605" lon="9.364623525888549"><ele>212.0</ele><time>2026-04-19T16:13:15Z</time></trkpt><trkpt lat="45.63775946378116" lon="9.36464577126772"><ele>212.0</ele><time>2026-04-19T16:13:17Z</time></trkpt><trkpt lat="45.63767041790046" lon="9.3646689904853"><ele>212.0</ele><time>2026-04-19T16:13:19Z</time></trkpt><trkpt lat="45.63758152529705" lon="9.364691031482216"><ele>212.0</ele><time>2026-04-19T16:13:21Z</time></trkpt><trkpt lat="45.637492784640564" lon="9.364728791681209"><ele>212.0</ele><time>2026-04-19T16:13:23Z</time></trkpt><trkpt lat="45.63740287688129" lon="9.364754877502342"><ele>212.0</ele><time>2026-04-19T16:13:25Z</time></trkpt><trkpt lat="45.63730891415057" lon="9.36478809513859"><ele>211.8</ele><time>2026-04-19T16:13:27Z</time></trkpt><trkpt lat="45.637216584330844" lon="9.364827011625554"><ele>211.6</ele><time>2026-04-19T16:13:29Z</time></trkpt><trkpt lat="45.63713147092534" lon="9.364869869528315"><ele>211.4</ele><time>2026-04-19T16:13:31Z</time></trkpt><trkpt lat="45.63705005148323" lon="9.364906607549885"><ele>211.20000000000002</ele><time>2026-04-19T16:13:33Z</time></trkpt><trkpt lat="45.63696503005398" lon="9.364944870929994"><ele>211.0</ele><time>2026-04-19T16:13:35Z</time></trkpt><trkpt lat="45.6368801022587" lon="9.36499600468531"><ele>210.8</ele><time>2026-04-19T16:13:37Z</time></trkpt><trkpt lat="45.63679245722229" lon="9.365050725729386"><ele>210.60000000000002</ele><time>2026-04-19T16:13:39Z</time></trkpt><trkpt lat="45.6367064815387" lon="9.365109224153331"><ele>210.4</ele><time>2026-04-19T16:13:41Z</time></trkpt><trkpt lat="45.63662565060327" lon="9.36517833487968"><ele>210.2</ele><time>2026-04-19T16:13:43Z</time></trkpt><trkpt lat="45.63654610374269" lon="9.365241873679224"><ele>210.0</ele><time>2026-04-19T16:13:45Z</time></trkpt><trkpt lat="45.636463624053704" lon="9.36530621826713"><ele>210.0</ele><time>2026-04-19T16:13:47Z</time></trkpt><trkpt lat="45.636386567543504" lon="9.365382472448053"><ele>210.0</ele><time>2026-04-19T16:13:49Z</time></trkpt><trkpt lat="45.636312598957446" lon="9.365447783056018"><ele>210.0</ele><time>2026-04-19T16:13:51Z</time></trkpt><trkpt lat="45.63624195688899" lon="9.36551422558226"><ele>210.0</ele><time>2026-04-19T16:13:53Z</time></trkpt><trkpt lat="45.63616896163764" lon="9.365574530866345"><ele>210.0</ele><time>2026-04-19T16:13:55Z</time></trkpt><trkpt lat="45.63609140255087" lon="9.365630998717265"><ele>210.0</ele><time>2026-04-19T16:13:57Z</time></trkpt><trkpt lat="45.63600672584068" lon="9.36569244838913"><ele>210.0</ele><time>2026-04-19T16:13:59Z</time></trkpt><trkpt lat="45.635919693685004" lon="9.365747690276965"><ele>210.0</ele><time>2026-04-19T16:14:01.001Z</time></trkpt><trkpt lat="45.635828881905354" lon="9.36579980884882"><ele>210.0</ele><time>2026-04-19T16:14:03.001Z</time></trkpt><trkpt lat="45.635735374989586" lon="9.365851386692196"><ele>210.0</ele><time>2026-04-19T16:14:05.001Z</time></trkpt><trkpt lat="45.63563988299293" lon="9.365908366824724"><ele>210.0</ele><time>2026-04-19T16:14:07.001Z</time></trkpt><trkpt lat="45.63554311986047" lon="9.365960425735274"><ele>210.0</ele><time>2026-04-19T16:14:09.001Z</time></trkpt><trkpt lat="45.635441937126544" lon="9.366020553474875"><ele>210.0</ele><time>2026-04-19T16:14:11.001Z</time></trkpt><trkpt lat="45.635339134362376" lon="9.366078783224948"><ele>210.0</ele><time>2026-04-19T16:14:13.001Z</time></trkpt><trkpt lat="45.63523728183518" lon="9.366142354667161"><ele>210.0</ele><time>2026-04-19T16:14:15Z</time></trkpt><trkpt lat="45.63513618885805" lon="9.36620033013169"><ele>210.0</ele><time>2026-04-19T16:14:17Z</time></trkpt><trkpt lat="45.635035475362706" lon="9.366229446937755"><ele>210.0</ele><time>2026-04-19T16:14:19Z</time></trkpt><trkpt lat="45.634941397893684" lon="9.36631267928491"><ele>210.0</ele><time>2026-04-19T16:14:21Z</time></trkpt><trkpt lat="45.634846183694144" lon="9.366361729000463"><ele>210.0</ele><time>2026-04-19T16:14:23Z</time></trkpt><trkpt lat="45.634758864441395" lon="9.366416120101313"><ele>210.0</ele><time>2026-04-19T16:14:25Z</time></trkpt><trkpt lat="45.634670236026814" lon="9.366468851352058"><ele>210.0</ele><time>2026-04-19T16:14:27Z</time></trkpt><trkpt lat="45.634583290465514" lon="9.366521103577435"><ele>210.0</ele><time>2026-04-19T16:14:29Z</time></trkpt><trkpt lat="45.63448956026404" lon="9.366565804204336"><ele>210.0</ele><time>2026-04-19T16:14:31Z</time></trkpt><trkpt lat="45.63439686475514" lon="9.366636061858525"><ele>210.0</ele><time>2026-04-19T16:14:33Z</time></trkpt><trkpt lat="45.63429381278321" lon="9.36669246859801"><ele>210.0</ele><time>2026-04-19T16:14:35Z</time></trkpt><trkpt lat="45.63419101658898" lon="9.366756092987044"><ele>210.0</ele><time>2026-04-19T16:14:37Z</time></trkpt><trkpt lat="45.63408819071433" lon="9.366826651022702"><ele>210.5</ele><time>2026-04-19T16:14:39Z</time></trkpt><trkpt lat="45.63398663360606" lon="9.366898446431126"><ele>211.0</ele><time>2026-04-19T16:14:41Z</time></trkpt><trkpt lat="45.6338719211716" lon="9.366955136078726"><ele>211.5</ele><time>2026-04-19T16:14:43Z</time></trkpt><trkpt lat="45.63376304660976" lon="9.367028763930337"><ele>212.0</ele><time>2026-04-19T16:14:45Z</time></trkpt><trkpt lat="45.63365050912693" lon="9.367095568099995"><ele>211.0</ele><time>2026-04-19T16:14:47Z</time></trkpt><trkpt lat="45.63353945372008" lon="9.367171296974696"><ele>210.0</ele><time>2026-04-19T16:14:49Z</time></trkpt><trkpt lat="45.63343139765042" lon="9.3672279319814"><ele>209.0</ele><time>2026-04-19T16:14:51Z</time></trkpt><trkpt lat="45.633316314184974" lon="9.367251712352292"><ele>208.0</ele><time>2026-04-19T16:14:53Z</time></trkpt><trkpt lat="45.6332023356319" lon="9.367242168259152"><ele>207.75</ele><time>2026-04-19T16:14:55Z</time></trkpt><trkpt lat="45.63310374707602" lon="9.367266996281318"><ele>207.5</ele><time>2026-04-19T16:14:57Z</time></trkpt><trkpt lat="45.633068561925505" lon="9.367435478853627"><ele>207.25</ele><time>2026-04-19T16:14:59Z</time></trkpt><trkpt lat="45.632954744301" lon="9.367502849905742"><ele>207.0</ele><time>2026-04-19T16:15:01Z</time></trkpt><trkpt lat="45.63283939014019" lon="9.36756141427048"><ele>207.2</ele><time>2026-04-19T16:15:03Z</time></trkpt><trkpt lat="45.63272958923642" lon="9.367631835917424"><ele>207.39999999999998</ele><time>2026-04-19T16:15:05Z</time></trkpt><trkpt lat="45.632611925985074" lon="9.367684297097924"><ele>207.60000000000002</ele><time>2026-04-19T16:15:07Z</time></trkpt><trkpt lat="45.632552928419294" lon="9.367718633902612"><ele>207.8</ele><time>2026-04-19T16:15:08Z</time></trkpt><trkpt lat="45.632442995352015" lon="9.367781969208638"><ele>208.0</ele><time>2026-04-19T16:15:10Z</time></trkpt><trkpt lat="45.63233057896205" lon="9.367849077522822"><ele>208.0</ele><time>2026-04-19T16:15:12Z</time></trkpt><trkpt lat="45.63227257359146" lon="9.367886510150852"><ele>208.0</ele><time>2026-04-19T16:15:13Z</time></trkpt><trkpt lat="45.632152967956685" lon="9.367940979371182"><ele>208.0</ele><time>2026-04-19T16:15:15Z</time></trkpt><trkpt lat="45.63203709920397" lon="9.368012000860451"><ele>208.0</ele><time>2026-04-19T16:15:17Z</time></trkpt><trkpt lat="45.631977534657544" lon="9.368044260420833"><ele>208.0</ele><time>2026-04-19T16:15:18Z</time></trkpt><trkpt lat="45.631862104228155" lon="9.368117728887144"><ele>208.0</ele><time>2026-04-19T16:15:20Z</time></trkpt><trkpt lat="45.63175281161824" lon="9.368178278976782"><ele>208.0</ele><time>2026-04-19T16:15:22Z</time></trkpt><trkpt lat="45.63163936085289" lon="9.368235784267588"><ele>208.0</ele><time>2026-04-19T16:15:24Z</time></trkpt><trkpt lat="45.63152679802241" lon="9.368297910192636"><ele>208.0</ele><time>2026-04-19T16:15:26Z</time></trkpt><trkpt lat="45.63141837425486" lon="9.368355185288895"><ele>208.0</ele><time>2026-04-19T16:15:28Z</time></trkpt><trkpt lat="45.63130314830405" lon="9.368407561853424"><ele>208.0</ele><time>2026-04-19T16:15:30Z</time></trkpt><trkpt lat="45.63118446402008" lon="9.368453678752335"><ele>208.0</ele><time>2026-04-19T16:15:32Z</time></trkpt><trkpt lat="45.63106436605229" lon="9.368482488633003"><ele>208.0</ele><time>2026-04-19T16:15:34Z</time></trkpt><trkpt lat="45.63094213230015" lon="9.368520137889929"><ele>207.8</ele><time>2026-04-19T16:15:36Z</time></trkpt><trkpt lat="45.630880167786856" lon="9.368536749385997"><ele>207.60000000000002</ele><time>2026-04-19T16:15:37Z</time></trkpt><trkpt lat="45.630757612550475" lon="9.36857436351658"><ele>207.39999999999998</ele><time>2026-04-19T16:15:39Z</time></trkpt><trkpt lat="45.630638963403015" lon="9.368600568735967"><ele>207.2</ele><time>2026-04-19T16:15:41Z</time></trkpt><trkpt lat="45.630523564454606" lon="9.368634226334686"><ele>207.0</ele><time>2026-04-19T16:15:43Z</time></trkpt><trkpt lat="45.63040487180865" lon="9.368662154602433"><ele>206.75</ele><time>2026-04-19T16:15:45Z</time></trkpt><trkpt lat="45.63028697659515" lon="9.368695898139354"><ele>206.5</ele><time>2026-04-19T16:15:47Z</time></trkpt><trkpt lat="45.63016725977792" lon="9.36871306612537"><ele>206.25</ele><time>2026-04-19T16:15:49Z</time></trkpt><trkpt lat="45.63004769984753" lon="9.368724896765018"><ele>206.0</ele><time>2026-04-19T16:15:51Z</time></trkpt><trkpt lat="45.62993289909046" lon="9.368728561155768"><ele>206.0</ele><time>2026-04-19T16:15:53Z</time></trkpt><trkpt lat="45.62982354238102" lon="9.368720915034357"><ele>206.0</ele><time>2026-04-19T16:15:55Z</time></trkpt><trkpt lat="45.629713088134395" lon="9.368705458695906"><ele>206.0</ele><time>2026-04-19T16:15:57Z</time></trkpt><trkpt lat="45.629599098283116" lon="9.368689671541128"><ele>206.0</ele><time>2026-04-19T16:15:59Z</time></trkpt><trkpt lat="45.62948817826138" lon="9.368675236923295"><ele>206.0</ele><time>2026-04-19T16:16:01Z</time></trkpt><trkpt lat="45.62938102050481" lon="9.36866377013542"><ele>205.8</ele><time>2026-04-19T16:16:03Z</time></trkpt><trkpt lat="45.62927632750804" lon="9.368647721351143"><ele>205.60000000000002</ele><time>2026-04-19T16:16:05Z</time></trkpt><trkpt lat="45.62916930248861" lon="9.368644439272023"><ele>205.4</ele><time>2026-04-19T16:16:07Z</time></trkpt><trkpt lat="45.62905693157442" lon="9.368642554872618"><ele>205.2</ele><time>2026-04-19T16:16:09Z</time></trkpt><trkpt lat="45.62894329488262" lon="9.36864947351087"><ele>205.0</ele><time>2026-04-19T16:16:11Z</time></trkpt><trkpt lat="45.62882986897686" lon="9.368670020678652"><ele>205.0</ele><time>2026-04-19T16:16:13Z</time></trkpt><trkpt lat="45.62872208380362" lon="9.368689644878572"><ele>205.0</ele><time>2026-04-19T16:16:15Z</time></trkpt><trkpt lat="45.62861350474599" lon="9.368706691630209"><ele>205.0</ele><time>2026-04-19T16:16:17Z</time></trkpt><trkpt lat="45.628500418390615" lon="9.368735464627978"><ele>205.0</ele><time>2026-04-19T16:16:19Z</time></trkpt><trkpt lat="45.62838468419018" lon="9.368749827066795"><ele>205.0</ele><time>2026-04-19T16:16:21Z</time></trkpt><trkpt lat="45.628270313147986" lon="9.368772941637117"><ele>205.2</ele><time>2026-04-19T16:16:23Z</time></trkpt><trkpt lat="45.62815517400446" lon="9.36879596461546"><ele>205.4</ele><time>2026-04-19T16:16:25Z</time></trkpt><trkpt lat="45.62804363589292" lon="9.368821925675453"><ele>205.60000000000002</ele><time>2026-04-19T16:16:27Z</time></trkpt><trkpt lat="45.62793166063259" lon="9.368856727750412"><ele>205.8</ele><time>2026-04-19T16:16:29Z</time></trkpt><trkpt lat="45.62784183530287" lon="9.368901538560033"><ele>206.0</ele><time>2026-04-19T16:16:31Z</time></trkpt><trkpt lat="45.62773463977295" lon="9.368893113979786"><ele>206.0</ele><time>2026-04-19T16:16:33Z</time></trkpt><trkpt lat="45.62762835553071" lon="9.36891544194121"><ele>206.0</ele><time>2026-04-19T16:16:35Z</time></trkpt><trkpt lat="45.62752219735266" lon="9.368949122807495"><ele>206.0</ele><time>2026-04-19T16:16:37Z</time></trkpt><trkpt lat="45.627412072776124" lon="9.368957433355227"><ele>206.0</ele><time>2026-04-19T16:16:39Z</time></trkpt><trkpt lat="45.62730143232295" lon="9.368984371937804"><ele>206.0</ele><time>2026-04-19T16:16:41Z</time></trkpt><trkpt lat="45.62718140920277" lon="9.369021955834508"><ele>206.0</ele><time>2026-04-19T16:16:43Z</time></trkpt><trkpt lat="45.62707180385446" lon="9.369051108651458"><ele>206.0</ele><time>2026-04-19T16:16:45Z</time></trkpt><trkpt lat="45.62696517590527" lon="9.369086779752811"><ele>206.0</ele><time>2026-04-19T16:16:47Z</time></trkpt><trkpt lat="45.62684354242189" lon="9.369108668438507"><ele>206.0</ele><time>2026-04-19T16:16:49Z</time></trkpt><trkpt lat="45.62672740062194" lon="9.369132891112733"><ele>205.8</ele><time>2026-04-19T16:16:51Z</time></trkpt><trkpt lat="45.62660456479105" lon="9.369159050990923"><ele>205.60000000000002</ele><time>2026-04-19T16:16:53Z</time></trkpt><trkpt lat="45.62648720880438" lon="9.369182762666108"><ele>205.4</ele><time>2026-04-19T16:16:55Z</time></trkpt><trkpt lat="45.62641934269815" lon="9.36920389892276"><ele>205.2</ele><time>2026-04-19T16:16:56Z</time></trkpt><trkpt lat="45.626315602030786" lon="9.369232155619487"><ele>205.0</ele><time>2026-04-19T16:16:58Z</time></trkpt><trkpt lat="45.62621146420067" lon="9.369240799199865"><ele>205.0</ele><time>2026-04-19T16:17:00Z</time></trkpt><trkpt lat="45.62609811103491" lon="9.369276810470321"><ele>205.0</ele><time>2026-04-19T16:17:02Z</time></trkpt><trkpt lat="45.62599418167945" lon="9.369284014873749"><ele>205.0</ele><time>2026-04-19T16:17:04Z</time></trkpt><trkpt lat="45.6258842516964" lon="9.369309957428749"><ele>205.0</ele><time>2026-04-19T16:17:06Z</time></trkpt><trkpt lat="45.62577281222315" lon="9.36932381780002"><ele>205.0</ele><time>2026-04-19T16:17:08Z</time></trkpt><trkpt lat="45.62566022267203" lon="9.36935269023589"><ele>205.0</ele><time>2026-04-19T16:17:10Z</time></trkpt><trkpt lat="45.625545658232426" lon="9.369381579701624"><ele>205.0</ele><time>2026-04-19T16:17:12Z</time></trkpt><trkpt lat="45.625482617437974" lon="9.369391415039207"><ele>205.0</ele><time>2026-04-19T16:17:13Z</time></trkpt><trkpt lat="45.62536428583155" lon="9.369411752889787"><ele>205.0</ele><time>2026-04-19T16:17:15Z</time></trkpt><trkpt lat="45.62524257141085" lon="9.36944380381856"><ele>205.0</ele><time>2026-04-19T16:17:17Z</time></trkpt><trkpt lat="45.62512043435843" lon="9.369429694208426"><ele>204.83333333333331</ele><time>2026-04-19T16:17:19Z</time></trkpt><trkpt lat="45.625055780187594" lon="9.369475072129518"><ele>204.66666666666666</ele><time>2026-04-19T16:17:20Z</time></trkpt><trkpt lat="45.62499334423302" lon="9.369491692281834"><ele>204.5</ele><time>2026-04-19T16:17:21Z</time></trkpt><trkpt lat="45.62492851455481" lon="9.369505378075516"><ele>204.33333333333331</ele><time>2026-04-19T16:17:22Z</time></trkpt><trkpt lat="45.62480290810161" lon="9.369531855229488"><ele>204.16666666666666</ele><time>2026-04-19T16:17:24Z</time></trkpt><trkpt lat="45.62468282991387" lon="9.369551402913439"><ele>204.0</ele><time>2026-04-19T16:17:26Z</time></trkpt><trkpt lat="45.62456695587857" lon="9.36957612646607"><ele>204.0</ele><time>2026-04-19T16:17:28Z</time></trkpt><trkpt lat="45.62445909850996" lon="9.36959757725905"><ele>204.0</ele><time>2026-04-19T16:17:30Z</time></trkpt><trkpt lat="45.624353684876255" lon="9.369625700134183"><ele>204.0</ele><time>2026-04-19T16:17:32Z</time></trkpt><trkpt lat="45.624249524385924" lon="9.369646378764548"><ele>204.0</ele><time>2026-04-19T16:17:34Z</time></trkpt><trkpt lat="45.624137570360894" lon="9.369672351345809"><ele>204.0</ele><time>2026-04-19T16:17:36Z</time></trkpt><trkpt lat="45.624020213741545" lon="9.369689207108054"><ele>203.79999999999998</ele><time>2026-04-19T16:17:38Z</time></trkpt><trkpt lat="45.623908792531346" lon="9.369719156887452"><ele>203.6</ele><time>2026-04-19T16:17:40Z</time></trkpt><trkpt lat="45.62384489747319" lon="9.369729492147664"><ele>203.4</ele><time>2026-04-19T16:17:41Z</time></trkpt><trkpt lat="45.62372881914733" lon="9.369756972459955"><ele>203.2</ele><time>2026-04-19T16:17:43Z</time></trkpt><trkpt lat="45.62361473651826" lon="9.369784755682277"><ele>203.0</ele><time>2026-04-19T16:17:45Z</time></trkpt><trkpt lat="45.62350115586276" lon="9.36980648376674"><ele>203.0</ele><time>2026-04-19T16:17:47Z</time></trkpt><trkpt lat="45.62339582500101" lon="9.369827748242354"><ele>203.0</ele><time>2026-04-19T16:17:49Z</time></trkpt><trkpt lat="45.62328461844784" lon="9.369864738497089"><ele>203.0</ele><time>2026-04-19T16:17:51Z</time></trkpt><trkpt lat="45.62318119476125" lon="9.369872439811456"><ele>203.0</ele><time>2026-04-19T16:17:53Z</time></trkpt><trkpt lat="45.62311417852044" lon="9.369897241435162"><ele>203.0</ele><time>2026-04-19T16:17:54Z</time></trkpt><trkpt lat="45.62299908670708" lon="9.369926408244936"><ele>203.00000000000003</ele><time>2026-04-19T16:17:56Z</time></trkpt><trkpt lat="45.622877735174114" lon="9.369951223740657"><ele>203.0</ele><time>2026-04-19T16:17:58Z</time></trkpt><trkpt lat="45.62281131395077" lon="9.369961827040358"><ele>203.0</ele><time>2026-04-19T16:17:59Z</time></trkpt><trkpt lat="45.62269391223534" lon="9.369995305784137"><ele>203.0</ele><time>2026-04-19T16:18:01Z</time></trkpt><trkpt lat="45.62263105581137" lon="9.3700054333553"><ele>203.00000000000003</ele><time>2026-04-19T16:18:02Z</time></trkpt><trkpt lat="45.62256848217448" lon="9.370023394438029"><ele>203.0</ele><time>2026-04-19T16:18:03Z</time></trkpt><trkpt lat="45.62250302034409" lon="9.370041112431734"><ele>202.50000000000003</ele><time>2026-04-19T16:18:04Z</time></trkpt><trkpt lat="45.62243459699453" lon="9.370050831910211"><ele>202.0</ele><time>2026-04-19T16:18:05Z</time></trkpt><trkpt lat="45.62236779711635" lon="9.370063662539769"><ele>201.5</ele><time>2026-04-19T16:18:06Z</time></trkpt><trkpt lat="45.622302183683" lon="9.370084450338934"><ele>201.0</ele><time>2026-04-19T16:18:07Z</time></trkpt><trkpt lat="45.62223830016134" lon="9.370092341584451"><ele>200.50000000000003</ele><time>2026-04-19T16:18:08Z</time></trkpt><trkpt lat="45.62217369838777" lon="9.370106610835514"><ele>200.0</ele><time>2026-04-19T16:18:09Z</time></trkpt><trkpt lat="45.62205329474191" lon="9.370123251292327"><ele>200.0</ele><time>2026-04-19T16:18:11Z</time></trkpt><trkpt lat="45.62193803914697" lon="9.370150996135207"><ele>200.0</ele><time>2026-04-19T16:18:13Z</time></trkpt><trkpt lat="45.62182518328647" lon="9.370175243771309"><ele>200.0</ele><time>2026-04-19T16:18:15Z</time></trkpt><trkpt lat="45.62171156600826" lon="9.370196895997323"><ele>200.0</ele><time>2026-04-19T16:18:17Z</time></trkpt><trkpt lat="45.62159138892306" lon="9.370219155715432"><ele>200.00000000000003</ele><time>2026-04-19T16:18:19Z</time></trkpt><trkpt lat="45.62147387711574" lon="9.370247630813685"><ele>200.0</ele><time>2026-04-19T16:18:21Z</time></trkpt><trkpt lat="45.62141017940301" lon="9.370261363428355"><ele>200.0</ele><time>2026-04-19T16:18:22Z</time></trkpt><trkpt lat="45.621283544475546" lon="9.370281347516768"><ele>200.0</ele><time>2026-04-19T16:18:24Z</time></trkpt><trkpt lat="45.621216458931265" lon="9.37029707037193"><ele>200.00000000000003</ele><time>2026-04-19T16:18:25Z</time></trkpt><trkpt lat="45.62115121097485" lon="9.370306480614195"><ele>200.0</ele><time>2026-04-19T16:18:26Z</time></trkpt><trkpt lat="45.62108623109406" lon="9.370323706251684"><ele>199.6</ele><time>2026-04-19T16:18:27Z</time></trkpt><trkpt lat="45.62102215303695" lon="9.37033165304525"><ele>199.2</ele><time>2026-04-19T16:18:28Z</time></trkpt><trkpt lat="45.62090236998231" lon="9.370361477340646"><ele>198.8</ele><time>2026-04-19T16:18:30Z</time></trkpt><trkpt lat="45.620783192853644" lon="9.370395712781947"><ele>198.4</ele><time>2026-04-19T16:18:32Z</time></trkpt><trkpt lat="45.62067358513226" lon="9.370420488848987"><ele>198.0</ele><time>2026-04-19T16:18:34Z</time></trkpt><trkpt lat="45.620561510305706" lon="9.37044721463148"><ele>198.0</ele><time>2026-04-19T16:18:36Z</time></trkpt><trkpt lat="45.62045152937452" lon="9.370449158841947"><ele>198.0</ele><time>2026-04-19T16:18:38Z</time></trkpt><trkpt lat="45.620346003411434" lon="9.370471028044676"><ele>198.0</ele><time>2026-04-19T16:18:40Z</time></trkpt><trkpt lat="45.6202657539417" lon="9.370489494051228"><ele>198.0</ele><time>2026-04-19T16:18:42Z</time></trkpt><trkpt lat="45.62019100575937" lon="9.370506442044562"><ele>198.0</ele><time>2026-04-19T16:18:46Z</time></trkpt><trkpt lat="45.62012845220581" lon="9.370736366311098"><ele>198.2</ele><time>2026-04-19T16:18:50Z</time></trkpt><trkpt lat="45.620140553945035" lon="9.370868532161492"><ele>198.4</ele><time>2026-04-19T16:18:53Z</time></trkpt><trkpt lat="45.62015071798575" lon="9.370989624393841"><ele>198.6</ele><time>2026-04-19T16:18:55Z</time></trkpt><trkpt lat="45.62016175225417" lon="9.37111713690202"><ele>198.79999999999998</ele><time>2026-04-19T16:18:57Z</time></trkpt><trkpt lat="45.620185449654976" lon="9.371249480597669"><ele>199.0</ele><time>2026-04-19T16:18:59Z</time></trkpt><trkpt lat="45.62019225627568" lon="9.37138821024996"><ele>199.39999999999998</ele><time>2026-04-19T16:19:01Z</time></trkpt><trkpt lat="45.620210199498224" lon="9.371526327603547"><ele>199.8</ele><time>2026-04-19T16:19:03Z</time></trkpt><trkpt lat="45.62021917515694" lon="9.371665771989656"><ele>200.2</ele><time>2026-04-19T16:19:05Z</time></trkpt><trkpt lat="45.620231548402174" lon="9.371818132969999"><ele>200.60000000000002</ele><time>2026-04-19T16:19:07Z</time></trkpt><trkpt lat="45.62025133139687" lon="9.371968548327445"><ele>201.0</ele><time>2026-04-19T16:19:09Z</time></trkpt><trkpt lat="45.62026210844057" lon="9.372122587656566"><ele>200.60000000000002</ele><time>2026-04-19T16:19:11Z</time></trkpt><trkpt lat="45.6202808329513" lon="9.372285260567596"><ele>200.2</ele><time>2026-04-19T16:19:13Z</time></trkpt><trkpt lat="45.62030448166396" lon="9.372440397538632"><ele>199.8</ele><time>2026-04-19T16:19:15Z</time></trkpt><trkpt lat="45.62031800047057" lon="9.372584853605877"><ele>199.39999999999998</ele><time>2026-04-19T16:19:17Z</time></trkpt><trkpt lat="45.62033845520939" lon="9.372710117467074"><ele>199.0</ele><time>2026-04-19T16:19:19Z</time></trkpt><trkpt lat="45.62033764096148" lon="9.372860784267601"><ele>199.0</ele><time>2026-04-19T16:19:21Z</time></trkpt><trkpt lat="45.6203484739492" lon="9.372999532624222"><ele>199.0</ele><time>2026-04-19T16:19:23Z</time></trkpt><trkpt lat="45.620359185890614" lon="9.373145962329655"><ele>199.0</ele><time>2026-04-19T16:19:25Z</time></trkpt><trkpt lat="45.62035810684222" lon="9.373281015858282"><ele>199.0</ele><time>2026-04-19T16:19:27Z</time></trkpt><trkpt lat="45.62036261651363" lon="9.373406315113106"><ele>199.0</ele><time>2026-04-19T16:19:29Z</time></trkpt><trkpt lat="45.62035317402953" lon="9.373547084729555"><ele>199.2</ele><time>2026-04-19T16:19:31Z</time></trkpt><trkpt lat="45.62033311683113" lon="9.373683968499675"><ele>199.39999999999998</ele><time>2026-04-19T16:19:33Z</time></trkpt><trkpt lat="45.62031794583247" lon="9.373827787605109"><ele>199.6</ele><time>2026-04-19T16:19:35Z</time></trkpt><trkpt lat="45.62029495364074" lon="9.373965583191568"><ele>199.8</ele><time>2026-04-19T16:19:37Z</time></trkpt><trkpt lat="45.620270955751344" lon="9.374110673816945"><ele>200.0</ele><time>2026-04-19T16:19:39Z</time></trkpt><trkpt lat="45.620241778016414" lon="9.37425136014856"><ele>200.0</ele><time>2026-04-19T16:19:41Z</time></trkpt><trkpt lat="45.62021101367705" lon="9.37439340240633"><ele>200.0</ele><time>2026-04-19T16:19:43Z</time></trkpt><trkpt lat="45.6201755689183" lon="9.374529860802566"><ele>200.0</ele><time>2026-04-19T16:19:45Z</time></trkpt><trkpt lat="45.62014469230377" lon="9.3746720127259"><ele>200.0</ele><time>2026-04-19T16:19:47Z</time></trkpt><trkpt lat="45.62011257531474" lon="9.37481519213733"><ele>200.0</ele><time>2026-04-19T16:19:49Z</time></trkpt><trkpt lat="45.62008145842426" lon="9.374950551906675"><ele>200.0</ele><time>2026-04-19T16:19:51Z</time></trkpt><trkpt lat="45.620050751566005" lon="9.375077592294952"><ele>200.0</ele><time>2026-04-19T16:19:53Z</time></trkpt><trkpt lat="45.62002244306483" lon="9.375204619914134"><ele>200.0</ele><time>2026-04-19T16:19:55Z</time></trkpt><trkpt lat="45.6199960631034" lon="9.375345416696119"><ele>200.0</ele><time>2026-04-19T16:19:56.999Z</time></trkpt><trkpt lat="45.61996339220235" lon="9.37547344785844"><ele>200.0</ele><time>2026-04-19T16:19:58.999Z</time></trkpt><trkpt lat="45.619938397618554" lon="9.375601432867443"><ele>199.6</ele><time>2026-04-19T16:20:00.999Z</time></trkpt><trkpt lat="45.61990998041947" lon="9.37572055929083"><ele>199.2</ele><time>2026-04-19T16:20:02.999Z</time></trkpt><trkpt lat="45.61987823512575" lon="9.375844586133615"><ele>198.8</ele><time>2026-04-19T16:20:04.999Z</time></trkpt><trkpt lat="45.61984770783716" lon="9.375978207573887"><ele>198.4</ele><time>2026-04-19T16:20:06.999Z</time></trkpt><trkpt lat="45.61981264297148" lon="9.376109644531441"><ele>198.0</ele><time>2026-04-19T16:20:08.999Z</time></trkpt><trkpt lat="45.619777713372855" lon="9.376246549728549"><ele>198.16666666666666</ele><time>2026-04-19T16:20:10.999Z</time></trkpt><trkpt lat="45.61973051107108" lon="9.376365944430878"><ele>198.33333333333331</ele><time>2026-04-19T16:20:12.999Z</time></trkpt><trkpt lat="45.61970888478879" lon="9.376473171272151"><ele>198.5</ele><time>2026-04-19T16:20:14.999Z</time></trkpt><trkpt lat="45.61966013781901" lon="9.376571026142374"><ele>198.66666666666666</ele><time>2026-04-19T16:20:16.999Z</time></trkpt><trkpt lat="45.619618593731914" lon="9.376648740759533"><ele>198.83333333333331</ele><time>2026-04-19T16:20:19Z</time></trkpt><trkpt lat="45.619573627995784" lon="9.376771422906263"><ele>199.0</ele><time>2026-04-19T16:20:22Z</time></trkpt><trkpt lat="45.61961833389351" lon="9.376840481786058"><ele>199.0</ele><time>2026-04-19T16:20:23Z</time></trkpt><trkpt lat="45.61967478635353" lon="9.376925666493166"><ele>199.0</ele><time>2026-04-19T16:20:25Z</time></trkpt><trkpt lat="45.61972520775353" lon="9.377047020572503"><ele>199.0</ele><time>2026-04-19T16:20:27Z</time></trkpt><trkpt lat="45.61975419240603" lon="9.377189474993308"><ele>199.0</ele><time>2026-04-19T16:20:29Z</time></trkpt><trkpt lat="45.619787539882616" lon="9.377325615000522"><ele>199.0</ele><time>2026-04-19T16:20:31Z</time></trkpt><trkpt lat="45.619827582146065" lon="9.377466567107463"><ele>199.0</ele><time>2026-04-19T16:20:33Z</time></trkpt><trkpt lat="45.619853172346765" lon="9.377604789659229"><ele>199.0</ele><time>2026-04-19T16:20:35Z</time></trkpt><trkpt lat="45.61984722378796" lon="9.377745550959297"><ele>199.0</ele><time>2026-04-19T16:20:37Z</time></trkpt><trkpt lat="45.61987743815086" lon="9.377858988399147"><ele>199.0</ele><time>2026-04-19T16:20:39Z</time></trkpt><trkpt lat="45.6199091177425" lon="9.377981177145521"><ele>199.0</ele><time>2026-04-19T16:20:41Z</time></trkpt><trkpt lat="45.61995739909423" lon="9.378104769863947"><ele>199.0</ele><time>2026-04-19T16:20:43Z</time></trkpt><trkpt lat="45.61996791740158" lon="9.37824917608265"><ele>199.0</ele><time>2026-04-19T16:20:45Z</time></trkpt><trkpt lat="45.619997409987235" lon="9.378383130054521"><ele>199.0</ele><time>2026-04-19T16:20:47Z</time></trkpt><trkpt lat="45.62002364007857" lon="9.378502025999657"><ele>199.0</ele><time>2026-04-19T16:20:49Z</time></trkpt><trkpt lat="45.620063691486415" lon="9.378639787878877"><ele>199.0</ele><time>2026-04-19T16:20:51Z</time></trkpt><trkpt lat="45.62008607985067" lon="9.378770577436375"><ele>198.83333333333331</ele><time>2026-04-19T16:20:53Z</time></trkpt><trkpt lat="45.620123206799086" lon="9.378897589303744"><ele>198.66666666666666</ele><time>2026-04-19T16:20:55Z</time></trkpt><trkpt lat="45.62014002181363" lon="9.379014670365667"><ele>198.5</ele><time>2026-04-19T16:20:57Z</time></trkpt><trkpt lat="45.62017180780699" lon="9.379118982643934"><ele>198.33333333333331</ele><time>2026-04-19T16:20:59Z</time></trkpt><trkpt lat="45.62019021578284" lon="9.379256968026224"><ele>198.16666666666666</ele><time>2026-04-19T16:21:02Z</time></trkpt><trkpt lat="45.62021101611459" lon="9.379351002800252"><ele>198.0</ele><time>2026-04-19T16:21:04Z</time></trkpt><trkpt lat="45.62023360916668" lon="9.37946867129759"><ele>198.0</ele><time>2026-04-19T16:21:06Z</time></trkpt><trkpt lat="45.620260459652975" lon="9.379583796483839"><ele>198.0</ele><time>2026-04-19T16:21:08Z</time></trkpt><trkpt lat="45.62030101722508" lon="9.379711186970257"><ele>198.0</ele><time>2026-04-19T16:21:10Z</time></trkpt><trkpt lat="45.62031975623872" lon="9.379825870300161"><ele>198.0</ele><time>2026-04-19T16:21:12Z</time></trkpt><trkpt lat="45.62035010410509" lon="9.379926844585798"><ele>198.0</ele><time>2026-04-19T16:21:14Z</time></trkpt><trkpt lat="45.62037960746025" lon="9.38001428100798"><ele>198.0</ele><time>2026-04-19T16:21:18Z</time></trkpt><trkpt lat="45.620396439331586" lon="9.380117560372824"><ele>197.83333333333334</ele><time>2026-04-19T16:21:21Z</time></trkpt><trkpt lat="45.62042125968183" lon="9.38021515705866"><ele>197.66666666666669</ele><time>2026-04-19T16:21:23Z</time></trkpt><trkpt lat="45.62043352732209" lon="9.380322073146013"><ele>197.5</ele><time>2026-04-19T16:21:25Z</time></trkpt><trkpt lat="45.62045409731601" lon="9.38041292899106"><ele>197.33333333333334</ele><time>2026-04-19T16:21:27Z</time></trkpt><trkpt lat="45.6204794407839" lon="9.380516660166151"><ele>197.16666666666669</ele><time>2026-04-19T16:21:29Z</time></trkpt><trkpt lat="45.620502557627496" lon="9.380632368271767"><ele>197.0</ele><time>2026-04-19T16:21:31Z</time></trkpt><trkpt lat="45.62053505773645" lon="9.380742679995958"><ele>196.83333333333334</ele><time>2026-04-19T16:21:33Z</time></trkpt><trkpt lat="45.62056789357248" lon="9.38084965590056"><ele>196.66666666666669</ele><time>2026-04-19T16:21:35Z</time></trkpt><trkpt lat="45.620599427878226" lon="9.3809577636021"><ele>196.5</ele><time>2026-04-19T16:21:37Z</time></trkpt><trkpt lat="45.62061807174567" lon="9.381048828374212"><ele>196.33333333333331</ele><time>2026-04-19T16:21:39Z</time></trkpt><trkpt lat="45.620645985348865" lon="9.381161022327289"><ele>196.16666666666666</ele><time>2026-04-19T16:21:41Z</time></trkpt><trkpt lat="45.620664633132876" lon="9.381259625808266"><ele>196.0</ele><time>2026-04-19T16:21:43Z</time></trkpt><trkpt lat="45.62068356211345" lon="9.381367493839477"><ele>196.42857142857142</ele><time>2026-04-19T16:21:44.999Z</time></trkpt><trkpt lat="45.620681813914054" lon="9.381480664155344"><ele>196.85714285714286</ele><time>2026-04-19T16:21:50.999Z</time></trkpt><trkpt lat="45.620687932976765" lon="9.381581205819607"><ele>197.28571428571428</ele><time>2026-04-19T16:21:52.999Z</time></trkpt><trkpt lat="45.62069357944347" lon="9.38168364002744"><ele>197.71428571428572</ele><time>2026-04-19T16:21:54.999Z</time></trkpt><trkpt lat="45.62069570211841" lon="9.381775264390816"><ele>198.14285714285714</ele><time>2026-04-19T16:21:56.999Z</time></trkpt><trkpt lat="45.620714822878064" lon="9.38187194301809"><ele>198.57142857142856</ele><time>2026-04-19T16:21:58.999Z</time></trkpt><trkpt lat="45.6207143236246" lon="9.381973198781703"><ele>199.0</ele><time>2026-04-19T16:22:00.999Z</time></trkpt><trkpt lat="45.62072123698769" lon="9.382071053980146"><ele>199.83333333333331</ele><time>2026-04-19T16:22:02.999Z</time></trkpt><trkpt lat="45.620730106763226" lon="9.382196431895213"><ele>200.66666666666666</ele><time>2026-04-19T16:22:05.999Z</time></trkpt><trkpt lat="45.620731845500075" lon="9.382287736172792"><ele>201.5</ele><time>2026-04-19T16:22:07.999Z</time></trkpt><trkpt lat="45.620748746872245" lon="9.3823793370586"><ele>202.33333333333331</ele><time>2026-04-19T16:22:09.999Z</time></trkpt><trkpt lat="45.620706061010054" lon="9.38249301443936"><ele>203.16666666666666</ele><time>2026-04-19T16:22:12.999Z</time></trkpt><trkpt lat="45.620668596605626" lon="9.382582935641121"><ele>204.0</ele><time>2026-04-19T16:22:14.999Z</time></trkpt><trkpt lat="45.62061868151755" lon="9.38269193727035"><ele>204.0</ele><time>2026-04-19T16:22:17.999Z</time></trkpt><trkpt lat="45.620485461415235" lon="9.382641851589442"><ele>204.0</ele><time>2026-04-19T16:22:18.999Z</time></trkpt><trkpt lat="45.62040623973521" lon="9.382639286800886"><ele>204.0</ele><time>2026-04-19T16:22:20.999Z</time></trkpt><trkpt lat="45.62032088007906" lon="9.382555344575438"><ele>204.0</ele><time>2026-04-19T16:22:22.999Z</time></trkpt><trkpt lat="45.620237623553514" lon="9.382553231288558"><ele>204.0</ele><time>2026-04-19T16:22:25Z</time></trkpt><trkpt lat="45.620142976048605" lon="9.382537155037848"><ele>204.39999999999998</ele><time>2026-04-19T16:22:27Z</time></trkpt><trkpt lat="45.620048049325135" lon="9.382509927882502"><ele>204.8</ele><time>2026-04-19T16:22:29Z</time></trkpt><trkpt lat="45.61994771904448" lon="9.382485473815503"><ele>205.2</ele><time>2026-04-19T16:22:31Z</time></trkpt><trkpt lat="45.61984605822184" lon="9.382457798957924"><ele>205.60000000000002</ele><time>2026-04-19T16:22:33Z</time></trkpt><trkpt lat="45.61974268026564" lon="9.382427810791832"><ele>206.0</ele><time>2026-04-19T16:22:35Z</time></trkpt><trkpt lat="45.619640801716166" lon="9.382401389445743"><ele>206.00000000000003</ele><time>2026-04-19T16:22:37Z</time></trkpt><trkpt lat="45.61954785522002" lon="9.382376008086922"><ele>206.0</ele><time>2026-04-19T16:22:39Z</time></trkpt><trkpt lat="45.619460041851525" lon="9.382356889676634"><ele>206.0</ele><time>2026-04-19T16:22:41Z</time></trkpt><trkpt lat="45.619378060174064" lon="9.382340630788438"><ele>206.0</ele><time>2026-04-19T16:22:43Z</time></trkpt><trkpt lat="45.619291544564035" lon="9.382318498625061"><ele>206.00000000000003</ele><time>2026-04-19T16:22:45Z</time></trkpt><trkpt lat="45.619200108614535" lon="9.38233027674468"><ele>206.0</ele><time>2026-04-19T16:22:47Z</time></trkpt><trkpt lat="45.61910462033603" lon="9.382331078010436"><ele>205.0</ele><time>2026-04-19T16:22:49Z</time></trkpt><trkpt lat="45.61901482643403" lon="9.382346904837743"><ele>204.0</ele><time>2026-04-19T16:22:51Z</time></trkpt><trkpt lat="45.618927559290654" lon="9.382365193038599"><ele>203.0</ele><time>2026-04-19T16:22:53Z</time></trkpt><trkpt lat="45.61883082326729" lon="9.382392937697713"><ele>202.0</ele><time>2026-04-19T16:22:55Z</time></trkpt><trkpt lat="45.618695057772555" lon="9.382404351667192"><ele>201.0</ele><time>2026-04-19T16:22:57Z</time></trkpt><trkpt lat="45.618610169691024" lon="9.38242575717084"><ele>201.20000000000002</ele><time>2026-04-19T16:22:59Z</time></trkpt><trkpt lat="45.61852050142579" lon="9.382410689431044"><ele>201.4</ele><time>2026-04-19T16:23:00Z</time></trkpt><trkpt lat="45.61842095047233" lon="9.382369896702142"><ele>201.6</ele><time>2026-04-19T16:23:02Z</time></trkpt><trkpt lat="45.61832944999108" lon="9.382318916582712"><ele>201.8</ele><time>2026-04-19T16:23:04Z</time></trkpt><trkpt lat="45.61825035152244" lon="9.382227567606074"><ele>202.0</ele><time>2026-04-19T16:23:06Z</time></trkpt><trkpt lat="45.61816191604706" lon="9.382179960859036"><ele>202.0</ele><time>2026-04-19T16:23:08Z</time></trkpt><trkpt lat="45.618066455412816" lon="9.382163226201882"><ele>202.0</ele><time>2026-04-19T16:23:10Z</time></trkpt><trkpt lat="45.61795888628535" lon="9.382141434764113"><ele>202.0</ele><time>2026-04-19T16:23:12Z</time></trkpt><trkpt lat="45.61785043457523" lon="9.382111525988376"><ele>202.0</ele><time>2026-04-19T16:23:14Z</time></trkpt><trkpt lat="45.61773735423557" lon="9.382135707790884"><ele>202.0</ele><time>2026-04-19T16:23:16Z</time></trkpt><trkpt lat="45.617623383298394" lon="9.382135962877154"><ele>201.8</ele><time>2026-04-19T16:23:18Z</time></trkpt><trkpt lat="45.61751371906671" lon="9.382132848280714"><ele>201.6</ele><time>2026-04-19T16:23:20Z</time></trkpt><trkpt lat="45.61741222974103" lon="9.382153559919828"><ele>201.4</ele><time>2026-04-19T16:23:22Z</time></trkpt><trkpt lat="45.61731300624953" lon="9.382150646024064"><ele>201.20000000000002</ele><time>2026-04-19T16:23:24Z</time></trkpt><trkpt lat="45.61720159821429" lon="9.382147374307008"><ele>201.0</ele><time>2026-04-19T16:23:26Z</time></trkpt><trkpt lat="45.61709485198998" lon="9.382144239492344"><ele>201.0</ele><time>2026-04-19T16:23:28Z</time></trkpt><trkpt lat="45.61699828044298" lon="9.382141427922525"><ele>201.0</ele><time>2026-04-19T16:23:30Z</time></trkpt><trkpt lat="45.61690274526349" lon="9.382138709924664"><ele>201.0</ele><time>2026-04-19T16:23:31.999Z</time></trkpt><trkpt lat="45.61680267934597" lon="9.38213616758378"><ele>201.0</ele><time>2026-04-19T16:23:33.999Z</time></trkpt><trkpt lat="45.616724027305594" lon="9.382132102915534"><ele>201.0</ele><time>2026-04-19T16:23:35.999Z</time></trkpt><trkpt lat="45.61665914742303" lon="9.382128749949908"><ele>201.0</ele><time>2026-04-19T16:23:37.999Z</time></trkpt><trkpt lat="45.616587573128406" lon="9.382124365380923"><ele>200.8</ele><time>2026-04-19T16:23:39.999Z</time></trkpt><trkpt lat="45.61649726024794" lon="9.38211593292513"><ele>200.60000000000002</ele><time>2026-04-19T16:23:41.999Z</time></trkpt><trkpt lat="45.61641194466186" lon="9.38210199968829"><ele>200.4</ele><time>2026-04-19T16:23:43.999Z</time></trkpt><trkpt lat="45.61632267909702" lon="9.382086037045406"><ele>200.2</ele><time>2026-04-19T16:23:45.999Z</time></trkpt><trkpt lat="45.61622074551768" lon="9.382064367743316"><ele>200.0</ele><time>2026-04-19T16:23:47.999Z</time></trkpt><trkpt lat="45.616110076027184" lon="9.382032045623482"><ele>200.0</ele><time>2026-04-19T16:23:49.999Z</time></trkpt><trkpt lat="45.61601181278923" lon="9.381992379771157"><ele>200.0</ele><time>2026-04-19T16:23:51.999Z</time></trkpt><trkpt lat="45.6159025244551" lon="9.381953183595982"><ele>200.0</ele><time>2026-04-19T16:23:53.999Z</time></trkpt><trkpt lat="45.61579890184018" lon="9.381915412776452"><ele>200.0</ele><time>2026-04-19T16:23:55.999Z</time></trkpt><trkpt lat="45.61570147982086" lon="9.381883541357315"><ele>200.0</ele><time>2026-04-19T16:23:57.999Z</time></trkpt><trkpt lat="45.61560741907973" lon="9.381856701199416"><ele>200.00000000000003</ele><time>2026-04-19T16:23:59.999Z</time></trkpt><trkpt lat="45.615510214858844" lon="9.381834290423312"><ele>200.0</ele><time>2026-04-19T16:24:01.999Z</time></trkpt><trkpt lat="45.61542029358177" lon="9.38181497260262"><ele>200.0</ele><time>2026-04-19T16:24:03.999Z</time></trkpt><trkpt lat="45.61533901080451" lon="9.381798386044608"><ele>200.0</ele><time>2026-04-19T16:24:05.999Z</time></trkpt><trkpt lat="45.61525788838931" lon="9.38178183221742"><ele>200.00000000000003</ele><time>2026-04-19T16:24:09.999Z</time></trkpt><trkpt lat="45.61519153013766" lon="9.381768291165699"><ele>200.0</ele><time>2026-04-19T16:24:11.999Z</time></trkpt><trkpt lat="45.61511708496475" lon="9.381753099904277"><ele>199.66666666666669</ele><time>2026-04-19T16:24:13.999Z</time></trkpt><trkpt lat="45.615036574069826" lon="9.381736791230932"><ele>199.33333333333334</ele><time>2026-04-19T16:24:15.999Z</time></trkpt><trkpt lat="45.61494814796807" lon="9.381719008354352"><ele>199.0</ele><time>2026-04-19T16:24:17.999Z</time></trkpt><trkpt lat="45.614859538311975" lon="9.38169868336885"><ele>198.66666666666669</ele><time>2026-04-19T16:24:19.999Z</time></trkpt><trkpt lat="45.61476879703583" lon="9.381677868743104"><ele>198.33333333333334</ele><time>2026-04-19T16:24:21.999Z</time></trkpt><trkpt lat="45.614694923896444" lon="9.381695340713012"><ele>198.0</ele><time>2026-04-19T16:24:23.999Z</time></trkpt><trkpt lat="45.61462699780986" lon="9.38173827736737"><ele>198.0</ele><time>2026-04-19T16:24:25.999Z</time></trkpt><trkpt lat="45.61452824061834" lon="9.381528843007805"><ele>198.0</ele><time>2026-04-19T16:24:27.999Z</time></trkpt><trkpt lat="45.61445071548858" lon="9.38151860568513"><ele>198.0</ele><time>2026-04-19T16:24:30Z</time></trkpt><trkpt lat="45.61436136504321" lon="9.38156842685249"><ele>198.0</ele><time>2026-04-19T16:24:32Z</time></trkpt><trkpt lat="45.61427074447752" lon="9.38157058371853"><ele>198.0</ele><time>2026-04-19T16:24:34Z</time></trkpt><trkpt lat="45.6141705300365" lon="9.38157115081087"><ele>197.66666666666666</ele><time>2026-04-19T16:24:36Z</time></trkpt><trkpt lat="45.614075418787436" lon="9.381567186397001"><ele>197.33333333333331</ele><time>2026-04-19T16:24:38Z</time></trkpt><trkpt lat="45.61397922393722" lon="9.381561590892694"><ele>197.0</ele><time>2026-04-19T16:24:40Z</time></trkpt><trkpt lat="45.61388770313628" lon="9.381555139993361"><ele>196.66666666666666</ele><time>2026-04-19T16:24:42Z</time></trkpt><trkpt lat="45.61380933520233" lon="9.381557240712198"><ele>196.33333333333331</ele><time>2026-04-19T16:24:44Z</time></trkpt><trkpt lat="45.61375361968785" lon="9.38150057356468"><ele>196.0</ele><time>2026-04-19T16:24:45Z</time></trkpt><trkpt lat="45.61366894679572" lon="9.381468398746716"><ele>195.99999999999997</ele><time>2026-04-19T16:24:47Z</time></trkpt><trkpt lat="45.613588835066814" lon="9.381435272816976"><ele>196.0</ele><time>2026-04-19T16:24:49Z</time></trkpt><trkpt lat="45.6135060970254" lon="9.381399413656645"><ele>196.0</ele><time>2026-04-19T16:24:51Z</time></trkpt><trkpt lat="45.61342672878703" lon="9.381341319615718"><ele>196.0</ele><time>2026-04-19T16:24:53Z</time></trkpt><trkpt lat="45.61334337760382" lon="9.381307861848345"><ele>195.99999999999997</ele><time>2026-04-19T16:24:55Z</time></trkpt><trkpt lat="45.61325774754003" lon="9.381262317746048"><ele>196.0</ele><time>2026-04-19T16:24:57Z</time></trkpt><trkpt lat="45.61316288607492" lon="9.381255817306654"><ele>195.99999999999997</ele><time>2026-04-19T16:24:59Z</time></trkpt><trkpt lat="45.61307902549594" lon="9.381218353349412"><ele>196.0</ele><time>2026-04-19T16:25:01Z</time></trkpt><trkpt lat="45.61299734857283" lon="9.381225264259358"><ele>196.0</ele><time>2026-04-19T16:25:03Z</time></trkpt><trkpt lat="45.6129155766776" lon="9.381209071597347"><ele>196.0</ele><time>2026-04-19T16:25:05Z</time></trkpt><trkpt lat="45.612816679056344" lon="9.381193712122142"><ele>195.99999999999997</ele><time>2026-04-19T16:25:07Z</time></trkpt><trkpt lat="45.61273901349592" lon="9.381144030430622"><ele>196.0</ele><time>2026-04-19T16:25:09Z</time></trkpt><trkpt lat="45.6126636453212" lon="9.381076155331119"><ele>195.99999999999997</ele><time>2026-04-19T16:25:11Z</time></trkpt><trkpt lat="45.61260493527258" lon="9.381036370083104"><ele>196.0</ele><time>2026-04-19T16:25:13Z</time></trkpt><trkpt lat="45.6125686821887" lon="9.380899622718287"><ele>196.0</ele><time>2026-04-19T16:25:15Z</time></trkpt><trkpt lat="45.61249913434374" lon="9.38087533703043"><ele>196.0</ele><time>2026-04-19T16:25:19Z</time></trkpt><trkpt lat="45.61244178738339" lon="9.380977177876586"><ele>195.99999999999997</ele><time>2026-04-19T16:25:22Z</time></trkpt><trkpt lat="45.612362839971254" lon="9.380947029500367"><ele>196.0</ele><time>2026-04-19T16:25:25Z</time></trkpt><trkpt lat="45.61240747283145" lon="9.38079733405805"><ele>196.0</ele><time>2026-04-19T16:25:26Z</time></trkpt><trkpt lat="45.6123405442534" lon="9.38070870379359"><ele>196.0</ele><time>2026-04-19T16:25:28Z</time></trkpt><trkpt lat="45.612275215244296" lon="9.380622191538567"><ele>196.0</ele><time>2026-04-19T16:25:30Z</time></trkpt><trkpt lat="45.61221266661289" lon="9.380539361306504"><ele>196.0</ele><time>2026-04-19T16:25:31.999Z</time></trkpt><trkpt lat="45.61215596378437" lon="9.380464272394692"><ele>196.0</ele><time>2026-04-19T16:25:33.999Z</time></trkpt><trkpt lat="45.61203617623065" lon="9.380682025733991"><ele>195.99999999999997</ele><time>2026-04-19T16:25:40.999Z</time></trkpt><trkpt lat="45.61203268673164" lon="9.380803725250335"><ele>196.0</ele><time>2026-04-19T16:25:43.999Z</time></trkpt><trkpt lat="45.61204135800901" lon="9.38093323266431"><ele>196.0</ele><time>2026-04-19T16:25:46.999Z</time></trkpt><trkpt lat="45.61202127149643" lon="9.381036988701982"><ele>196.0</ele><time>2026-04-19T16:25:49.999Z</time></trkpt><trkpt lat="45.61194754663228" lon="9.381065080400933"><ele>195.99999999999997</ele><time>2026-04-19T16:25:52.999Z</time></trkpt><trkpt lat="45.611880542823" lon="9.381044272388063"><ele>196.0</ele><time>2026-04-19T16:25:54.999Z</time></trkpt><trkpt lat="45.611813943841646" lon="9.38102245019629"><ele>195.83333333333331</ele><time>2026-04-19T16:25:57.999Z</time></trkpt><trkpt lat="45.61171633616401" lon="9.381004632263357"><ele>195.66666666666666</ele><time>2026-04-19T16:25:59.999Z</time></trkpt><trkpt lat="45.61163897768685" lon="9.380975100193362"><ele>195.5</ele><time>2026-04-19T16:26:01.999Z</time></trkpt><trkpt lat="45.61156065874389" lon="9.380947251190598"><ele>195.33333333333331</ele><time>2026-04-19T16:26:03.999Z</time></trkpt><trkpt lat="45.611482549394985" lon="9.380918894080281"><ele>195.16666666666666</ele><time>2026-04-19T16:26:05.999Z</time></trkpt><trkpt lat="45.61139797434096" lon="9.380875034458956"><ele>195.0</ele><time>2026-04-19T16:26:07.999Z</time></trkpt><trkpt lat="45.61131031858277" lon="9.380829862500336"><ele>195.0</ele><time>2026-04-19T16:26:09.999Z</time></trkpt><trkpt lat="45.61124632369118" lon="9.380785280900954"><ele>195.0</ele><time>2026-04-19T16:26:11.999Z</time></trkpt><trkpt lat="45.61118631924155" lon="9.380752280864057"><ele>195.0</ele><time>2026-04-19T16:26:14.999Z</time></trkpt><trkpt lat="45.611113097262454" lon="9.380716703388787"><ele>195.0</ele><time>2026-04-19T16:26:16.999Z</time></trkpt><trkpt lat="45.61102449743199" lon="9.380676455344398"><ele>195.0</ele><time>2026-04-19T16:26:18.999Z</time></trkpt><trkpt lat="45.61093228885324" lon="9.380638416440108"><ele>195.0</ele><time>2026-04-19T16:26:20.999Z</time></trkpt><trkpt lat="45.61085963299118" lon="9.380628433598048"><ele>195.0</ele><time>2026-04-19T16:26:22.999Z</time></trkpt><trkpt lat="45.6107728460334" lon="9.380558478646128"><ele>195.0</ele><time>2026-04-19T16:26:24.999Z</time></trkpt><trkpt lat="45.61070406992219" lon="9.380450676050106"><ele>195.0</ele><time>2026-04-19T16:26:26.999Z</time></trkpt><trkpt lat="45.61062264380259" lon="9.380501476936931"><ele>195.0</ele><time>2026-04-19T16:26:27.999Z</time></trkpt><trkpt lat="45.610505197156044" lon="9.380487645803068"><ele>195.0</ele><time>2026-04-19T16:26:29.999Z</time></trkpt><trkpt lat="45.610388153679494" lon="9.380469062136747"><ele>195.0</ele><time>2026-04-19T16:26:31.999Z</time></trkpt><trkpt lat="45.61032539563772" lon="9.380458232883765"><ele>195.0</ele><time>2026-04-19T16:26:32.999Z</time></trkpt><trkpt lat="45.61020684587945" lon="9.380456034095394"><ele>195.0</ele><time>2026-04-19T16:26:35Z</time></trkpt><trkpt lat="45.61008451666043" lon="9.380445960074315"><ele>195.0</ele><time>2026-04-19T16:26:37Z</time></trkpt><trkpt lat="45.6099599805467" lon="9.380426386323274"><ele>195.0</ele><time>2026-04-19T16:26:39Z</time></trkpt><trkpt lat="45.609834233003845" lon="9.380422134071983"><ele>195.0</ele><time>2026-04-19T16:26:41Z</time></trkpt><trkpt lat="45.609710168901394" lon="9.380426567949765"><ele>195.0</ele><time>2026-04-19T16:26:43Z</time></trkpt><trkpt lat="45.60959111156694" lon="9.380406362490644"><ele>195.0</ele><time>2026-04-19T16:26:45Z</time></trkpt><trkpt lat="45.609473438745844" lon="9.380400907844455"><ele>195.0</ele><time>2026-04-19T16:26:47Z</time></trkpt><trkpt lat="45.60935577523189" lon="9.38037156723503"><ele>195.0</ele><time>2026-04-19T16:26:49Z</time></trkpt><trkpt lat="45.60929149554667" lon="9.380378410704685"><ele>195.0</ele><time>2026-04-19T16:26:50Z</time></trkpt><trkpt lat="45.60917807060136" lon="9.380348781020912"><ele>195.0</ele><time>2026-04-19T16:26:52Z</time></trkpt><trkpt lat="45.6090591161918" lon="9.380292364348463"><ele>195.0</ele><time>2026-04-19T16:26:54Z</time></trkpt><trkpt lat="45.608971179291025" lon="9.380272276436033"><ele>195.0</ele><time>2026-04-19T16:26:55Z</time></trkpt><trkpt lat="45.60887556073436" lon="9.380266951740438"><ele>195.0</ele><time>2026-04-19T16:26:57Z</time></trkpt><trkpt lat="45.608808158806546" lon="9.380247761503744"><ele>195.0</ele><time>2026-04-19T16:26:58Z</time></trkpt><trkpt lat="45.60874575815937" lon="9.380232619731494"><ele>195.0</ele><time>2026-04-19T16:26:59Z</time></trkpt><trkpt lat="45.60861973234596" lon="9.38020303622481"><ele>195.0</ele><time>2026-04-19T16:27:01Z</time></trkpt><trkpt lat="45.60855505832851" lon="9.380190644632103"><ele>195.0</ele><time>2026-04-19T16:27:02Z</time></trkpt><trkpt lat="45.60848924629281" lon="9.380176857104018"><ele>195.0</ele><time>2026-04-19T16:27:03Z</time></trkpt><trkpt lat="45.6084263252573" lon="9.380162725790658"><ele>194.83333333333334</ele><time>2026-04-19T16:27:04Z</time></trkpt><trkpt lat="45.60836286951312" lon="9.380148623738428"><ele>194.66666666666669</ele><time>2026-04-19T16:27:05Z</time></trkpt><trkpt lat="45.60830016933478" lon="9.38013234823718"><ele>194.5</ele><time>2026-04-19T16:27:06Z</time></trkpt><trkpt lat="45.60817803649128" lon="9.380103506523996"><ele>194.33333333333334</ele><time>2026-04-19T16:27:08Z</time></trkpt><trkpt lat="45.608078705442715" lon="9.380039972248666"><ele>194.16666666666669</ele><time>2026-04-19T16:27:10Z</time></trkpt><trkpt lat="45.60801440039261" lon="9.380056164760475"><ele>194.0</ele><time>2026-04-19T16:27:11Z</time></trkpt><trkpt lat="45.60790346547126" lon="9.380020591025945"><ele>193.25</ele><time>2026-04-19T16:27:13Z</time></trkpt><trkpt lat="45.607786595015014" lon="9.379988321692963"><ele>192.5</ele><time>2026-04-19T16:27:15Z</time></trkpt><trkpt lat="45.607669320895695" lon="9.379951903824251"><ele>191.75</ele><time>2026-04-19T16:27:17Z</time></trkpt><trkpt lat="45.607557163701394" lon="9.379931349704453"><ele>191.0</ele><time>2026-04-19T16:27:19Z</time></trkpt><trkpt lat="45.60743650531379" lon="9.379895908290766"><ele>191.0</ele><time>2026-04-19T16:27:21Z</time></trkpt><trkpt lat="45.60731797268332" lon="9.379868434090145"><ele>191.0</ele><time>2026-04-19T16:27:23Z</time></trkpt><trkpt lat="45.60720277419957" lon="9.379850625835134"><ele>191.0</ele><time>2026-04-19T16:27:25Z</time></trkpt><trkpt lat="45.60709042126237" lon="9.379885910209378"><ele>191.0</ele><time>2026-04-19T16:27:27Z</time></trkpt><trkpt lat="45.60698383888964" lon="9.379929379911003"><ele>191.0</ele><time>2026-04-19T16:27:28.999Z</time></trkpt><trkpt lat="45.60692353184578" lon="9.379959315798564"><ele>191.0</ele><time>2026-04-19T16:27:29.999Z</time></trkpt><trkpt lat="45.60682045631818" lon="9.380006252955907"><ele>191.0</ele><time>2026-04-19T16:27:31.999Z</time></trkpt><trkpt lat="45.60671597475607" lon="9.380037471120923"><ele>191.0</ele><time>2026-04-19T16:27:33.999Z</time></trkpt><trkpt lat="45.60661815400836" lon="9.380045295677524"><ele>191.0</ele><time>2026-04-19T16:27:35.999Z</time></trkpt><trkpt lat="45.60651994414779" lon="9.380038517083513"><ele>191.0</ele><time>2026-04-19T16:27:37.999Z</time></trkpt><trkpt lat="45.60643937086103" lon="9.38001942355709"><ele>191.0</ele><time>2026-04-19T16:27:39.999Z</time></trkpt><trkpt lat="45.60634916123331" lon="9.380002159040531"><ele>191.0</ele><time>2026-04-19T16:27:41.999Z</time></trkpt><trkpt lat="45.60625559571639" lon="9.379981537138772"><ele>191.0</ele><time>2026-04-19T16:27:43.999Z</time></trkpt><trkpt lat="45.60615746088845" lon="9.379950494319992"><ele>191.0</ele><time>2026-04-19T16:27:45.999Z</time></trkpt><trkpt lat="45.60605671225834" lon="9.379895948904245"><ele>190.4</ele><time>2026-04-19T16:27:47.999Z</time></trkpt><trkpt lat="45.60596400771967" lon="9.379831728609082"><ele>189.8</ele><time>2026-04-19T16:27:49.999Z</time></trkpt><trkpt lat="45.60587526953441" lon="9.379732589728478"><ele>189.20000000000002</ele><time>2026-04-19T16:27:51.999Z</time></trkpt><trkpt lat="45.60579452147635" lon="9.379636518909596"><ele>188.60000000000002</ele><time>2026-04-19T16:27:53.999Z</time></trkpt><trkpt lat="45.605712881746555" lon="9.379552656080607"><ele>188.0</ele><time>2026-04-19T16:27:55.999Z</time></trkpt><trkpt lat="45.60562458547099" lon="9.379492878161853"><ele>188.0</ele><time>2026-04-19T16:27:57.999Z</time></trkpt><trkpt lat="45.6055268787971" lon="9.379449167520022"><ele>188.0</ele><time>2026-04-19T16:27:59.999Z</time></trkpt><trkpt lat="45.60541827608055" lon="9.379421990277615"><ele>188.0</ele><time>2026-04-19T16:28:01.999Z</time></trkpt><trkpt lat="45.60530744688944" lon="9.379374665763265"><ele>188.0</ele><time>2026-04-19T16:28:03.999Z</time></trkpt><trkpt lat="45.60519818933403" lon="9.379368048837502"><ele>188.0</ele><time>2026-04-19T16:28:05.999Z</time></trkpt><trkpt lat="45.60508891004542" lon="9.379320830082438"><ele>188.0</ele><time>2026-04-19T16:28:07.999Z</time></trkpt><trkpt lat="45.604974991905145" lon="9.379295690574992"><ele>188.0</ele><time>2026-04-19T16:28:09.999Z</time></trkpt><trkpt lat="45.60487839124218" lon="9.379270178690819"><ele>188.0</ele><time>2026-04-19T16:28:11.999Z</time></trkpt><trkpt lat="45.604773361531876" lon="9.379246602663736"><ele>188.0</ele><time>2026-04-19T16:28:13.999Z</time></trkpt><trkpt lat="45.604674679937055" lon="9.379218592354873"><ele>188.0</ele><time>2026-04-19T16:28:15.999Z</time></trkpt><trkpt lat="45.604567368986366" lon="9.379200093383204"><ele>188.0</ele><time>2026-04-19T16:28:17.999Z</time></trkpt><trkpt lat="45.604458386049245" lon="9.379173184282477"><ele>188.0</ele><time>2026-04-19T16:28:19.999Z</time></trkpt><trkpt lat="45.60434488057263" lon="9.379145534656827"><ele>188.0</ele><time>2026-04-19T16:28:21.999Z</time></trkpt><trkpt lat="45.60423093341101" lon="9.379133961112196"><ele>188.0</ele><time>2026-04-19T16:28:23.999Z</time></trkpt><trkpt lat="45.60412305775516" lon="9.379107728708139"><ele>188.0</ele><time>2026-04-19T16:28:25.999Z</time></trkpt><trkpt lat="45.604012864916974" lon="9.379080878756762"><ele>188.0</ele><time>2026-04-19T16:28:27.999Z</time></trkpt><trkpt lat="45.60389924569098" lon="9.379053194058022"><ele>188.0</ele><time>2026-04-19T16:28:29.999Z</time></trkpt><trkpt lat="45.60379315719283" lon="9.379027344236842"><ele>188.0</ele><time>2026-04-19T16:28:31.999Z</time></trkpt><trkpt lat="45.60371948215965" lon="9.379001118898106"><ele>188.0</ele><time>2026-04-19T16:28:33.999Z</time></trkpt><trkpt lat="45.60362545245409" lon="9.378978130192245"><ele>188.0</ele><time>2026-04-19T16:28:37.999Z</time></trkpt><trkpt lat="45.60354609377003" lon="9.3789437851225"><ele>187.60000000000002</ele><time>2026-04-19T16:28:41Z</time></trkpt><trkpt lat="45.6034540525643" lon="9.378925058344748"><ele>187.20000000000002</ele><time>2026-04-19T16:28:43Z</time></trkpt><trkpt lat="45.60334976303428" lon="9.378905512030522"><ele>186.8</ele><time>2026-04-19T16:28:45Z</time></trkpt><trkpt lat="45.60325080689827" lon="9.37888054627497"><ele>186.4</ele><time>2026-04-19T16:28:47Z</time></trkpt><trkpt lat="45.60314147672576" lon="9.378874825207253"><ele>186.0</ele><time>2026-04-19T16:28:49Z</time></trkpt><trkpt lat="45.603042341152204" lon="9.378831720895175"><ele>185.60000000000002</ele><time>2026-04-19T16:28:51Z</time></trkpt><trkpt lat="45.602933325470964" lon="9.378811880021104"><ele>185.2</ele><time>2026-04-19T16:28:53Z</time></trkpt><trkpt lat="45.60282005175174" lon="9.378793216009065"><ele>184.8</ele><time>2026-04-19T16:28:55Z</time></trkpt><trkpt lat="45.60270967301011" lon="9.378775694701892"><ele>184.39999999999998</ele><time>2026-04-19T16:28:57Z</time></trkpt><trkpt lat="45.602599012461255" lon="9.378768657784946"><ele>184.0</ele><time>2026-04-19T16:28:59Z</time></trkpt><trkpt lat="45.6024856905822" lon="9.37875764065222"><ele>183.6</ele><time>2026-04-19T16:29:01Z</time></trkpt><trkpt lat="45.60236128906717" lon="9.378751382723491"><ele>183.2</ele><time>2026-04-19T16:29:03Z</time></trkpt><trkpt lat="45.602236060419706" lon="9.3787439924696"><ele>182.79999999999998</ele><time>2026-04-19T16:29:05Z</time></trkpt><trkpt lat="45.602169493318414" lon="9.378740814957208"><ele>182.39999999999998</ele><time>2026-04-19T16:29:06Z</time></trkpt><trkpt lat="45.602100145845874" lon="9.37874146684332"><ele>182.0</ele><time>2026-04-19T16:29:07Z</time></trkpt><trkpt lat="45.6020308016121" lon="9.378732397900237"><ele>182.14285714285714</ele><time>2026-04-19T16:29:08Z</time></trkpt><trkpt lat="45.60196220297906" lon="9.378730283580811"><ele>182.28571428571428</ele><time>2026-04-19T16:29:09Z</time></trkpt><trkpt lat="45.60189379869734" lon="9.378725813379855"><ele>182.42857142857144</ele><time>2026-04-19T16:29:10Z</time></trkpt><trkpt lat="45.60182395152582" lon="9.378721338047246"><ele>182.57142857142856</ele><time>2026-04-19T16:29:11Z</time></trkpt><trkpt lat="45.60175405451642" lon="9.378719522351215"><ele>182.71428571428572</ele><time>2026-04-19T16:29:12Z</time></trkpt><trkpt lat="45.60168574517702" lon="9.378717604654646"><ele>182.85714285714286</ele><time>2026-04-19T16:29:13Z</time></trkpt><trkpt lat="45.601619373859954" lon="9.378713492206684"><ele>183.0</ele><time>2026-04-19T16:29:14Z</time></trkpt><trkpt lat="45.60155440848611" lon="9.378719164130334"><ele>183.0</ele><time>2026-04-19T16:29:15Z</time></trkpt><trkpt lat="45.60149162553336" lon="9.378732308868178"><ele>183.0</ele><time>2026-04-19T16:29:16Z</time></trkpt><trkpt lat="45.60142897541124" lon="9.378709475250638"><ele>183.0</ele><time>2026-04-19T16:29:17Z</time></trkpt><trkpt lat="45.60136575904236" lon="9.378709765138796"><ele>183.0</ele><time>2026-04-19T16:29:18Z</time></trkpt><trkpt lat="45.601245732038684" lon="9.378709656344645"><ele>183.0</ele><time>2026-04-19T16:29:20Z</time></trkpt><trkpt lat="45.60113049521672" lon="9.37872709561992"><ele>183.0</ele><time>2026-04-19T16:29:22Z</time></trkpt><trkpt lat="45.60101632072679" lon="9.378728595721915"><ele>183.4</ele><time>2026-04-19T16:29:24Z</time></trkpt><trkpt lat="45.60090510478467" lon="9.378732452129345"><ele>183.8</ele><time>2026-04-19T16:29:26Z</time></trkpt><trkpt lat="45.60079960217634" lon="9.378722178706791"><ele>184.2</ele><time>2026-04-19T16:29:28Z</time></trkpt><trkpt lat="45.600697328136796" lon="9.378762748868267"><ele>184.6</ele><time>2026-04-19T16:29:29.999Z</time></trkpt><trkpt lat="45.60060549555653" lon="9.3787786212674"><ele>185.0</ele><time>2026-04-19T16:29:31.999Z</time></trkpt><trkpt lat="45.60052119873912" lon="9.378808092044133"><ele>185.0</ele><time>2026-04-19T16:29:33.999Z</time></trkpt><trkpt lat="45.60043769055751" lon="9.378850158180983"><ele>185.0</ele><time>2026-04-19T16:29:35.999Z</time></trkpt><trkpt lat="45.600351998489984" lon="9.378902733626443"><ele>185.0</ele><time>2026-04-19T16:29:37.999Z</time></trkpt><trkpt lat="45.60025920248965" lon="9.37896937511612"><ele>185.0</ele><time>2026-04-19T16:29:39.999Z</time></trkpt><trkpt lat="45.600169008538884" lon="9.379050271650609"><ele>185.0</ele><time>2026-04-19T16:29:41.999Z</time></trkpt><trkpt lat="45.60007977390917" lon="9.379138866798886"><ele>184.8</ele><time>2026-04-19T16:29:43.999Z</time></trkpt><trkpt lat="45.599994889477934" lon="9.379228703862681"><ele>184.6</ele><time>2026-04-19T16:29:45.999Z</time></trkpt><trkpt lat="45.5999192764116" lon="9.379324360586715"><ele>184.39999999999998</ele><time>2026-04-19T16:29:47.999Z</time></trkpt><trkpt lat="45.59985191310803" lon="9.379420233676319"><ele>184.2</ele><time>2026-04-19T16:29:49.999Z</time></trkpt><trkpt lat="45.599784762273096" lon="9.37952052086059"><ele>184.0</ele><time>2026-04-19T16:29:51.999Z</time></trkpt><trkpt lat="45.599721161664064" lon="9.379615505847823"><ele>184.0</ele><time>2026-04-19T16:29:53.999Z</time></trkpt><trkpt lat="45.599648992893584" lon="9.37968919465513"><ele>184.0</ele><time>2026-04-19T16:29:55.999Z</time></trkpt><trkpt lat="45.599599031040796" lon="9.379801428327834"><ele>184.0</ele><time>2026-04-19T16:29:57.999Z</time></trkpt><trkpt lat="45.599552120307735" lon="9.379873986409658"><ele>184.0</ele><time>2026-04-19T16:29:59.999Z</time></trkpt><trkpt lat="45.599508139514974" lon="9.379942827574306"><ele>184.0</ele><time>2026-04-19T16:30:02.999Z</time></trkpt><trkpt lat="45.59946409444418" lon="9.380011802439268"><ele>184.0</ele><time>2026-04-19T16:30:04.999Z</time></trkpt><trkpt lat="45.59941528327285" lon="9.380077366204755"><ele>184.0</ele><time>2026-04-19T16:30:07.999Z</time></trkpt><trkpt lat="45.599373376560095" lon="9.380144973366196"><ele>184.0</ele><time>2026-04-19T16:30:09.999Z</time></trkpt><trkpt lat="45.59930969181037" lon="9.380235675423448"><ele>184.0</ele><time>2026-04-19T16:30:11.999Z</time></trkpt><trkpt lat="45.599247605466424" lon="9.380328034216342"><ele>184.0</ele><time>2026-04-19T16:30:13.999Z</time></trkpt><trkpt lat="45.599185335642524" lon="9.380433426148864"><ele>184.0</ele><time>2026-04-19T16:30:15.999Z</time></trkpt><trkpt lat="45.59912051073988" lon="9.380535633762545"><ele>184.0</ele><time>2026-04-19T16:30:17.999Z</time></trkpt><trkpt lat="45.59905202403277" lon="9.380632643197224"><ele>183.66666666666669</ele><time>2026-04-19T16:30:19.999Z</time></trkpt><trkpt lat="45.599001459032706" lon="9.380730112047857"><ele>183.33333333333334</ele><time>2026-04-19T16:30:21.999Z</time></trkpt><trkpt lat="45.598949778633916" lon="9.380812027964614"><ele>183.0</ele><time>2026-04-19T16:30:23.999Z</time></trkpt><trkpt lat="45.598887835982445" lon="9.380890191548461"><ele>182.66666666666666</ele><time>2026-04-19T16:30:25.999Z</time></trkpt><trkpt lat="45.598825324903835" lon="9.380989960519337"><ele>182.33333333333331</ele><time>2026-04-19T16:30:27.999Z</time></trkpt><trkpt lat="45.59876428936777" lon="9.38109059222113"><ele>182.0</ele><time>2026-04-19T16:30:29.999Z</time></trkpt><trkpt lat="45.59869693120625" lon="9.38119404384666"><ele>181.83333333333331</ele><time>2026-04-19T16:30:31.999Z</time></trkpt><trkpt lat="45.59863521313321" lon="9.381291264011068"><ele>181.66666666666666</ele><time>2026-04-19T16:30:33.999Z</time></trkpt><trkpt lat="45.59856430786947" lon="9.381402075055187"><ele>181.5</ele><time>2026-04-19T16:30:35.999Z</time></trkpt><trkpt lat="45.59850272190563" lon="9.381493311230379"><ele>181.33333333333334</ele><time>2026-04-19T16:30:37.999Z</time></trkpt><trkpt lat="45.598443847708225" lon="9.381569290267544"><ele>181.16666666666669</ele><time>2026-04-19T16:30:39.999Z</time></trkpt><trkpt lat="45.598392787848724" lon="9.38164710105085"><ele>181.0</ele><time>2026-04-19T16:30:41.999Z</time></trkpt><trkpt lat="45.59834799509798" lon="9.381718738055488"><ele>181.0</ele><time>2026-04-19T16:30:43.999Z</time></trkpt><trkpt lat="45.59829907936539" lon="9.381789719042652"><ele>181.0</ele><time>2026-04-19T16:30:45.999Z</time></trkpt><trkpt lat="45.59825239962547" lon="9.381868830880936"><ele>181.0</ele><time>2026-04-19T16:30:48Z</time></trkpt><trkpt lat="45.59818804124036" lon="9.381958222816783"><ele>181.0</ele><time>2026-04-19T16:30:50Z</time></trkpt><trkpt lat="45.598131280064" lon="9.382056894470717"><ele>181.0</ele><time>2026-04-19T16:30:52Z</time></trkpt><trkpt lat="45.59806939640721" lon="9.382159391154866"><ele>181.0</ele><time>2026-04-19T16:30:54Z</time></trkpt><trkpt lat="45.59799898237928" lon="9.382265554148434"><ele>181.0</ele><time>2026-04-19T16:30:56Z</time></trkpt><trkpt lat="45.5979262051222" lon="9.382371137470766"><ele>181.0</ele><time>2026-04-19T16:30:58Z</time></trkpt><trkpt lat="45.59786016125562" lon="9.382478162842418"><ele>181.0</ele><time>2026-04-19T16:31:00Z</time></trkpt><trkpt lat="45.59779666961062" lon="9.382576559429669"><ele>181.0</ele><time>2026-04-19T16:31:02Z</time></trkpt><trkpt lat="45.59773204482135" lon="9.382679989148391"><ele>181.0</ele><time>2026-04-19T16:31:04Z</time></trkpt><trkpt lat="45.59766460906731" lon="9.382782675883625"><ele>181.0</ele><time>2026-04-19T16:31:06Z</time></trkpt><trkpt lat="45.597598590457395" lon="9.382890784763893"><ele>181.0</ele><time>2026-04-19T16:31:08Z</time></trkpt><trkpt lat="45.5975247295207" lon="9.383000346984831"><ele>181.0</ele><time>2026-04-19T16:31:10Z</time></trkpt><trkpt lat="45.5974566424679" lon="9.3831076119231"><ele>181.0</ele><time>2026-04-19T16:31:12Z</time></trkpt><trkpt lat="45.59739474922262" lon="9.383215585157318"><ele>181.0</ele><time>2026-04-19T16:31:14Z</time></trkpt><trkpt lat="45.59733193030992" lon="9.383309357067303"><ele>181.0</ele><time>2026-04-19T16:31:16Z</time></trkpt><trkpt lat="45.597288276430056" lon="9.3833806697853"><ele>181.0</ele><time>2026-04-19T16:31:18Z</time></trkpt><trkpt lat="45.59723488108286" lon="9.383467446098312"><ele>181.0</ele><time>2026-04-19T16:31:20Z</time></trkpt><trkpt lat="45.597157385186726" lon="9.383552555086418"><ele>181.0</ele><time>2026-04-19T16:31:22Z</time></trkpt><trkpt lat="45.59710133863135" lon="9.38367271484573"><ele>181.0</ele><time>2026-04-19T16:31:24Z</time></trkpt><trkpt lat="45.59701872103375" lon="9.383768707744407"><ele>180.75</ele><time>2026-04-19T16:31:26Z</time></trkpt><trkpt lat="45.59694814961592" lon="9.383878526228411"><ele>180.5</ele><time>2026-04-19T16:31:27.999Z</time></trkpt><trkpt lat="45.596859383640364" lon="9.383966401148681"><ele>180.25</ele><time>2026-04-19T16:31:29.999Z</time></trkpt><trkpt lat="45.59675793480755" lon="9.384050740893697"><ele>180.0</ele><time>2026-04-19T16:31:31.999Z</time></trkpt><trkpt lat="45.596648602211644" lon="9.384120891711177"><ele>180.0</ele><time>2026-04-19T16:31:33.999Z</time></trkpt><trkpt lat="45.596529208081414" lon="9.384164186516504"><ele>180.0</ele><time>2026-04-19T16:31:35.999Z</time></trkpt><trkpt lat="45.59640614152626" lon="9.384187392917967"><ele>180.0</ele><time>2026-04-19T16:31:37.999Z</time></trkpt><trkpt lat="45.5962941934168" lon="9.384222353263583"><ele>180.0</ele><time>2026-04-19T16:31:39.999Z</time></trkpt><trkpt lat="45.59619168249883" lon="9.384227219645288"><ele>180.0</ele><time>2026-04-19T16:31:41.999Z</time></trkpt><trkpt lat="45.59610438147704" lon="9.384084559087114"><ele>180.0</ele><time>2026-04-19T16:31:43.999Z</time></trkpt><trkpt lat="45.59603822785268" lon="9.383981726532106"><ele>180.0</ele><time>2026-04-19T16:31:45.999Z</time></trkpt><trkpt lat="45.59592878515935" lon="9.384012259215186"><ele>180.0</ele><time>2026-04-19T16:31:47.999Z</time></trkpt><trkpt lat="45.595914354521874" lon="9.38392408086433"><ele>180.0</ele><time>2026-04-19T16:31:48.999Z</time></trkpt><trkpt lat="45.595840724684095" lon="9.383967909784076"><ele>180.0</ele><time>2026-04-19T16:31:50.999Z</time></trkpt><trkpt lat="45.59584323238177" lon="9.38406489505586"><ele>180.0</ele><time>2026-04-19T16:31:53.999Z</time></trkpt><trkpt lat="45.59578132141901" lon="9.384119878235854"><ele>180.0</ele><time>2026-04-19T16:31:55.999Z</time></trkpt><trkpt lat="45.595712640350314" lon="9.38409127116319"><ele>180.0</ele><time>2026-04-19T16:31:56.999Z</time></trkpt><trkpt lat="45.59562617098561" lon="9.384060474263833"><ele>180.0</ele><time>2026-04-19T16:31:58.999Z</time></trkpt><trkpt lat="45.59553935632614" lon="9.384057177372428"><ele>180.0</ele><time>2026-04-19T16:32:00.999Z</time></trkpt><trkpt lat="45.59544848445005" lon="9.384047808531829"><ele>180.0</ele><time>2026-04-19T16:32:02.999Z</time></trkpt><trkpt lat="45.595353178470454" lon="9.384033946168332"><ele>180.0</ele><time>2026-04-19T16:32:04.999Z</time></trkpt><trkpt lat="45.59525603083911" lon="9.384020983807128"><ele>180.0</ele><time>2026-04-19T16:32:06.999Z</time></trkpt><trkpt lat="45.595152855295936" lon="9.383999564755278"><ele>180.0</ele><time>2026-04-19T16:32:08.999Z</time></trkpt><trkpt lat="45.59505804256393" lon="9.3839811158767"><ele>180.0</ele><time>2026-04-19T16:32:10.999Z</time></trkpt><trkpt lat="45.594978025405425" lon="9.383968738239469"><ele>179.6</ele><time>2026-04-19T16:32:12.999Z</time></trkpt><trkpt lat="45.594898084955695" lon="9.383960058063808"><ele>179.2</ele><time>2026-04-19T16:32:14.999Z</time></trkpt><trkpt lat="45.59480795282734" lon="9.38395106155459"><ele>178.8</ele><time>2026-04-19T16:32:16.999Z</time></trkpt><trkpt lat="45.59471633359482" lon="9.38393677015701"><ele>178.4</ele><time>2026-04-19T16:32:18.999Z</time></trkpt><trkpt lat="45.59461901957088" lon="9.383922482438269"><ele>178.0</ele><time>2026-04-19T16:32:20.999Z</time></trkpt><trkpt lat="45.59452494386848" lon="9.383904174999213"><ele>178.0</ele><time>2026-04-19T16:32:22.999Z</time></trkpt><trkpt lat="45.59441941281703" lon="9.383891420373434"><ele>178.0</ele><time>2026-04-19T16:32:24.999Z</time></trkpt><trkpt lat="45.5943183090283" lon="9.383877417397587"><ele>178.0</ele><time>2026-04-19T16:32:26.999Z</time></trkpt><trkpt lat="45.59421329729116" lon="9.383857950170475"><ele>178.0</ele><time>2026-04-19T16:32:28.999Z</time></trkpt><trkpt lat="45.59411654372026" lon="9.383844011352512"><ele>178.0</ele><time>2026-04-19T16:32:30.999Z</time></trkpt><trkpt lat="45.59401127509104" lon="9.383830526770177"><ele>177.8</ele><time>2026-04-19T16:32:32.999Z</time></trkpt><trkpt lat="45.593899698205206" lon="9.383818640534992"><ele>177.60000000000002</ele><time>2026-04-19T16:32:34.999Z</time></trkpt><trkpt lat="45.59379370420306" lon="9.383789932871117"><ele>177.39999999999998</ele><time>2026-04-19T16:32:36.999Z</time></trkpt><trkpt lat="45.59368083733531" lon="9.383769830221901"><ele>177.2</ele><time>2026-04-19T16:32:38.999Z</time></trkpt><trkpt lat="45.59357435130862" lon="9.383730871513318"><ele>177.0</ele><time>2026-04-19T16:32:40.999Z</time></trkpt><trkpt lat="45.59346255671407" lon="9.383694787413914"><ele>177.0</ele><time>2026-04-19T16:32:42.999Z</time></trkpt><trkpt lat="45.593355445295636" lon="9.383623717259297"><ele>177.0</ele><time>2026-04-19T16:32:44.999Z</time></trkpt><trkpt lat="45.593255704082594" lon="9.383548759066695"><ele>177.0</ele><time>2026-04-19T16:32:46.999Z</time></trkpt><trkpt lat="45.59315474891821" lon="9.383466776480034"><ele>177.0</ele><time>2026-04-19T16:32:48.999Z</time></trkpt><trkpt lat="45.59306903778019" lon="9.383348009310906"><ele>177.0</ele><time>2026-04-19T16:32:50.999Z</time></trkpt><trkpt lat="45.592987499254164" lon="9.383227157015924"><ele>177.0</ele><time>2026-04-19T16:32:53Z</time></trkpt><trkpt lat="45.592910179969465" lon="9.38309673946734"><ele>177.0</ele><time>2026-04-19T16:32:55Z</time></trkpt><trkpt lat="45.59283872537175" lon="9.382956624701444"><ele>177.0</ele><time>2026-04-19T16:32:57Z</time></trkpt><trkpt lat="45.59277628833945" lon="9.382800984415615"><ele>176.8</ele><time>2026-04-19T16:32:59Z</time></trkpt><trkpt lat="45.5927143763474" lon="9.382644905668982"><ele>176.6</ele><time>2026-04-19T16:33:01Z</time></trkpt><trkpt lat="45.59264084426259" lon="9.382494638664362"><ele>176.4</ele><time>2026-04-19T16:33:03Z</time></trkpt><trkpt lat="45.59257946066362" lon="9.382335208434524"><ele>176.20000000000002</ele><time>2026-04-19T16:33:05Z</time></trkpt><trkpt lat="45.59254477332725" lon="9.382256934913064"><ele>176.0</ele><time>2026-04-19T16:33:06Z</time></trkpt><trkpt lat="45.59250436834165" lon="9.382181472489398"><ele>176.42857142857144</ele><time>2026-04-19T16:33:07Z</time></trkpt><trkpt lat="45.5924677844902" lon="9.382100147267401"><ele>176.85714285714286</ele><time>2026-04-19T16:33:08Z</time></trkpt><trkpt lat="45.592431749079765" lon="9.382016488223357"><ele>177.28571428571428</ele><time>2026-04-19T16:33:09Z</time></trkpt><trkpt lat="45.592400006199185" lon="9.38193071517267"><ele>177.71428571428572</ele><time>2026-04-19T16:33:10Z</time></trkpt><trkpt lat="45.59236578898235" lon="9.381845331326582"><ele>178.14285714285714</ele><time>2026-04-19T16:33:11Z</time></trkpt><trkpt lat="45.592331048599284" lon="9.381764241961768"><ele>178.57142857142858</ele><time>2026-04-19T16:33:12Z</time></trkpt><trkpt lat="45.592294747171266" lon="9.381686136395366"><ele>179.0</ele><time>2026-04-19T16:33:13Z</time></trkpt><trkpt lat="45.59226093300875" lon="9.381608885756998"><ele>179.0</ele><time>2026-04-19T16:33:14Z</time></trkpt><trkpt lat="45.59219343411132" lon="9.381460301648689"><ele>179.0</ele><time>2026-04-19T16:33:16Z</time></trkpt><trkpt lat="45.59212971732629" lon="9.381302786817628"><ele>179.0</ele><time>2026-04-19T16:33:18Z</time></trkpt><trkpt lat="45.592093596371924" lon="9.381224619538909"><ele>179.0</ele><time>2026-04-19T16:33:19Z</time></trkpt><trkpt lat="45.592052408551375" lon="9.381150141353862"><ele>179.0</ele><time>2026-04-19T16:33:20Z</time></trkpt><trkpt lat="45.592022319044396" lon="9.381069044469838"><ele>179.0</ele><time>2026-04-19T16:33:21Z</time></trkpt><trkpt lat="45.591986120478175" lon="9.380992583595678"><ele>178.66666666666666</ele><time>2026-04-19T16:33:22Z</time></trkpt><trkpt lat="45.59195575101356" lon="9.380911557742461"><ele>178.33333333333331</ele><time>2026-04-19T16:33:23Z</time></trkpt><trkpt lat="45.59192228159383" lon="9.380830519889171"><ele>178.0</ele><time>2026-04-19T16:33:24Z</time></trkpt><trkpt lat="45.591889180794844" lon="9.380753577982437"><ele>177.66666666666666</ele><time>2026-04-19T16:33:25Z</time></trkpt><trkpt lat="45.591823143662715" lon="9.38060712322716"><ele>177.33333333333334</ele><time>2026-04-19T16:33:26.999Z</time></trkpt><trkpt lat="45.59176035631243" lon="9.380463293856105"><ele>177.0</ele><time>2026-04-19T16:33:28.999Z</time></trkpt><trkpt lat="45.59169955879844" lon="9.380327863066707"><ele>176.83333333333334</ele><time>2026-04-19T16:33:30.999Z</time></trkpt><trkpt lat="45.591646292597794" lon="9.38019117571518"><ele>176.66666666666666</ele><time>2026-04-19T16:33:32.999Z</time></trkpt><trkpt lat="45.59157898656345" lon="9.380139660848481"><ele>176.5</ele><time>2026-04-19T16:33:35.999Z</time></trkpt><trkpt lat="45.59150102313545" lon="9.380240482673507"><ele>176.33333333333331</ele><time>2026-04-19T16:33:38.999Z</time></trkpt><trkpt lat="45.591428772577196" lon="9.380250378359555"><ele>176.16666666666666</ele><time>2026-04-19T16:33:40.999Z</time></trkpt><trkpt lat="45.591354909692065" lon="9.380248530923149"><ele>176.0</ele><time>2026-04-19T16:33:42.999Z</time></trkpt><trkpt lat="45.591281461742" lon="9.380246897341776"><ele>176.0</ele><time>2026-04-19T16:33:44.999Z</time></trkpt><trkpt lat="45.591198995063756" lon="9.380234144134631"><ele>176.0</ele><time>2026-04-19T16:33:47.999Z</time></trkpt><trkpt lat="45.59111129211811" lon="9.380229259181556"><ele>176.0</ele><time>2026-04-19T16:33:50.999Z</time></trkpt><trkpt lat="45.59108950059354" lon="9.380137319977209"><ele>176.0</ele><time>2026-04-19T16:33:52.999Z</time></trkpt><trkpt lat="45.59110809770426" lon="9.380046961550436"><ele>176.0</ele><time>2026-04-19T16:33:54.999Z</time></trkpt><trkpt lat="45.59109847072852" lon="9.379940589508108"><ele>176.0</ele><time>2026-04-19T16:33:56.999Z</time></trkpt><trkpt lat="45.591098867354816" lon="9.379842351335924"><ele>176.0</ele><time>2026-04-19T16:33:58.999Z</time></trkpt><trkpt lat="45.591038184907525" lon="9.379768023854831"><ele>175.8</ele><time>2026-04-19T16:34:00.999Z</time></trkpt><trkpt lat="45.59104635498641" lon="9.37960024674109"><ele>175.60000000000002</ele><time>2026-04-19T16:34:01.999Z</time></trkpt><trkpt lat="45.59096026880753" lon="9.379545574162561"><ele>175.4</ele><time>2026-04-19T16:34:03.999Z</time></trkpt><trkpt lat="45.59085803967955" lon="9.379501314699743"><ele>175.2</ele><time>2026-04-19T16:34:05.999Z</time></trkpt><trkpt lat="45.59075583719741" lon="9.379465116779759"><ele>175.0</ele><time>2026-04-19T16:34:07.999Z</time></trkpt><trkpt lat="45.590648195627814" lon="9.379437688711377"><ele>175.0</ele><time>2026-04-19T16:34:09.999Z</time></trkpt><trkpt lat="45.59054768158035" lon="9.379422436359329"><ele>175.0</ele><time>2026-04-19T16:34:11.999Z</time></trkpt><trkpt lat="45.59044977934431" lon="9.379412558626793"><ele>175.0</ele><time>2026-04-19T16:34:13.999Z</time></trkpt><trkpt lat="45.590347900911986" lon="9.37940311129506"><ele>175.0</ele><time>2026-04-19T16:34:15.999Z</time></trkpt><trkpt lat="45.590243422307296" lon="9.379397620258663"><ele>175.0</ele><time>2026-04-19T16:34:17.999Z</time></trkpt><trkpt lat="45.590146956723636" lon="9.379392183962128"><ele>174.6</ele><time>2026-04-19T16:34:19.999Z</time></trkpt><trkpt lat="45.590053905827766" lon="9.379385276931028"><ele>174.2</ele><time>2026-04-19T16:34:21.999Z</time></trkpt><trkpt lat="45.589963210129945" lon="9.379378544800884"><ele>173.8</ele><time>2026-04-19T16:34:23.999Z</time></trkpt><trkpt lat="45.589871645488664" lon="9.379371896888475"><ele>173.4</ele><time>2026-04-19T16:34:25.999Z</time></trkpt><trkpt lat="45.58977123055872" lon="9.379364762439577"><ele>173.0</ele><time>2026-04-19T16:34:27.999Z</time></trkpt><trkpt lat="45.589680193066236" lon="9.379356925568107"><ele>173.0</ele><time>2026-04-19T16:34:29.999Z</time></trkpt><trkpt lat="45.58959119275085" lon="9.379348155925793"><ele>173.0</ele><time>2026-04-19T16:34:31.999Z</time></trkpt><trkpt lat="45.58950836113216" lon="9.379339125778454"><ele>173.0</ele><time>2026-04-19T16:34:33.999Z</time></trkpt><trkpt lat="45.5894282902821" lon="9.379330265800473"><ele>173.0</ele><time>2026-04-19T16:34:37.999Z</time></trkpt><trkpt lat="45.58934701044172" lon="9.379321271864013"><ele>173.0</ele><time>2026-04-19T16:34:40.999Z</time></trkpt><trkpt lat="45.58928061220615" lon="9.379312905635995"><ele>173.0</ele><time>2026-04-19T16:34:43.999Z</time></trkpt><trkpt lat="45.589188354144895" lon="9.37930154459831"><ele>172.83333333333331</ele><time>2026-04-19T16:34:48.999Z</time></trkpt><trkpt lat="45.58911833564518" lon="9.379292742555402"><ele>172.66666666666666</ele><time>2026-04-19T16:34:50.999Z</time></trkpt><trkpt lat="45.58904469065281" lon="9.379282801134133"><ele>172.5</ele><time>2026-04-19T16:34:52.999Z</time></trkpt><trkpt lat="45.58895784260585" lon="9.37927102811396"><ele>172.33333333333334</ele><time>2026-04-19T16:34:54.999Z</time></trkpt><trkpt lat="45.588868068216726" lon="9.379258265006397"><ele>172.16666666666669</ele><time>2026-04-19T16:34:56.999Z</time></trkpt><trkpt lat="45.588775407215984" lon="9.379245091515841"><ele>172.0</ele><time>2026-04-19T16:34:59Z</time></trkpt><trkpt lat="45.5886786269829" lon="9.379229937404258"><ele>172.2</ele><time>2026-04-19T16:35:00.999Z</time></trkpt><trkpt lat="45.58858093795126" lon="9.379214318177619"><ele>172.39999999999998</ele><time>2026-04-19T16:35:03Z</time></trkpt><trkpt lat="45.5884842407488" lon="9.379198113097496"><ele>172.60000000000002</ele><time>2026-04-19T16:35:05Z</time></trkpt><trkpt lat="45.58842778425229" lon="9.379397674026439"><ele>172.8</ele><time>2026-04-19T16:35:06Z</time></trkpt><trkpt lat="45.58837938444878" lon="9.379462029545605"><ele>173.0</ele><time>2026-04-19T16:35:07Z</time></trkpt><trkpt lat="45.58832233223667" lon="9.379287263034364"><ele>173.0</ele><time>2026-04-19T16:35:08Z</time></trkpt><trkpt lat="45.58823444049321" lon="9.37915674996973"><ele>173.0</ele><time>2026-04-19T16:35:10Z</time></trkpt><trkpt lat="45.58814157523399" lon="9.379141372891425"><ele>173.0</ele><time>2026-04-19T16:35:12Z</time></trkpt><trkpt lat="45.58802995567882" lon="9.379122890384094"><ele>173.0</ele><time>2026-04-19T16:35:14Z</time></trkpt><trkpt lat="45.587924658540224" lon="9.379105454778513"><ele>173.0</ele><time>2026-04-19T16:35:16Z</time></trkpt><trkpt lat="45.587814848800164" lon="9.379087147315722"><ele>173.0</ele><time>2026-04-19T16:35:18Z</time></trkpt><trkpt lat="45.58770423380819" lon="9.379067875272721"><ele>173.0</ele><time>2026-04-19T16:35:20Z</time></trkpt><trkpt lat="45.58760094860153" lon="9.379049880271598"><ele>173.0</ele><time>2026-04-19T16:35:21.999Z</time></trkpt><trkpt lat="45.58746958922209" lon="9.37902699400374"><ele>173.0</ele><time>2026-04-19T16:35:23.999Z</time></trkpt><trkpt lat="45.58738291311575" lon="9.379011892746906"><ele>173.0</ele><time>2026-04-19T16:35:25.999Z</time></trkpt><trkpt lat="45.58727851419756" lon="9.378993703710682"><ele>173.0</ele><time>2026-04-19T16:35:27.999Z</time></trkpt><trkpt lat="45.587167837163875" lon="9.378974420860313"><ele>173.0</ele><time>2026-04-19T16:35:29.999Z</time></trkpt><trkpt lat="45.58706134354427" lon="9.378955866872655"><ele>173.0</ele><time>2026-04-19T16:35:31.999Z</time></trkpt><trkpt lat="45.58695576830533" lon="9.378937747517918"><ele>173.0</ele><time>2026-04-19T16:35:33.999Z</time></trkpt><trkpt lat="45.58686468462803" lon="9.378922808454508"><ele>173.0</ele><time>2026-04-19T16:35:35.999Z</time></trkpt><trkpt lat="45.58676591289086" lon="9.378906431664708"><ele>173.0</ele><time>2026-04-19T16:35:37.999Z</time></trkpt><trkpt lat="45.58669915538086" lon="9.378895261085656"><ele>173.0</ele><time>2026-04-19T16:35:42.999Z</time></trkpt><trkpt lat="45.58663301187522" lon="9.37888419324915"><ele>173.0</ele><time>2026-04-19T16:35:44.999Z</time></trkpt><trkpt lat="45.58656536256186" lon="9.378872129846096"><ele>173.0</ele><time>2026-04-19T16:35:47.999Z</time></trkpt><trkpt lat="45.58649198490594" lon="9.378858825099664"><ele>173.0</ele><time>2026-04-19T16:35:51.999Z</time></trkpt><trkpt lat="45.58642369161682" lon="9.378846442252767"><ele>173.0</ele><time>2026-04-19T16:35:53.999Z</time></trkpt><trkpt lat="45.58635091596246" lon="9.37883361743406"><ele>173.0</ele><time>2026-04-19T16:35:55.999Z</time></trkpt><trkpt lat="45.58627382286344" lon="9.378820560541588"><ele>172.83333333333331</ele><time>2026-04-19T16:35:57.999Z</time></trkpt><trkpt lat="45.58619552054327" lon="9.378807298846933"><ele>172.66666666666666</ele><time>2026-04-19T16:35:59.999Z</time></trkpt><trkpt lat="45.58611733898215" lon="9.378794057604008"><ele>172.5</ele><time>2026-04-19T16:36:01.999Z</time></trkpt><trkpt lat="45.58603878386446" lon="9.378781317856511"><ele>172.33333333333334</ele><time>2026-04-19T16:36:03.999Z</time></trkpt><trkpt lat="45.585953071760855" lon="9.378768217144126"><ele>172.16666666666669</ele><time>2026-04-19T16:36:05.999Z</time></trkpt><trkpt lat="45.58586104848389" lon="9.378755659702636"><ele>172.0</ele><time>2026-04-19T16:36:07.999Z</time></trkpt><trkpt lat="45.58575907120181" lon="9.378742382090229"><ele>172.0</ele><time>2026-04-19T16:36:09.999Z</time></trkpt><trkpt lat="45.585657560672786" lon="9.378733107014414"><ele>172.0</ele><time>2026-04-19T16:36:11.999Z</time></trkpt><trkpt lat="45.58554631908074" lon="9.37873204675555"><ele>172.0</ele><time>2026-04-19T16:36:13.999Z</time></trkpt><trkpt lat="45.58544117317627" lon="9.378736038130647"><ele>172.0</ele><time>2026-04-19T16:36:15.999Z</time></trkpt><trkpt lat="45.58532676190778" lon="9.378749786798883"><ele>172.0</ele><time>2026-04-19T16:36:17.999Z</time></trkpt><trkpt lat="45.5852217045212" lon="9.378770655233023"><ele>172.0</ele><time>2026-04-19T16:36:19.999Z</time></trkpt><trkpt lat="45.58511784481696" lon="9.378791285771259"><ele>172.0</ele><time>2026-04-19T16:36:21.999Z</time></trkpt><trkpt lat="45.58500754440963" lon="9.37881560933135"><ele>172.0</ele><time>2026-04-19T16:36:23.999Z</time></trkpt><trkpt lat="45.584906013819875" lon="9.378837786810596"><ele>172.0</ele><time>2026-04-19T16:36:25.999Z</time></trkpt><trkpt lat="45.58480065055352" lon="9.378859519978077"><ele>172.0</ele><time>2026-04-19T16:36:27.999Z</time></trkpt><trkpt lat="45.58469489204632" lon="9.378882368268204"><ele>172.0</ele><time>2026-04-19T16:36:29.999Z</time></trkpt><trkpt lat="45.584590949512204" lon="9.378905529247296"><ele>172.0</ele><time>2026-04-19T16:36:31.999Z</time></trkpt><trkpt lat="45.58448354517246" lon="9.378929461761611"><ele>172.0</ele><time>2026-04-19T16:36:33.999Z</time></trkpt><trkpt lat="45.58437360079802" lon="9.378953960195462"><ele>172.0</ele><time>2026-04-19T16:36:35.999Z</time></trkpt><trkpt lat="45.58426394527919" lon="9.378978396331869"><ele>172.0</ele><time>2026-04-19T16:36:37.999Z</time></trkpt><trkpt lat="45.58416025468174" lon="9.379001501303094"><ele>171.6</ele><time>2026-04-19T16:36:39.999Z</time></trkpt><trkpt lat="45.58405159839407" lon="9.379025584543168"><ele>171.2</ele><time>2026-04-19T16:36:41.999Z</time></trkpt><trkpt lat="45.58394014907155" lon="9.37905018652818"><ele>170.8</ele><time>2026-04-19T16:36:43.999Z</time></trkpt><trkpt lat="45.58383817139082" lon="9.379072697691214"><ele>170.4</ele><time>2026-04-19T16:36:45.999Z</time></trkpt><trkpt lat="45.58372797885241" lon="9.379097022250578"><ele>170.0</ele><time>2026-04-19T16:36:47.999Z</time></trkpt><trkpt lat="45.58361839670804" lon="9.379121212068739"><ele>170.0</ele><time>2026-04-19T16:36:49.999Z</time></trkpt><trkpt lat="45.583504515712654" lon="9.379146350840323"><ele>170.0</ele><time>2026-04-19T16:36:51.999Z</time></trkpt><trkpt lat="45.58339100517784" lon="9.379171407833473"><ele>170.0</ele><time>2026-04-19T16:36:53.999Z</time></trkpt><trkpt lat="45.58328517715433" lon="9.379194768930377"><ele>170.0</ele><time>2026-04-19T16:36:55.999Z</time></trkpt><trkpt lat="45.583185102533285" lon="9.379216759899377"><ele>170.0</ele><time>2026-04-19T16:36:57.999Z</time></trkpt><trkpt lat="45.583079555130375" lon="9.379239980960403"><ele>170.0</ele><time>2026-04-19T16:36:59.999Z</time></trkpt><trkpt lat="45.582980252244184" lon="9.37926182818078"><ele>170.0</ele><time>2026-04-19T16:37:01.999Z</time></trkpt><trkpt lat="45.58287768544401" lon="9.379284393482958"><ele>170.0</ele><time>2026-04-19T16:37:03.999Z</time></trkpt><trkpt lat="45.582779707386265" lon="9.37930594923435"><ele>170.0</ele><time>2026-04-19T16:37:06Z</time></trkpt><trkpt lat="45.58269644958611" lon="9.379324266443412"><ele>170.0</ele><time>2026-04-19T16:37:08Z</time></trkpt><trkpt lat="45.58261049114591" lon="9.37934317780775"><ele>169.83333333333331</ele><time>2026-04-19T16:37:10Z</time></trkpt><trkpt lat="45.582529051094845" lon="9.379361209697777"><ele>169.66666666666666</ele><time>2026-04-19T16:37:12Z</time></trkpt><trkpt lat="45.58244510328107" lon="9.379380048974241"><ele>169.5</ele><time>2026-04-19T16:37:14Z</time></trkpt><trkpt lat="45.58236546590344" lon="9.379398850059756"><ele>169.33333333333334</ele><time>2026-04-19T16:37:16Z</time></trkpt><trkpt lat="45.58227642519129" lon="9.379422557500734"><ele>169.16666666666669</ele><time>2026-04-19T16:37:18Z</time></trkpt><trkpt lat="45.582200504420946" lon="9.379443717654974"><ele>169.0</ele><time>2026-04-19T16:37:20Z</time></trkpt><trkpt lat="45.58212333745152" lon="9.379467185512404"><ele>169.0</ele><time>2026-04-19T16:37:21.999Z</time></trkpt><trkpt lat="45.58205475555898" lon="9.37949252547474"><ele>169.0</ele><time>2026-04-19T16:37:23.999Z</time></trkpt><trkpt lat="45.581988747078285" lon="9.379516914467612"><ele>169.0</ele><time>2026-04-19T16:37:25.999Z</time></trkpt><trkpt lat="45.58192541613363" lon="9.379508717909728"><ele>169.0</ele><time>2026-04-19T16:37:27.999Z</time></trkpt><trkpt lat="45.581862964686536" lon="9.37952701813965"><ele>169.0</ele><time>2026-04-19T16:37:29.999Z</time></trkpt><trkpt lat="45.58176791336691" lon="9.37954705069069"><ele>169.0</ele><time>2026-04-19T16:37:31.999Z</time></trkpt><trkpt lat="45.58156202075007" lon="9.379628378731429"><ele>169.0</ele><time>2026-04-19T16:37:33.999Z</time></trkpt><trkpt lat="45.581463846045935" lon="9.379882680575554"><ele>169.0</ele><time>2026-04-19T16:37:35.999Z</time></trkpt><trkpt lat="45.58175562347056" lon="9.380106118248793"><ele>169.0</ele><time>2026-04-19T16:37:36.999Z</time></trkpt><trkpt lat="45.581664975865216" lon="9.38010898150176"><ele>169.0</ele><time>2026-04-19T16:37:39.999Z</time></trkpt><trkpt lat="45.581589421133174" lon="9.380070490081312"><ele>169.0</ele><time>2026-04-19T16:37:42.999Z</time></trkpt><trkpt lat="45.58152734421899" lon="9.38004723752087"><ele>169.0</ele><time>2026-04-19T16:37:45.999Z</time></trkpt><trkpt lat="45.58146887884101" lon="9.380006114376478"><ele>169.0</ele><time>2026-04-19T16:37:47.999Z</time></trkpt><trkpt lat="45.58143290621813" lon="9.379911088788399"><ele>169.0</ele><time>2026-04-19T16:37:49.999Z</time></trkpt><trkpt lat="45.5813897360764" lon="9.379825004743346"><ele>169.0</ele><time>2026-04-19T16:37:51.999Z</time></trkpt><trkpt lat="45.581315996238054" lon="9.37975610269562"><ele>169.0</ele><time>2026-04-19T16:37:53.999Z</time></trkpt><trkpt lat="45.58125880745086" lon="9.379605341011764"><ele>169.0</ele><time>2026-04-19T16:37:55.999Z</time></trkpt><trkpt lat="45.581156880151866" lon="9.379676211052862"><ele>169.0</ele><time>2026-04-19T16:37:57.999Z</time></trkpt><trkpt lat="45.581057597753166" lon="9.379694748012268"><ele>169.0</ele><time>2026-04-19T16:37:59.999Z</time></trkpt><trkpt lat="45.58095963177462" lon="9.379719193295104"><ele>169.0</ele><time>2026-04-19T16:38:01.999Z</time></trkpt><trkpt lat="45.58085754288396" lon="9.379736330988242"><ele>169.0</ele><time>2026-04-19T16:38:03.999Z</time></trkpt><trkpt lat="45.58075572088492" lon="9.37976187258775"><ele>169.0</ele><time>2026-04-19T16:38:05.999Z</time></trkpt><trkpt lat="45.58064877952068" lon="9.379774371053625"><ele>169.0</ele><time>2026-04-19T16:38:07.999Z</time></trkpt><trkpt lat="45.58054335704986" lon="9.379811877925947"><ele>169.0</ele><time>2026-04-19T16:38:09.999Z</time></trkpt><trkpt lat="45.5804349477424" lon="9.379846950965312"><ele>169.39999999999998</ele><time>2026-04-19T16:38:11.999Z</time></trkpt><trkpt lat="45.58033221468468" lon="9.379866567575187"><ele>169.8</ele><time>2026-04-19T16:38:13.999Z</time></trkpt><trkpt lat="45.580229770257304" lon="9.379889935155388"><ele>170.2</ele><time>2026-04-19T16:38:15.999Z</time></trkpt><trkpt lat="45.58013973795056" lon="9.379914407008688"><ele>170.60000000000002</ele><time>2026-04-19T16:38:17.999Z</time></trkpt><trkpt lat="45.58003638679162" lon="9.379945756576847"><ele>171.0</ele><time>2026-04-19T16:38:19.999Z</time></trkpt><trkpt lat="45.579935668697594" lon="9.37996880540962"><ele>171.0</ele><time>2026-04-19T16:38:21.999Z</time></trkpt><trkpt lat="45.579835920050144" lon="9.379989048083239"><ele>171.0</ele><time>2026-04-19T16:38:23.999Z</time></trkpt><trkpt lat="45.579732164656136" lon="9.380011101984891"><ele>171.0</ele><time>2026-04-19T16:38:25.999Z</time></trkpt><trkpt lat="45.57962216601123" lon="9.380058871408254"><ele>171.0</ele><time>2026-04-19T16:38:27.999Z</time></trkpt><trkpt lat="45.57950907664672" lon="9.38008944112547"><ele>171.0</ele><time>2026-04-19T16:38:29.999Z</time></trkpt><trkpt lat="45.579399966479244" lon="9.380119946965177"><ele>170.5</ele><time>2026-04-19T16:38:31.999Z</time></trkpt><trkpt lat="45.57928903557028" lon="9.380143703184272"><ele>170.0</ele><time>2026-04-19T16:38:33.999Z</time></trkpt><trkpt lat="45.5791976320036" lon="9.380166040317789"><ele>169.5</ele><time>2026-04-19T16:38:35.999Z</time></trkpt><trkpt lat="45.57912597911233" lon="9.380157119867466"><ele>169.0</ele><time>2026-04-19T16:38:37.999Z</time></trkpt><trkpt lat="45.579050627079134" lon="9.38020340752927"><ele>168.5</ele><time>2026-04-19T16:38:39.999Z</time></trkpt><trkpt lat="45.57897362254322" lon="9.380220296281731"><ele>168.0</ele><time>2026-04-19T16:38:41.999Z</time></trkpt><trkpt lat="45.57890030670533" lon="9.380213906607333"><ele>168.0</ele><time>2026-04-19T16:38:43.999Z</time></trkpt><trkpt lat="45.57881709093656" lon="9.380223519101033"><ele>168.0</ele><time>2026-04-19T16:38:45.999Z</time></trkpt><trkpt lat="45.578728726691686" lon="9.380228957550829"><ele>168.0</ele><time>2026-04-19T16:38:47.999Z</time></trkpt><trkpt lat="45.578654549459884" lon="9.380227395475123"><ele>168.0</ele><time>2026-04-19T16:38:49.999Z</time></trkpt><trkpt lat="45.578572257134844" lon="9.380239127029753"><ele>168.0</ele><time>2026-04-19T16:38:51.999Z</time></trkpt><trkpt lat="45.57850228034466" lon="9.380257907657134"><ele>168.0</ele><time>2026-04-19T16:38:53.999Z</time></trkpt><trkpt lat="45.57842914416476" lon="9.38026564063416"><ele>168.0</ele><time>2026-04-19T16:38:55.999Z</time></trkpt><trkpt lat="45.578353732942695" lon="9.380259130332375"><ele>168.0</ele><time>2026-04-19T16:38:57.999Z</time></trkpt><trkpt lat="45.57829143239799" lon="9.380229013252148"><ele>168.0</ele><time>2026-04-19T16:38:59.999Z</time></trkpt><trkpt lat="45.57822913748884" lon="9.380243047317446"><ele>168.0</ele><time>2026-04-19T16:39:01.999Z</time></trkpt><trkpt lat="45.57813662161268" lon="9.380260329953005"><ele>168.0</ele><time>2026-04-19T16:39:04.999Z</time></trkpt><trkpt lat="45.578068056220594" lon="9.380252480489277"><ele>168.0</ele><time>2026-04-19T16:39:06.999Z</time></trkpt><trkpt lat="45.577990781535064" lon="9.380279540086939"><ele>168.0</ele><time>2026-04-19T16:39:08.999Z</time></trkpt><trkpt lat="45.57791479210403" lon="9.380277136212772"><ele>167.66666666666666</ele><time>2026-04-19T16:39:11Z</time></trkpt><trkpt lat="45.57780581744771" lon="9.380280758936767"><ele>167.33333333333334</ele><time>2026-04-19T16:39:14Z</time></trkpt><trkpt lat="45.57771072596674" lon="9.380276686866443"><ele>167.0</ele><time>2026-04-19T16:39:16Z</time></trkpt><trkpt lat="45.577632117340585" lon="9.380300615493969"><ele>166.66666666666669</ele><time>2026-04-19T16:39:18Z</time></trkpt><trkpt lat="45.577557844704906" lon="9.380301855055782"><ele>166.33333333333334</ele><time>2026-04-19T16:39:20Z</time></trkpt><trkpt lat="45.57748279386614" lon="9.38030348150132"><ele>166.0</ele><time>2026-04-19T16:39:22Z</time></trkpt><trkpt lat="45.577410578435796" lon="9.380305474878366"><ele>166.0</ele><time>2026-04-19T16:39:24Z</time></trkpt><trkpt lat="45.57733198042801" lon="9.38032420346661"><ele>166.0</ele><time>2026-04-19T16:39:26Z</time></trkpt><trkpt lat="45.57723818922391" lon="9.380337469338464"><ele>166.0</ele><time>2026-04-19T16:39:28Z</time></trkpt><trkpt lat="45.57714398134915" lon="9.380348820267672"><ele>166.0</ele><time>2026-04-19T16:39:30Z</time></trkpt><trkpt lat="45.57704903858238" lon="9.380356213953117"><ele>166.0</ele><time>2026-04-19T16:39:32Z</time></trkpt><trkpt lat="45.57695176525271" lon="9.380356309385355"><ele>166.0</ele><time>2026-04-19T16:39:33.999Z</time></trkpt><trkpt lat="45.57685738699249" lon="9.380360222266201"><ele>166.0</ele><time>2026-04-19T16:39:35.999Z</time></trkpt><trkpt lat="45.57675367954926" lon="9.380368100376117"><ele>166.0</ele><time>2026-04-19T16:39:37.999Z</time></trkpt><trkpt lat="45.576647964576054" lon="9.380373546155598"><ele>166.0</ele><time>2026-04-19T16:39:39.999Z</time></trkpt><trkpt lat="45.57654883087626" lon="9.380379529929632"><ele>166.0</ele><time>2026-04-19T16:39:41.999Z</time></trkpt><trkpt lat="45.576453940417295" lon="9.380387118914644"><ele>166.0</ele><time>2026-04-19T16:39:43.999Z</time></trkpt><trkpt lat="45.57635738466966" lon="9.380390095420992"><ele>166.0</ele><time>2026-04-19T16:39:45.999Z</time></trkpt><trkpt lat="45.57627581446585" lon="9.38039936502489"><ele>166.0</ele><time>2026-04-19T16:39:47.999Z</time></trkpt><trkpt lat="45.5761788248195" lon="9.380409229603003"><ele>166.0</ele><time>2026-04-19T16:39:49.999Z</time></trkpt><trkpt lat="45.57608460707418" lon="9.380396373142437"><ele>166.0</ele><time>2026-04-19T16:39:51.999Z</time></trkpt><trkpt lat="45.57599115771478" lon="9.380371181120127"><ele>165.66666666666669</ele><time>2026-04-19T16:39:53.999Z</time></trkpt><trkpt lat="45.57590720480849" lon="9.38032199213521"><ele>165.33333333333334</ele><time>2026-04-19T16:39:55.999Z</time></trkpt><trkpt lat="45.57583380109518" lon="9.380236005947182"><ele>165.0</ele><time>2026-04-19T16:39:57.999Z</time></trkpt><trkpt lat="45.5757807412454" lon="9.380123637831996"><ele>164.66666666666666</ele><time>2026-04-19T16:39:59.999Z</time></trkpt><trkpt lat="45.575739066664156" lon="9.380030323439641"><ele>164.33333333333331</ele><time>2026-04-19T16:40:01.999Z</time></trkpt><trkpt lat="45.57566488353944" lon="9.380105037570829"><ele>164.0</ele><time>2026-04-19T16:40:03.999Z</time></trkpt><trkpt lat="45.57561537816692" lon="9.380212166239232"><ele>164.0</ele><time>2026-04-19T16:40:05.999Z</time></trkpt><trkpt lat="45.57552996731118" lon="9.380276208443053"><ele>164.0</ele><time>2026-04-19T16:40:07.999Z</time></trkpt><trkpt lat="45.575449760844" lon="9.380347826353612"><ele>164.0</ele><time>2026-04-19T16:40:09.999Z</time></trkpt><trkpt lat="45.575358297693114" lon="9.380426097843811"><ele>164.0</ele><time>2026-04-19T16:40:11.999Z</time></trkpt><trkpt lat="45.575253082180254" lon="9.380451140220332"><ele>164.0</ele><time>2026-04-19T16:40:13.999Z</time></trkpt><trkpt lat="45.575137362137724" lon="9.380430821804937"><ele>164.39999999999998</ele><time>2026-04-19T16:40:15.999Z</time></trkpt><trkpt lat="45.57502944007813" lon="9.380408921606751"><ele>164.8</ele><time>2026-04-19T16:40:17.999Z</time></trkpt><trkpt lat="45.57491844227157" lon="9.380427063556299"><ele>165.2</ele><time>2026-04-19T16:40:19.999Z</time></trkpt><trkpt lat="45.574806101297675" lon="9.380435252377234"><ele>165.60000000000002</ele><time>2026-04-19T16:40:21.999Z</time></trkpt><trkpt lat="45.57469099716265" lon="9.380438045684116"><ele>166.0</ele><time>2026-04-19T16:40:23.999Z</time></trkpt><trkpt lat="45.57457752313536" lon="9.380430694068313"><ele>165.8</ele><time>2026-04-19T16:40:25.999Z</time></trkpt><trkpt lat="45.574467511099044" lon="9.380415205287681"><ele>165.60000000000002</ele><time>2026-04-19T16:40:27.999Z</time></trkpt><trkpt lat="45.57436385727415" lon="9.380398887681483"><ele>165.4</ele><time>2026-04-19T16:40:29.999Z</time></trkpt><trkpt lat="45.57426994554151" lon="9.380374326067253"><ele>165.2</ele><time>2026-04-19T16:40:31.999Z</time></trkpt><trkpt lat="45.57418548983473" lon="9.380345587393437"><ele>165.0</ele><time>2026-04-19T16:40:33.999Z</time></trkpt><trkpt lat="45.57412158921754" lon="9.380304986750978"><ele>165.0</ele><time>2026-04-19T16:40:35.999Z</time></trkpt><trkpt lat="45.57405241882498" lon="9.380315643635008"><ele>165.0</ele><time>2026-04-19T16:40:40.999Z</time></trkpt><trkpt lat="45.573980220417596" lon="9.380255946603798"><ele>165.0</ele><time>2026-04-19T16:40:44.999Z</time></trkpt><trkpt lat="45.57390959032056" lon="9.380245693379457"><ele>165.0</ele><time>2026-04-19T16:40:48.999Z</time></trkpt><trkpt lat="45.57383746439521" lon="9.38021484360494"><ele>165.0</ele><time>2026-04-19T16:40:52.999Z</time></trkpt><trkpt lat="45.57376164512967" lon="9.380185465852941"><ele>165.0</ele><time>2026-04-19T16:40:55.999Z</time></trkpt><trkpt lat="45.573670579924624" lon="9.380167984423988"><ele>164.83333333333334</ele><time>2026-04-19T16:40:58.999Z</time></trkpt><trkpt lat="45.573579119620824" lon="9.380152028825835"><ele>164.66666666666666</ele><time>2026-04-19T16:41:01.999Z</time></trkpt><trkpt lat="45.573513490784784" lon="9.380138589097337"><ele>164.5</ele><time>2026-04-19T16:41:03.999Z</time></trkpt><trkpt lat="45.57344664833358" lon="9.380138819515198"><ele>164.33333333333331</ele><time>2026-04-19T16:41:05.999Z</time></trkpt><trkpt lat="45.5733742601486" lon="9.380138726986223"><ele>164.16666666666666</ele><time>2026-04-19T16:41:07.999Z</time></trkpt><trkpt lat="45.57329805073899" lon="9.380144522702675"><ele>164.0</ele><time>2026-04-19T16:41:09.999Z</time></trkpt><trkpt lat="45.57322117071928" lon="9.380153641305155"><ele>163.99999999999997</ele><time>2026-04-19T16:41:11.999Z</time></trkpt><trkpt lat="45.57315506552726" lon="9.380167731897616"><ele>164.0</ele><time>2026-04-19T16:41:13.999Z</time></trkpt><trkpt lat="45.57307233810112" lon="9.380181732138869"><ele>164.0</ele><time>2026-04-19T16:41:17Z</time></trkpt><trkpt lat="45.57298272914209" lon="9.380207751332762"><ele>164.0</ele><time>2026-04-19T16:41:20Z</time></trkpt><trkpt lat="45.572917404535495" lon="9.380222011545536"><ele>164.0</ele><time>2026-04-19T16:41:22Z</time></trkpt><trkpt lat="45.57284738044573" lon="9.380241487482785"><ele>163.99999999999997</ele><time>2026-04-19T16:41:24Z</time></trkpt><trkpt lat="45.57278419447616" lon="9.380267029017535"><ele>164.0</ele><time>2026-04-19T16:41:26Z</time></trkpt><trkpt lat="45.572692711292355" lon="9.380300915411574"><ele>163.66666666666666</ele><time>2026-04-19T16:41:29Z</time></trkpt><trkpt lat="45.57262140642547" lon="9.380323544640106"><ele>163.33333333333331</ele><time>2026-04-19T16:41:31Z</time></trkpt><trkpt lat="45.57254203468489" lon="9.380351307481988"><ele>163.0</ele><time>2026-04-19T16:41:33Z</time></trkpt><trkpt lat="45.57246615504988" lon="9.380385368534434"><ele>162.66666666666666</ele><time>2026-04-19T16:41:35Z</time></trkpt><trkpt lat="45.572378611278815" lon="9.380404471483747"><ele>162.33333333333334</ele><time>2026-04-19T16:41:37Z</time></trkpt><trkpt lat="45.57228778032062" lon="9.380424933120192"><ele>162.0</ele><time>2026-04-19T16:41:39Z</time></trkpt><trkpt lat="45.57219738715063" lon="9.380457850334652"><ele>162.0</ele><time>2026-04-19T16:41:41Z</time></trkpt><trkpt lat="45.57210407088846" lon="9.38048985613989"><ele>162.0</ele><time>2026-04-19T16:41:43Z</time></trkpt><trkpt lat="45.57200575297397" lon="9.380519007966617"><ele>162.0</ele><time>2026-04-19T16:41:45Z</time></trkpt><trkpt lat="45.57190674117398" lon="9.380554949193419"><ele>162.0</ele><time>2026-04-19T16:41:47Z</time></trkpt><trkpt lat="45.57179741711183" lon="9.380583133181116"><ele>162.0</ele><time>2026-04-19T16:41:49Z</time></trkpt><trkpt lat="45.57167800320243" lon="9.380618377439802"><ele>161.85714285714286</ele><time>2026-04-19T16:41:50.999Z</time></trkpt><trkpt lat="45.57161561278982" lon="9.380634599805271"><ele>161.71428571428572</ele><time>2026-04-19T16:41:51.999Z</time></trkpt><trkpt lat="45.57155227791497" lon="9.38065397339377"><ele>161.57142857142856</ele><time>2026-04-19T16:41:52.999Z</time></trkpt><trkpt lat="45.571485177534065" lon="9.380676037497533"><ele>161.42857142857144</ele><time>2026-04-19T16:41:53.999Z</time></trkpt><trkpt lat="45.57141789297583" lon="9.380698305950014"><ele>161.28571428571428</ele><time>2026-04-19T16:41:54.999Z</time></trkpt><trkpt lat="45.57134708590042" lon="9.380721065979213"><ele>161.14285714285714</ele><time>2026-04-19T16:41:55.999Z</time></trkpt><trkpt lat="45.57127392296312" lon="9.380744852311382"><ele>161.0</ele><time>2026-04-19T16:41:56.999Z</time></trkpt><trkpt lat="45.57120840528712" lon="9.380771346890993"><ele>161.16666666666666</ele><time>2026-04-19T16:41:57.999Z</time></trkpt><trkpt lat="45.57112403532249" lon="9.380795614674003"><ele>161.33333333333331</ele><time>2026-04-19T16:41:58.999Z</time></trkpt><trkpt lat="45.57104651484149" lon="9.380815402059994"><ele>161.5</ele><time>2026-04-19T16:41:59.999Z</time></trkpt><trkpt lat="45.57096850957001" lon="9.380844648940823"><ele>161.66666666666666</ele><time>2026-04-19T16:42:00.999Z</time></trkpt><trkpt lat="45.57089700194419" lon="9.380863485119583"><ele>161.83333333333334</ele><time>2026-04-19T16:42:01.999Z</time></trkpt><trkpt lat="45.570830408782896" lon="9.38091352620686"><ele>162.0</ele><time>2026-04-19T16:42:02.999Z</time></trkpt><trkpt lat="45.57072658351363" lon="9.380914882715505"><ele>162.0</ele><time>2026-04-19T16:42:04.999Z</time></trkpt><trkpt lat="45.57061183138279" lon="9.380865271136829"><ele>162.0</ele><time>2026-04-19T16:42:06.999Z</time></trkpt><trkpt lat="45.570522946811586" lon="9.380800911612981"><ele>162.0</ele><time>2026-04-19T16:42:08.999Z</time></trkpt><trkpt lat="45.57045890554469" lon="9.380646855951483"><ele>162.0</ele><time>2026-04-19T16:42:10.999Z</time></trkpt><trkpt lat="45.57042436827693" lon="9.380542377422382"><ele>162.0</ele><time>2026-04-19T16:42:12.999Z</time></trkpt><trkpt lat="45.57039544073499" lon="9.380456509657181"><ele>161.83333333333334</ele><time>2026-04-19T16:42:14.999Z</time></trkpt><trkpt lat="45.5704538640749" lon="9.380364022495154"><ele>161.66666666666666</ele><time>2026-04-19T16:42:15.999Z</time></trkpt><trkpt lat="45.57043960974226" lon="9.380273545746272"><ele>161.5</ele><time>2026-04-19T16:42:17.999Z</time></trkpt><trkpt lat="45.570376682753746" lon="9.380174294003897"><ele>161.33333333333331</ele><time>2026-04-19T16:42:20.999Z</time></trkpt><trkpt lat="45.570315775435176" lon="9.380273216298148"><ele>161.16666666666666</ele><time>2026-04-19T16:42:24.999Z</time></trkpt><trkpt lat="45.57033516283273" lon="9.38036796514893"><ele>161.0</ele><time>2026-04-19T16:42:26.999Z</time></trkpt><trkpt lat="45.57033827375354" lon="9.380464977556455"><ele>161.0</ele><time>2026-04-19T16:42:28.999Z</time></trkpt><trkpt lat="45.570342880762055" lon="9.38056613178966"><ele>161.0</ele><time>2026-04-19T16:42:30.999Z</time></trkpt><trkpt lat="45.57033286140631" lon="9.380676072567462"><ele>161.0</ele><time>2026-04-19T16:42:32.999Z</time></trkpt><trkpt lat="45.570314128455855" lon="9.380783530447253"><ele>161.0</ele><time>2026-04-19T16:42:34.999Z</time></trkpt><trkpt lat="45.57029018792681" lon="9.380892739205594"><ele>161.0</ele><time>2026-04-19T16:42:36.999Z</time></trkpt><trkpt lat="45.57025635139531" lon="9.380999011622999"><ele>161.0</ele><time>2026-04-19T16:42:38.999Z</time></trkpt><trkpt lat="45.57022903968489" lon="9.381106806597014"><ele>161.0</ele><time>2026-04-19T16:42:40.999Z</time></trkpt><trkpt lat="45.57013332222292" lon="9.381121842151067"><ele>161.0</ele><time>2026-04-19T16:42:42.999Z</time></trkpt><trkpt lat="45.57003723231984" lon="9.38111790087075"><ele>161.0</ele><time>2026-04-19T16:42:44.999Z</time></trkpt><trkpt lat="45.56994786983505" lon="9.381130023223768"><ele>161.0</ele><time>2026-04-19T16:42:46.999Z</time></trkpt><trkpt lat="45.56985922825028" lon="9.381139761677037"><ele>161.0</ele><time>2026-04-19T16:42:48.999Z</time></trkpt><trkpt lat="45.56977031768818" lon="9.381151565981911"><ele>161.0</ele><time>2026-04-19T16:42:50.999Z</time></trkpt><trkpt lat="45.56968265889116" lon="9.38115898367467"><ele>161.0</ele><time>2026-04-19T16:42:52.999Z</time></trkpt><trkpt lat="45.56959226281006" lon="9.381170410273178"><ele>161.0</ele><time>2026-04-19T16:42:54.999Z</time></trkpt><trkpt lat="45.569502819079986" lon="9.381176859121625"><ele>161.0</ele><time>2026-04-19T16:42:56.999Z</time></trkpt><trkpt lat="45.5694239787071" lon="9.381180816660985"><ele>161.0</ele><time>2026-04-19T16:42:58.999Z</time></trkpt><trkpt lat="45.56935119537769" lon="9.381184790913382"><ele>161.0</ele><time>2026-04-19T16:43:00.999Z</time></trkpt><trkpt lat="45.56927306700523" lon="9.381199021106612"><ele>160.66666666666666</ele><time>2026-04-19T16:43:03Z</time></trkpt><trkpt lat="45.56919798417217" lon="9.381208528939041"><ele>160.33333333333331</ele><time>2026-04-19T16:43:05Z</time></trkpt><trkpt lat="45.56912573666383" lon="9.381198713870113"><ele>160.0</ele><time>2026-04-19T16:43:07Z</time></trkpt><trkpt lat="45.569036538589216" lon="9.3812454893709"><ele>159.66666666666666</ele><time>2026-04-19T16:43:09Z</time></trkpt><trkpt lat="45.56896354480147" lon="9.381245936123667"><ele>159.33333333333334</ele><time>2026-04-19T16:43:11Z</time></trkpt><trkpt lat="45.56888908695968" lon="9.38126663625803"><ele>159.0</ele><time>2026-04-19T16:43:13Z</time></trkpt><trkpt lat="45.56881351308401" lon="9.38127272353754"><ele>159.0</ele><time>2026-04-19T16:43:15Z</time></trkpt><trkpt lat="45.568731046458794" lon="9.381281593602312"><ele>159.0</ele><time>2026-04-19T16:43:17Z</time></trkpt><trkpt lat="45.568654067483735" lon="9.381297357322763"><ele>159.0</ele><time>2026-04-19T16:43:19Z</time></trkpt><trkpt lat="45.56857404795991" lon="9.381330356681731"><ele>159.0</ele><time>2026-04-19T16:43:21Z</time></trkpt><trkpt lat="45.568511196169105" lon="9.381398259805875"><ele>159.0</ele><time>2026-04-19T16:43:23.001Z</time></trkpt><trkpt lat="45.56844522648537" lon="9.381387250347528"><ele>159.0</ele><time>2026-04-19T16:43:24.001Z</time></trkpt><trkpt lat="45.5683446480597" lon="9.381411556442936"><ele>159.2</ele><time>2026-04-19T16:43:26.001Z</time></trkpt><trkpt lat="45.56824184439474" lon="9.381455707770462"><ele>159.4</ele><time>2026-04-19T16:43:28.001Z</time></trkpt><trkpt lat="45.568140651910056" lon="9.381503378505998"><ele>159.6</ele><time>2026-04-19T16:43:30.001Z</time></trkpt><trkpt lat="45.568044227470985" lon="9.381559442267497"><ele>159.8</ele><time>2026-04-19T16:43:32.001Z</time></trkpt><trkpt lat="45.5679474671879" lon="9.381595562985417"><ele>160.0</ele><time>2026-04-19T16:43:34.001Z</time></trkpt><trkpt lat="45.56785951050044" lon="9.381643401712456"><ele>160.0</ele><time>2026-04-19T16:43:36.001Z</time></trkpt><trkpt lat="45.56777092836608" lon="9.38166876795527"><ele>160.0</ele><time>2026-04-19T16:43:38.001Z</time></trkpt><trkpt lat="45.56770797108537" lon="9.381672096341578"><ele>160.0</ele><time>2026-04-19T16:43:40.001Z</time></trkpt><trkpt lat="45.56764008763108" lon="9.381698138154352"><ele>160.0</ele><time>2026-04-19T16:43:44.001Z</time></trkpt><trkpt lat="45.5676443304401" lon="9.3815246619336"><ele>160.0</ele><time>2026-04-19T16:43:52Z</time></trkpt><trkpt lat="45.56763058997308" lon="9.38141276655586"><ele>160.0</ele><time>2026-04-19T16:43:55Z</time></trkpt><trkpt lat="45.56763427179519" lon="9.38131571169767"><ele>159.66666666666669</ele><time>2026-04-19T16:43:58Z</time></trkpt><trkpt lat="45.567650662043185" lon="9.381208442212683"><ele>159.33333333333334</ele><time>2026-04-19T16:44:01Z</time></trkpt><trkpt lat="45.56766083158198" lon="9.381085474024474"><ele>159.0</ele><time>2026-04-19T16:44:04Z</time></trkpt><trkpt lat="45.567657839718976" lon="9.380968144566356"><ele>158.66666666666666</ele><time>2026-04-19T16:44:06Z</time></trkpt><trkpt lat="45.56766113054181" lon="9.380865481856926"><ele>158.33333333333331</ele><time>2026-04-19T16:44:08Z</time></trkpt><trkpt lat="45.567656075403406" lon="9.380760151425363"><ele>158.0</ele><time>2026-04-19T16:44:10Z</time></trkpt><trkpt lat="45.56765825925462" lon="9.380655446178984"><ele>158.0</ele><time>2026-04-19T16:44:12Z</time></trkpt><trkpt lat="45.56766749859991" lon="9.380560539240648"><ele>158.0</ele><time>2026-04-19T16:44:14Z</time></trkpt><trkpt lat="45.56772302354027" lon="9.380492941154946"><ele>158.0</ele><time>2026-04-19T16:44:17Z</time></trkpt><trkpt lat="45.56780719781419" lon="9.38047352427371"><ele>158.0</ele><time>2026-04-19T16:44:20Z</time></trkpt><trkpt lat="45.56789783593885" lon="9.380481550128028"><ele>158.0</ele><time>2026-04-19T16:44:23Z</time></trkpt><trkpt lat="45.5679654275786" lon="9.380517154446123"><ele>158.0</ele><time>2026-04-19T16:44:25Z</time></trkpt><trkpt lat="45.56804482299722" lon="9.380514451614768"><ele>158.14285714285717</ele><time>2026-04-19T16:44:27Z</time></trkpt><trkpt lat="45.56812512492389" lon="9.380524239571729"><ele>158.28571428571428</ele><time>2026-04-19T16:44:29Z</time></trkpt><trkpt lat="45.56820439027377" lon="9.380540320045474"><ele>158.42857142857144</ele><time>2026-04-19T16:44:31Z</time></trkpt><trkpt lat="45.56827524540513" lon="9.380532747381514"><ele>158.57142857142858</ele><time>2026-04-19T16:44:33Z</time></trkpt><trkpt lat="45.568348958953074" lon="9.380540063830203"><ele>158.71428571428572</ele><time>2026-04-19T16:44:35Z</time></trkpt><trkpt lat="45.56842134836638" lon="9.38055049379212"><ele>158.85714285714286</ele><time>2026-04-19T16:44:37Z</time></trkpt><trkpt lat="45.568489526067346" lon="9.380575393831283"><ele>159.0</ele><time>2026-04-19T16:44:39Z</time></trkpt><trkpt lat="45.56855991082804" lon="9.380584148305449"><ele>159.0</ele><time>2026-04-19T16:44:42Z</time></trkpt><trkpt lat="45.568629488310414" lon="9.38059260339746"><ele>159.0</ele><time>2026-04-19T16:45:46.001Z</time></trkpt><trkpt lat="45.568625915578885" lon="9.380313876333476"><ele>159.0</ele><time>2026-04-19T16:46:23Z</time></trkpt><trkpt lat="45.56861676559514" lon="9.380222534901076"><ele>159.0</ele><time>2026-04-19T17:00:56Z</time></trkpt><trkpt lat="45.5686038107462" lon="9.380116775379873"><ele>159.0</ele><time>2026-04-19T17:01:13Z</time></trkpt><trkpt lat="45.568586590848" lon="9.38029227319819"><ele>159.0</ele><time>2026-04-19T17:04:36Z</time></trkpt><trkpt lat="45.56865397585605" lon="9.380390965375325"><ele>159.0</ele><time>2026-04-19T17:28:00.999Z</time></trkpt><trkpt lat="45.56865082939612" lon="9.380495380707318"><ele>159.0</ele><time>2026-04-19T17:28:05.999Z</time></trkpt><trkpt lat="45.568581364253745" lon="9.380473109950522"><ele>159.0</ele><time>2026-04-19T17:28:10.999Z</time></trkpt><trkpt lat="45.568648781188" lon="9.380485957753798"><ele>159.0</ele><time>2026-04-19T17:29:34.999Z</time></trkpt><trkpt lat="45.56866165012687" lon="9.380397850094717"><ele>159.0</ele><time>2026-04-19T17:29:43.999Z</time></trkpt><trkpt lat="45.568610286303944" lon="9.380327738028457"><ele>159.0</ele><time>2026-04-19T17:30:03.999Z</time></trkpt><trkpt lat="45.56854342292931" lon="9.38031553845451"><ele>159.0</ele><time>2026-04-19T17:30:09.999Z</time></trkpt><trkpt lat="45.568545576265905" lon="9.380199501689688"><ele>159.0</ele><time>2026-04-19T17:30:13.999Z</time></trkpt><trkpt lat="45.56855692365384" lon="9.380103038637106"><ele>159.0</ele><time>2026-04-19T17:30:16.999Z</time></trkpt><trkpt lat="45.56861995924502" lon="9.38009380505366"><ele>159.0</ele><time>2026-04-19T17:30:32.999Z</time></trkpt><trkpt lat="45.56868059812363" lon="9.380158035034125"><ele>159.0</ele><time>2026-04-19T17:31:26.999Z</time></trkpt><trkpt lat="45.568614893781415" lon="9.38014692403591"><ele>159.0</ele><time>2026-04-19T17:32:58Z</time></trkpt><trkpt lat="45.56864870380936" lon="9.380223207060995"><ele>159.0</ele><time>2026-04-19T17:33:14Z</time></trkpt><trkpt lat="45.56868293427376" lon="9.380094713738435"><ele>159.0</ele><time>2026-04-19T17:39:51Z</time></trkpt><trkpt lat="45.56865072449092" lon="9.3801791234502"><ele>159.0</ele><time>2026-04-19T17:40:37Z</time></trkpt><trkpt lat="45.568653702590034" lon="9.380275079991577"><ele>159.0</ele><time>2026-04-19T17:40:47Z</time></trkpt><trkpt lat="45.56866929536538" lon="9.380375307522476"><ele>159.0</ele><time>2026-04-19T17:40:55Z</time></trkpt><trkpt lat="45.56866308864787" lon="9.380471037330196"><ele>159.0</ele><time>2026-04-19T17:41:02Z</time></trkpt><trkpt lat="45.568547716150896" lon="9.380512575434622"><ele>159.0</ele><time>2026-04-19T17:44:27.999Z</time></trkpt><trkpt lat="45.56848548862762" lon="9.380546230664843"><ele>159.0</ele><time>2026-04-19T17:44:30.999Z</time></trkpt><trkpt lat="45.56841741053035" lon="9.380572315196812"><ele>159.0</ele><time>2026-04-19T17:44:33.999Z</time></trkpt><trkpt lat="45.56833027584694" lon="9.380557712906295"><ele>159.0</ele><time>2026-04-19T17:44:36.999Z</time></trkpt><trkpt lat="45.568254461329076" lon="9.38053835026775"><ele>159.0</ele><time>2026-04-19T17:44:39Z</time></trkpt><trkpt lat="45.56816828270765" lon="9.380532576522914"><ele>159.0</ele><time>2026-04-19T17:44:41Z</time></trkpt><trkpt lat="45.56809432829716" lon="9.380523050174382"><ele>159.0</ele><time>2026-04-19T17:44:43Z</time></trkpt><trkpt lat="45.56801349880629" lon="9.380506898408605"><ele>159.0</ele><time>2026-04-19T17:44:45Z</time></trkpt><trkpt lat="45.567936512789295" lon="9.380494293522826"><ele>159.0</ele><time>2026-04-19T17:44:47Z</time></trkpt><trkpt lat="45.56785850169201" lon="9.38049517855512"><ele>159.0</ele><time>2026-04-19T17:44:49Z</time></trkpt><trkpt lat="45.56779128505556" lon="9.380493750045543"><ele>159.0</ele><time>2026-04-19T17:44:51Z</time></trkpt><trkpt lat="45.567722387600405" lon="9.38049344122062"><ele>159.0</ele><time>2026-04-19T17:44:53Z</time></trkpt><trkpt lat="45.567661528321" lon="9.380580256159826"><ele>159.0</ele><time>2026-04-19T17:44:57Z</time></trkpt><trkpt lat="45.56766250060376" lon="9.380706912861154"><ele>158.83333333333334</ele><time>2026-04-19T17:45:01Z</time></trkpt><trkpt lat="45.5676651631397" lon="9.380829515178133"><ele>158.66666666666666</ele><time>2026-04-19T17:45:04Z</time></trkpt><trkpt lat="45.567664193085314" lon="9.38092024318519"><ele>158.5</ele><time>2026-04-19T17:45:06Z</time></trkpt><trkpt lat="45.56765354201395" lon="9.381068197773768"><ele>158.33333333333331</ele><time>2026-04-19T17:45:08.999Z</time></trkpt><trkpt lat="45.567652911742" lon="9.381160987460243"><ele>158.16666666666666</ele><time>2026-04-19T17:45:10.999Z</time></trkpt><trkpt lat="45.567645825872575" lon="9.381276346143213"><ele>158.0</ele><time>2026-04-19T17:45:13.999Z</time></trkpt><trkpt lat="45.56764349957198" lon="9.381372420788392"><ele>158.33333333333331</ele><time>2026-04-19T17:45:15.999Z</time></trkpt><trkpt lat="45.56765952896398" lon="9.381476430010284"><ele>158.66666666666666</ele><time>2026-04-19T17:45:18.999Z</time></trkpt><trkpt lat="45.567657326767474" lon="9.381575886301045"><ele>159.0</ele><time>2026-04-19T17:45:21.999Z</time></trkpt><trkpt lat="45.567661819306785" lon="9.381668552190552"><ele>159.33333333333334</ele><time>2026-04-19T17:45:26.999Z</time></trkpt><trkpt lat="45.56775230632241" lon="9.381642722451014"><ele>159.66666666666669</ele><time>2026-04-19T17:45:32.999Z</time></trkpt><trkpt lat="45.56782012414239" lon="9.38161190024884"><ele>160.0</ele><time>2026-04-19T17:45:35.999Z</time></trkpt><trkpt lat="45.56790649038013" lon="9.381575827291876"><ele>160.14285714285714</ele><time>2026-04-19T17:45:38.999Z</time></trkpt><trkpt lat="45.56796910107695" lon="9.381546713655124"><ele>160.28571428571428</ele><time>2026-04-19T17:45:40.999Z</time></trkpt><trkpt lat="45.56802902089168" lon="9.381505649678518"><ele>160.42857142857144</ele><time>2026-04-19T17:45:43.999Z</time></trkpt><trkpt lat="45.568089188834875" lon="9.381468640533424"><ele>160.57142857142856</ele><time>2026-04-19T17:45:46.999Z</time></trkpt><trkpt lat="45.56815056006955" lon="9.381438456053248"><ele>160.71428571428572</ele><time>2026-04-19T17:45:48.999Z</time></trkpt><trkpt lat="45.56822204173124" lon="9.381441578617007"><ele>160.85714285714286</ele><time>2026-04-19T17:45:51.999Z</time></trkpt><trkpt lat="45.56830254110585" lon="9.381396883189819"><ele>161.0</ele><time>2026-04-19T17:45:54.999Z</time></trkpt><trkpt lat="45.56838474625894" lon="9.381343452249446"><ele>160.66666666666666</ele><time>2026-04-19T17:45:58.999Z</time></trkpt><trkpt lat="45.56844659873306" lon="9.381322677298321"><ele>160.33333333333331</ele><time>2026-04-19T17:46:00.999Z</time></trkpt><trkpt lat="45.568576353925636" lon="9.381304333656482"><ele>160.0</ele><time>2026-04-19T17:46:08.999Z</time></trkpt><trkpt lat="45.56864611542298" lon="9.381310102982473"><ele>159.66666666666666</ele><time>2026-04-19T17:46:13.999Z</time></trkpt><trkpt lat="45.56870468657129" lon="9.381259602030735"><ele>159.33333333333334</ele><time>2026-04-19T17:46:18.999Z</time></trkpt><trkpt lat="45.56878310345359" lon="9.381261742873942"><ele>159.0</ele><time>2026-04-19T17:46:23.999Z</time></trkpt><trkpt lat="45.5688582822179" lon="9.381253847234506"><ele>159.0</ele><time>2026-04-19T17:46:27.999Z</time></trkpt><trkpt lat="45.5689236470517" lon="9.381244482743977"><ele>159.0</ele><time>2026-04-19T17:46:31.999Z</time></trkpt><trkpt lat="45.56899868108681" lon="9.381231243547838"><ele>159.0</ele><time>2026-04-19T17:46:34.999Z</time></trkpt><trkpt lat="45.56909027601265" lon="9.38122499354201"><ele>159.0</ele><time>2026-04-19T17:46:37.999Z</time></trkpt><trkpt lat="45.56915656959336" lon="9.381210215873839"><ele>159.0</ele><time>2026-04-19T17:46:39.999Z</time></trkpt><trkpt lat="45.56922269768247" lon="9.381202730693664"><ele>159.0</ele><time>2026-04-19T17:46:42Z</time></trkpt><trkpt lat="45.56929829943743" lon="9.38119483942239"><ele>159.0</ele><time>2026-04-19T17:46:44Z</time></trkpt><trkpt lat="45.569398402749776" lon="9.381187703074248"><ele>159.0</ele><time>2026-04-19T17:46:47Z</time></trkpt><trkpt lat="45.56947423903939" lon="9.381182797261673"><ele>159.0</ele><time>2026-04-19T17:46:49Z</time></trkpt><trkpt lat="45.56954873965687" lon="9.381182820662255"><ele>159.0</ele><time>2026-04-19T17:46:51Z</time></trkpt><trkpt lat="45.569625445476674" lon="9.38117317750946"><ele>159.0</ele><time>2026-04-19T17:46:53Z</time></trkpt><trkpt lat="45.56970059175028" lon="9.381165099480569"><ele>159.0</ele><time>2026-04-19T17:46:55Z</time></trkpt><trkpt lat="45.569774959649024" lon="9.38115533071728"><ele>159.0</ele><time>2026-04-19T17:46:57Z</time></trkpt><trkpt lat="45.56985145525168" lon="9.381144097004308"><ele>159.33333333333334</ele><time>2026-04-19T17:46:59Z</time></trkpt><trkpt lat="45.56992230894805" lon="9.3811306313614"><ele>159.66666666666666</ele><time>2026-04-19T17:47:01Z</time></trkpt><trkpt lat="45.570006929000755" lon="9.381113034145729"><ele>160.0</ele><time>2026-04-19T17:47:03Z</time></trkpt><trkpt lat="45.57008194510795" lon="9.381118414323801"><ele>160.33333333333331</ele><time>2026-04-19T17:47:05Z</time></trkpt><trkpt lat="45.57017005865024" lon="9.381113369425481"><ele>160.66666666666666</ele><time>2026-04-19T17:47:08Z</time></trkpt><trkpt lat="45.57024498430267" lon="9.381070819427157"><ele>161.0</ele><time>2026-04-19T17:47:12Z</time></trkpt><trkpt lat="45.570271108846384" lon="9.380972449964208"><ele>161.0</ele><time>2026-04-19T17:47:15Z</time></trkpt><trkpt lat="45.57029129962934" lon="9.380882603622712"><ele>161.0</ele><time>2026-04-19T17:47:18Z</time></trkpt><trkpt lat="45.570316766295534" lon="9.380792758117083"><ele>161.0</ele><time>2026-04-19T17:47:21Z</time></trkpt><trkpt lat="45.57034690765684" lon="9.380703356055596"><ele>161.0</ele><time>2026-04-19T17:47:25Z</time></trkpt><trkpt lat="45.57035278932421" lon="9.380579881062534"><ele>161.0</ele><time>2026-04-19T17:47:28Z</time></trkpt><trkpt lat="45.57034723385845" lon="9.380465294538537"><ele>161.0</ele><time>2026-04-19T17:47:31Z</time></trkpt><trkpt lat="45.570335248563424" lon="9.380354915048029"><ele>161.0</ele><time>2026-04-19T17:47:34Z</time></trkpt><trkpt lat="45.570333007718546" lon="9.38024818647725"><ele>161.0</ele><time>2026-04-19T17:47:37Z</time></trkpt><trkpt lat="45.57033815609619" lon="9.380155875703933"><ele>161.0</ele><time>2026-04-19T17:47:42Z</time></trkpt><trkpt lat="45.57039525607651" lon="9.380195113776493"><ele>161.0</ele><time>2026-04-19T17:48:27Z</time></trkpt><trkpt lat="45.57043327828096" lon="9.380285068285804"><ele>161.0</ele><time>2026-04-19T17:48:30Z</time></trkpt><trkpt lat="45.5704641803434" lon="9.380384751237354"><ele>161.0</ele><time>2026-04-19T17:48:33Z</time></trkpt><trkpt lat="45.57048825535253" lon="9.38048973552525"><ele>161.0</ele><time>2026-04-19T17:51:03Z</time></trkpt><trkpt lat="45.57050685278928" lon="9.380587726583165"><ele>161.0</ele><time>2026-04-19T17:51:08Z</time></trkpt><trkpt lat="45.57053157892875" lon="9.380694945389944"><ele>161.16666666666666</ele><time>2026-04-19T17:51:12Z</time></trkpt><trkpt lat="45.57059669782315" lon="9.380769643826754"><ele>161.33333333333331</ele><time>2026-04-19T17:51:15Z</time></trkpt><trkpt lat="45.57067781797292" lon="9.380844369453266"><ele>161.5</ele><time>2026-04-19T17:51:18Z</time></trkpt><trkpt lat="45.57074849190511" lon="9.380886671843971"><ele>161.66666666666666</ele><time>2026-04-19T17:51:20Z</time></trkpt><trkpt lat="45.57083058318225" lon="9.38087288174605"><ele>161.83333333333334</ele><time>2026-04-19T17:51:22Z</time></trkpt><trkpt lat="45.57090574772779" lon="9.380868150244783"><ele>162.0</ele><time>2026-04-19T17:51:24Z</time></trkpt><trkpt lat="45.570979120442004" lon="9.380842903039293"><ele>162.0</ele><time>2026-04-19T17:51:26Z</time></trkpt><trkpt lat="45.571046444283176" lon="9.380828428039093"><ele>162.0</ele><time>2026-04-19T17:51:28Z</time></trkpt><trkpt lat="45.571116654057676" lon="9.380809774517337"><ele>162.0</ele><time>2026-04-19T17:51:30Z</time></trkpt><trkpt lat="45.57118258982548" lon="9.380779685915433"><ele>162.0</ele><time>2026-04-19T17:51:32Z</time></trkpt><trkpt lat="45.57124620851286" lon="9.380757963965214"><ele>162.0</ele><time>2026-04-19T17:51:34Z</time></trkpt><trkpt lat="45.57131538631079" lon="9.380734358130344"><ele>162.0</ele><time>2026-04-19T17:51:36Z</time></trkpt><trkpt lat="45.571391108689156" lon="9.380713838089772"><ele>162.0</ele><time>2026-04-19T17:51:38Z</time></trkpt><trkpt lat="45.57146242296175" lon="9.380687628213135"><ele>161.85714285714286</ele><time>2026-04-19T17:51:40Z</time></trkpt><trkpt lat="45.57152663220914" lon="9.380660967791892"><ele>161.71428571428572</ele><time>2026-04-19T17:51:42Z</time></trkpt><trkpt lat="45.571591191734086" lon="9.380638643723023"><ele>161.57142857142856</ele><time>2026-04-19T17:51:44Z</time></trkpt><trkpt lat="45.571654254823045" lon="9.380614929853872"><ele>161.42857142857144</ele><time>2026-04-19T17:51:46Z</time></trkpt><trkpt lat="45.57175327375734" lon="9.380598178931697"><ele>161.28571428571428</ele><time>2026-04-19T17:51:49Z</time></trkpt><trkpt lat="45.571827898778615" lon="9.380572579917386"><ele>161.14285714285714</ele><time>2026-04-19T17:51:51Z</time></trkpt><trkpt lat="45.57189474087949" lon="9.38055326453558"><ele>161.0</ele><time>2026-04-19T17:51:53Z</time></trkpt><trkpt lat="45.57195871512315" lon="9.380535545870117"><ele>161.14285714285714</ele><time>2026-04-19T17:51:55Z</time></trkpt><trkpt lat="45.57202376095035" lon="9.380515762997641"><ele>161.28571428571428</ele><time>2026-04-19T17:51:57Z</time></trkpt><trkpt lat="45.57209123738455" lon="9.380490466268105"><ele>161.42857142857144</ele><time>2026-04-19T17:51:59Z</time></trkpt><trkpt lat="45.57216074623172" lon="9.380468269028128"><ele>161.57142857142856</ele><time>2026-04-19T17:52:01Z</time></trkpt><trkpt lat="45.572232897593366" lon="9.380454245168204"><ele>161.71428571428572</ele><time>2026-04-19T17:52:03Z</time></trkpt><trkpt lat="45.5723042013306" lon="9.380419822407713"><ele>161.85714285714286</ele><time>2026-04-19T17:52:05Z</time></trkpt><trkpt lat="45.572381170045595" lon="9.380402549278678"><ele>162.0</ele><time>2026-04-19T17:52:07Z</time></trkpt><trkpt lat="45.57245427745007" lon="9.380382281163078"><ele>162.0</ele><time>2026-04-19T17:52:09Z</time></trkpt><trkpt lat="45.572523560720825" lon="9.380356732376768"><ele>162.0</ele><time>2026-04-19T17:52:11Z</time></trkpt><trkpt lat="45.57259508006469" lon="9.380333559161961"><ele>162.0</ele><time>2026-04-19T17:52:13Z</time></trkpt><trkpt lat="45.57266746409513" lon="9.380312297127665"><ele>162.0</ele><time>2026-04-19T17:52:15Z</time></trkpt><trkpt lat="45.572734702419154" lon="9.380295730247097"><ele>162.0</ele><time>2026-04-19T17:52:17Z</time></trkpt><trkpt lat="45.57280008518786" lon="9.380276021111138"><ele>162.0</ele><time>2026-04-19T17:52:19Z</time></trkpt><trkpt lat="45.572861868944706" lon="9.380256118382917"><ele>162.0</ele><time>2026-04-19T17:52:21Z</time></trkpt><trkpt lat="45.572933885925515" lon="9.380232654544425"><ele>162.33333333333334</ele><time>2026-04-19T17:52:23Z</time></trkpt><trkpt lat="45.57300589281576" lon="9.380210419822639"><ele>162.66666666666666</ele><time>2026-04-19T17:52:25Z</time></trkpt><trkpt lat="45.5730742137566" lon="9.38019567073605"><ele>163.0</ele><time>2026-04-19T17:52:27Z</time></trkpt><trkpt lat="45.573151940534665" lon="9.380176952172725"><ele>163.33333333333331</ele><time>2026-04-19T17:52:29Z</time></trkpt><trkpt lat="45.57323507348974" lon="9.380162906425134"><ele>163.66666666666666</ele><time>2026-04-19T17:52:31Z</time></trkpt><trkpt lat="45.57332647840551" lon="9.38015866719953"><ele>164.0</ele><time>2026-04-19T17:52:33Z</time></trkpt><trkpt lat="45.57342290611962" lon="9.380153981809809"><ele>164.0</ele><time>2026-04-19T17:52:35Z</time></trkpt><trkpt lat="45.573520465607395" lon="9.380158367241243"><ele>164.0</ele><time>2026-04-19T17:52:37Z</time></trkpt><trkpt lat="45.573620988761235" lon="9.380166368159157"><ele>164.0</ele><time>2026-04-19T17:52:39Z</time></trkpt><trkpt lat="45.57372023429779" lon="9.38019631031266"><ele>164.0</ele><time>2026-04-19T17:52:41Z</time></trkpt><trkpt lat="45.57380435571905" lon="9.380211087651984"><ele>164.0</ele><time>2026-04-19T17:52:43Z</time></trkpt><trkpt lat="45.57386788001579" lon="9.380239519671413"><ele>164.14285714285714</ele><time>2026-04-19T17:52:45Z</time></trkpt><trkpt lat="45.57393206078194" lon="9.3802587363723"><ele>164.28571428571428</ele><time>2026-04-19T17:52:49Z</time></trkpt><trkpt lat="45.5740122161503" lon="9.38027707239768"><ele>164.42857142857144</ele><time>2026-04-19T17:52:52Z</time></trkpt><trkpt lat="45.57407441569361" lon="9.380311913366343"><ele>164.57142857142856</ele><time>2026-04-19T17:52:54Z</time></trkpt><trkpt lat="45.574130589204955" lon="9.380269908266907"><ele>164.71428571428572</ele><time>2026-04-19T17:52:58Z</time></trkpt><trkpt lat="45.57419037289226" lon="9.380348071095138"><ele>164.85714285714286</ele><time>2026-04-19T17:53:01Z</time></trkpt><trkpt lat="45.57426496818579" lon="9.380389418576549"><ele>165.0</ele><time>2026-04-19T17:53:03.001Z</time></trkpt><trkpt lat="45.574363532135266" lon="9.38041020252457"><ele>165.0</ele><time>2026-04-19T17:53:05.001Z</time></trkpt><trkpt lat="45.57447704231251" lon="9.380430014979686"><ele>165.0</ele><time>2026-04-19T17:53:07.001Z</time></trkpt><trkpt lat="45.5745310224785" lon="9.380528815655163"><ele>165.0</ele><time>2026-04-19T17:53:08.001Z</time></trkpt><trkpt lat="45.574639242011955" lon="9.380537379166062"><ele>165.0</ele><time>2026-04-19T17:53:10.001Z</time></trkpt><trkpt lat="45.5747501530887" lon="9.380541200716177"><ele>165.0</ele><time>2026-04-19T17:53:12.001Z</time></trkpt><trkpt lat="45.57484967521581" lon="9.380541200717127"><ele>165.0</ele><time>2026-04-19T17:53:14.001Z</time></trkpt><trkpt lat="45.57494851084357" lon="9.380539216172556"><ele>165.0</ele><time>2026-04-19T17:53:16.001Z</time></trkpt><trkpt lat="45.575030028692034" lon="9.380537454968643"><ele>165.0</ele><time>2026-04-19T17:53:18.001Z</time></trkpt><trkpt lat="45.5751662863927" lon="9.380537293817767"><ele>165.0</ele><time>2026-04-19T17:53:21.001Z</time></trkpt><trkpt lat="45.575264421258524" lon="9.380536652699867"><ele>165.0</ele><time>2026-04-19T17:53:23.001Z</time></trkpt><trkpt lat="45.575352040333655" lon="9.380536080275922"><ele>165.0</ele><time>2026-04-19T17:53:25.001Z</time></trkpt><trkpt lat="45.5754288883831" lon="9.380535578218469"><ele>165.0</ele><time>2026-04-19T17:53:27.001Z</time></trkpt><trkpt lat="45.57536901357698" lon="9.380638589025258"><ele>165.0</ele><time>2026-04-19T17:53:28.001Z</time></trkpt><trkpt lat="45.57550270101367" lon="9.380319316911512"><ele>165.0</ele><time>2026-04-19T17:53:29.001Z</time></trkpt><trkpt lat="45.575576725264575" lon="9.380221348978713"><ele>165.0</ele><time>2026-04-19T17:53:31.001Z</time></trkpt><trkpt lat="45.5758965846606" lon="9.380556724666398"><ele>165.0</ele><time>2026-04-19T17:53:33.001Z</time></trkpt><trkpt lat="45.57597295746695" lon="9.38047038993598"><ele>164.8</ele><time>2026-04-19T17:53:44.001Z</time></trkpt><trkpt lat="45.57605802403102" lon="9.380461891258115"><ele>164.6</ele><time>2026-04-19T17:53:46.001Z</time></trkpt><trkpt lat="45.57615111071345" lon="9.380463400710145"><ele>164.39999999999998</ele><time>2026-04-19T17:53:48.001Z</time></trkpt><trkpt lat="45.57625537289078" lon="9.380456392484131"><ele>164.2</ele><time>2026-04-19T17:53:50.001Z</time></trkpt><trkpt lat="45.57634690665657" lon="9.380448475693672"><ele>164.0</ele><time>2026-04-19T17:53:52.001Z</time></trkpt><trkpt lat="45.576444454077276" lon="9.380439730138544"><ele>164.33333333333331</ele><time>2026-04-19T17:53:54.001Z</time></trkpt><trkpt lat="45.5765439064667" lon="9.380431211033507"><ele>164.66666666666666</ele><time>2026-04-19T17:53:56.001Z</time></trkpt><trkpt lat="45.576629485482925" lon="9.380424529566893"><ele>165.0</ele><time>2026-04-19T17:53:58.001Z</time></trkpt><trkpt lat="45.5767133298929" lon="9.38041798352104"><ele>165.33333333333334</ele><time>2026-04-19T17:54:00.001Z</time></trkpt><trkpt lat="45.576798440504064" lon="9.380411338601157"><ele>165.66666666666669</ele><time>2026-04-19T17:54:02.001Z</time></trkpt><trkpt lat="45.576872613188755" lon="9.38040585878917"><ele>166.0</ele><time>2026-04-19T17:54:04.001Z</time></trkpt><trkpt lat="45.57695218861993" lon="9.380399925382125"><ele>166.0</ele><time>2026-04-19T17:54:06.001Z</time></trkpt><trkpt lat="45.57703408605936" lon="9.380393850623872"><ele>166.0</ele><time>2026-04-19T17:54:08.001Z</time></trkpt><trkpt lat="45.57712462247603" lon="9.38038728646554"><ele>166.0</ele><time>2026-04-19T17:54:10.001Z</time></trkpt><trkpt lat="45.577218486366434" lon="9.380380481050643"><ele>166.0</ele><time>2026-04-19T17:54:12.001Z</time></trkpt><trkpt lat="45.577300273432094" lon="9.380374551238743"><ele>166.0</ele><time>2026-04-19T17:54:14.001Z</time></trkpt><trkpt lat="45.57738624652637" lon="9.380368317901356"><ele>166.0</ele><time>2026-04-19T17:54:16.001Z</time></trkpt><trkpt lat="45.57747864368546" lon="9.380361277531152"><ele>166.0</ele><time>2026-04-19T17:54:18.001Z</time></trkpt><trkpt lat="45.5775570169667" lon="9.38035538555355"><ele>166.0</ele><time>2026-04-19T17:54:20.001Z</time></trkpt><trkpt lat="45.57764238152775" lon="9.380348967981638"><ele>166.0</ele><time>2026-04-19T17:54:22Z</time></trkpt><trkpt lat="45.57772462227454" lon="9.380342785254042"><ele>166.0</ele><time>2026-04-19T17:54:24Z</time></trkpt><trkpt lat="45.57780093632809" lon="9.380337424384434"><ele>166.0</ele><time>2026-04-19T17:54:26Z</time></trkpt><trkpt lat="45.5778850858959" lon="9.380331648881477"><ele>166.0</ele><time>2026-04-19T17:54:28Z</time></trkpt><trkpt lat="45.57796286380576" lon="9.3803260988706"><ele>166.33333333333334</ele><time>2026-04-19T17:54:30Z</time></trkpt><trkpt lat="45.57804356032937" lon="9.380320291358471"><ele>166.66666666666669</ele><time>2026-04-19T17:54:32Z</time></trkpt><trkpt lat="45.578119507150674" lon="9.380314825666701"><ele>167.0</ele><time>2026-04-19T17:54:34Z</time></trkpt><trkpt lat="45.578198683850715" lon="9.380309127534469"><ele>167.33333333333334</ele><time>2026-04-19T17:54:36Z</time></trkpt><trkpt lat="45.578274113368906" lon="9.38032182777032"><ele>167.66666666666666</ele><time>2026-04-19T17:54:38Z</time></trkpt><trkpt lat="45.57835601501067" lon="9.380324358315058"><ele>168.0</ele><time>2026-04-19T17:54:40Z</time></trkpt><trkpt lat="45.57842471779702" lon="9.380319508014411"><ele>168.0</ele><time>2026-04-19T17:54:42Z</time></trkpt><trkpt lat="45.578516304260134" lon="9.380305782175043"><ele>168.0</ele><time>2026-04-19T17:54:44Z</time></trkpt><trkpt lat="45.57861753949176" lon="9.380291682872869"><ele>168.0</ele><time>2026-04-19T17:54:46Z</time></trkpt><trkpt lat="45.57872702649947" lon="9.380285584138292"><ele>168.0</ele><time>2026-04-19T17:54:48Z</time></trkpt><trkpt lat="45.57884514759627" lon="9.380268903158672"><ele>168.0</ele><time>2026-04-19T17:54:50Z</time></trkpt><trkpt lat="45.578951564392646" lon="9.380266814766111"><ele>168.0</ele><time>2026-04-19T17:54:52Z</time></trkpt><trkpt lat="45.57905178478036" lon="9.38025604415851"><ele>168.0</ele><time>2026-04-19T17:54:54Z</time></trkpt><trkpt lat="45.57915535148566" lon="9.380242795089334"><ele>168.0</ele><time>2026-04-19T17:54:56Z</time></trkpt><trkpt lat="45.57922767344555" lon="9.380208062447133"><ele>168.0</ele><time>2026-04-19T17:54:58Z</time></trkpt><trkpt lat="45.57931542662409" lon="9.380178358151372"><ele>168.0</ele><time>2026-04-19T17:55:00Z</time></trkpt><trkpt lat="45.57939632076345" lon="9.380141275822801"><ele>168.0</ele><time>2026-04-19T17:55:02Z</time></trkpt><trkpt lat="45.57948637494216" lon="9.380120420920985"><ele>168.0</ele><time>2026-04-19T17:55:04Z</time></trkpt><trkpt lat="45.57957339016486" lon="9.380088737690691"><ele>168.0</ele><time>2026-04-19T17:55:06Z</time></trkpt><trkpt lat="45.57966616177928" lon="9.380055862953588"><ele>168.0</ele><time>2026-04-19T17:55:08Z</time></trkpt><trkpt lat="45.57976663271734" lon="9.380034020783837"><ele>168.0</ele><time>2026-04-19T17:55:10.001Z</time></trkpt><trkpt lat="45.57987329203165" lon="9.380017187939005"><ele>168.2</ele><time>2026-04-19T17:55:12.001Z</time></trkpt><trkpt lat="45.579973240219815" lon="9.379988349223918"><ele>168.4</ele><time>2026-04-19T17:55:14.001Z</time></trkpt><trkpt lat="45.580075476792025" lon="9.37995970676266"><ele>168.6</ele><time>2026-04-19T17:55:16.001Z</time></trkpt><trkpt lat="45.5801818266749" lon="9.379931019796878"><ele>168.79999999999998</ele><time>2026-04-19T17:55:18.001Z</time></trkpt><trkpt lat="45.580291252497915" lon="9.379906868509588"><ele>169.0</ele><time>2026-04-19T17:55:20.001Z</time></trkpt><trkpt lat="45.58039569183724" lon="9.379875894816285"><ele>169.0</ele><time>2026-04-19T17:55:22.001Z</time></trkpt><trkpt lat="45.58050096785545" lon="9.379851084652493"><ele>169.0</ele><time>2026-04-19T17:55:24.001Z</time></trkpt><trkpt lat="45.58060557878175" lon="9.379839180923524"><ele>169.0</ele><time>2026-04-19T17:55:26.001Z</time></trkpt><trkpt lat="45.580713240137186" lon="9.379795958569543"><ele>169.0</ele><time>2026-04-19T17:55:28.001Z</time></trkpt><trkpt lat="45.580820846798275" lon="9.379773850944273"><ele>169.0</ele><time>2026-04-19T17:55:30.001Z</time></trkpt><trkpt lat="45.58092765868166" lon="9.379749010130155"><ele>169.0</ele><time>2026-04-19T17:55:32.001Z</time></trkpt><trkpt lat="45.58103213751563" lon="9.379723618559213"><ele>169.0</ele><time>2026-04-19T17:55:34.001Z</time></trkpt><trkpt lat="45.58114193566864" lon="9.379693866080439"><ele>169.0</ele><time>2026-04-19T17:55:36.001Z</time></trkpt><trkpt lat="45.58124868044956" lon="9.379683540552884"><ele>169.0</ele><time>2026-04-19T17:55:38.001Z</time></trkpt><trkpt lat="45.581334776856366" lon="9.379733175549175"><ele>169.0</ele><time>2026-04-19T17:55:40.001Z</time></trkpt><trkpt lat="45.58139346418294" lon="9.379823781426591"><ele>169.0</ele><time>2026-04-19T17:55:42.001Z</time></trkpt><trkpt lat="45.581463873522445" lon="9.379888064581857"><ele>169.0</ele><time>2026-04-19T17:55:44.001Z</time></trkpt><trkpt lat="45.58153904085434" lon="9.37997478547284"><ele>169.0</ele><time>2026-04-19T17:55:46.001Z</time></trkpt><trkpt lat="45.58160020460629" lon="9.38001111733408"><ele>169.0</ele><time>2026-04-19T17:55:48.001Z</time></trkpt><trkpt lat="45.581667220051486" lon="9.380016608381862"><ele>169.0</ele><time>2026-04-19T17:55:55.001Z</time></trkpt><trkpt lat="45.58173005421372" lon="9.379995266960279"><ele>169.0</ele><time>2026-04-19T17:55:58.001Z</time></trkpt><trkpt lat="45.58176735546339" lon="9.37989963219029"><ele>169.0</ele><time>2026-04-19T17:56:01.001Z</time></trkpt><trkpt lat="45.581830714917764" lon="9.37978796027221"><ele>169.0</ele><time>2026-04-19T17:56:03.001Z</time></trkpt><trkpt lat="45.58189204802294" lon="9.379749135699916"><ele>169.0</ele><time>2026-04-19T17:56:04.001Z</time></trkpt><trkpt lat="45.581985448302056" lon="9.37964446760866"><ele>169.0</ele><time>2026-04-19T17:56:06.001Z</time></trkpt><trkpt lat="45.58207476927252" lon="9.379543684437673"><ele>169.0</ele><time>2026-04-19T17:56:08.001Z</time></trkpt><trkpt lat="45.58221952030842" lon="9.37955202546859"><ele>169.0</ele><time>2026-04-19T17:56:10.001Z</time></trkpt><trkpt lat="45.58232670840152" lon="9.379519761443419"><ele>169.0</ele><time>2026-04-19T17:56:12.001Z</time></trkpt><trkpt lat="45.58243746952442" lon="9.379502915118435"><ele>169.0</ele><time>2026-04-19T17:56:14.001Z</time></trkpt><trkpt lat="45.58254620826912" lon="9.379466080082523"><ele>169.0</ele><time>2026-04-19T17:56:16.001Z</time></trkpt><trkpt lat="45.58266194869732" lon="9.379446109349354"><ele>169.0</ele><time>2026-04-19T17:56:18.001Z</time></trkpt><trkpt lat="45.582762473335414" lon="9.379421861384703"><ele>169.2</ele><time>2026-04-19T17:56:20.001Z</time></trkpt><trkpt lat="45.58287754222053" lon="9.379396117804157"><ele>169.39999999999998</ele><time>2026-04-19T17:56:22.001Z</time></trkpt><trkpt lat="45.58294094561677" lon="9.379377602052148"><ele>169.6</ele><time>2026-04-19T17:56:23.001Z</time></trkpt><trkpt lat="45.58304651024626" lon="9.379348702068343"><ele>169.8</ele><time>2026-04-19T17:56:25.001Z</time></trkpt><trkpt lat="45.58315457310899" lon="9.379331690917889"><ele>170.0</ele><time>2026-04-19T17:56:27.001Z</time></trkpt><trkpt lat="45.583249669558555" lon="9.379303101594694"><ele>170.0</ele><time>2026-04-19T17:56:29.001Z</time></trkpt><trkpt lat="45.5833426121537" lon="9.379284930427676"><ele>170.0</ele><time>2026-04-19T17:56:31.001Z</time></trkpt><trkpt lat="45.583447471875544" lon="9.37926192547758"><ele>170.0</ele><time>2026-04-19T17:56:33Z</time></trkpt><trkpt lat="45.583547013029104" lon="9.379244097104197"><ele>170.0</ele><time>2026-04-19T17:56:35Z</time></trkpt><trkpt lat="45.58365211976708" lon="9.379225857937023"><ele>170.0</ele><time>2026-04-19T17:56:37Z</time></trkpt><trkpt lat="45.583760539299284" lon="9.379202665734523"><ele>170.0</ele><time>2026-04-19T17:56:39Z</time></trkpt><trkpt lat="45.58386880140039" lon="9.379174928003533"><ele>170.0</ele><time>2026-04-19T17:56:41Z</time></trkpt><trkpt lat="45.58398098756664" lon="9.379151430074748"><ele>170.0</ele><time>2026-04-19T17:56:43Z</time></trkpt><trkpt lat="45.58409047755432" lon="9.379126450397575"><ele>170.0</ele><time>2026-04-19T17:56:45Z</time></trkpt><trkpt lat="45.584198573851" lon="9.37909691613463"><ele>170.0</ele><time>2026-04-19T17:56:47Z</time></trkpt><trkpt lat="45.58430938210487" lon="9.379071282156943"><ele>170.0</ele><time>2026-04-19T17:56:49Z</time></trkpt><trkpt lat="45.58442053177879" lon="9.379050868077831"><ele>170.0</ele><time>2026-04-19T17:56:51Z</time></trkpt><trkpt lat="45.58453392320741" lon="9.379024109225039"><ele>170.0</ele><time>2026-04-19T17:56:53Z</time></trkpt><trkpt lat="45.5846463835855" lon="9.379010310193575"><ele>170.0</ele><time>2026-04-19T17:56:55Z</time></trkpt><trkpt lat="45.58475649130837" lon="9.378979150725618"><ele>170.5</ele><time>2026-04-19T17:56:57Z</time></trkpt><trkpt lat="45.58486277959032" lon="9.378942740287345"><ele>171.0</ele><time>2026-04-19T17:56:59Z</time></trkpt><trkpt lat="45.58497921270814" lon="9.378917731783933"><ele>171.5</ele><time>2026-04-19T17:57:01Z</time></trkpt><trkpt lat="45.585095196481674" lon="9.378886056823857"><ele>172.0</ele><time>2026-04-19T17:57:03Z</time></trkpt><trkpt lat="45.58520868820771" lon="9.378870453071295"><ele>172.0</ele><time>2026-04-19T17:57:05Z</time></trkpt><trkpt lat="45.58532900573718" lon="9.378861383128477"><ele>172.0</ele><time>2026-04-19T17:57:07Z</time></trkpt><trkpt lat="45.58544769605271" lon="9.37884277218648"><ele>172.0</ele><time>2026-04-19T17:57:09Z</time></trkpt><trkpt lat="45.58556706664792" lon="9.378841352345642"><ele>172.0</ele><time>2026-04-19T17:57:11Z</time></trkpt><trkpt lat="45.58568304852242" lon="9.378855282868923"><ele>172.5</ele><time>2026-04-19T17:57:13Z</time></trkpt><trkpt lat="45.585798145878" lon="9.378851055731392"><ele>173.0</ele><time>2026-04-19T17:57:15.001Z</time></trkpt><trkpt lat="45.58591095270894" lon="9.378871166203842"><ele>173.5</ele><time>2026-04-19T17:57:17.001Z</time></trkpt><trkpt lat="45.58602352776639" lon="9.378887817502278"><ele>174.0</ele><time>2026-04-19T17:57:19.001Z</time></trkpt><trkpt lat="45.586135646529215" lon="9.378907104334688"><ele>173.79999999999998</ele><time>2026-04-19T17:57:21.001Z</time></trkpt><trkpt lat="45.58624462813453" lon="9.37893032412836"><ele>173.6</ele><time>2026-04-19T17:57:23.001Z</time></trkpt><trkpt lat="45.586343450965956" lon="9.378942405449823"><ele>173.4</ele><time>2026-04-19T17:57:25.001Z</time></trkpt><trkpt lat="45.58643433700329" lon="9.378957486515642"><ele>173.2</ele><time>2026-04-19T17:57:27.001Z</time></trkpt><trkpt lat="45.58651915522795" lon="9.378971358273644"><ele>173.0</ele><time>2026-04-19T17:57:29.001Z</time></trkpt><trkpt lat="45.58657854076573" lon="9.37900398688036"><ele>173.0</ele><time>2026-04-19T17:57:34.001Z</time></trkpt><trkpt lat="45.586664802732315" lon="9.37898071233002"><ele>173.0</ele><time>2026-04-19T17:57:38.001Z</time></trkpt><trkpt lat="45.58673373930927" lon="9.379008454845463"><ele>173.0</ele><time>2026-04-19T17:57:42.001Z</time></trkpt><trkpt lat="45.586825598039496" lon="9.379023775789557"><ele>173.0</ele><time>2026-04-19T17:57:45.001Z</time></trkpt><trkpt lat="45.58690674699643" lon="9.379060266443213"><ele>173.0</ele><time>2026-04-19T17:57:47.001Z</time></trkpt><trkpt lat="45.58699235335761" lon="9.379065904876722"><ele>173.0</ele><time>2026-04-19T17:57:49.001Z</time></trkpt><trkpt lat="45.58708109143979" lon="9.379080330631133"><ele>173.0</ele><time>2026-04-19T17:57:51.001Z</time></trkpt><trkpt lat="45.58717479419801" lon="9.379098645876255"><ele>173.0</ele><time>2026-04-19T17:57:53.001Z</time></trkpt><trkpt lat="45.58727078679072" lon="9.379113844993903"><ele>173.0</ele><time>2026-04-19T17:57:55.001Z</time></trkpt><trkpt lat="45.587371021436056" lon="9.379130189887453"><ele>173.0</ele><time>2026-04-19T17:57:57.001Z</time></trkpt><trkpt lat="45.58747644430955" lon="9.379144191744672"><ele>173.0</ele><time>2026-04-19T17:57:59.001Z</time></trkpt><trkpt lat="45.587578374030365" lon="9.379155590194486"><ele>173.0</ele><time>2026-04-19T17:58:01.001Z</time></trkpt><trkpt lat="45.58768528246745" lon="9.379178190081793"><ele>173.0</ele><time>2026-04-19T17:58:03.001Z</time></trkpt><trkpt lat="45.58779174191798" lon="9.379195195862978"><ele>173.0</ele><time>2026-04-19T17:58:05.001Z</time></trkpt><trkpt lat="45.58790039801339" lon="9.379214506725717"><ele>173.0</ele><time>2026-04-19T17:58:07.001Z</time></trkpt><trkpt lat="45.58801136893361" lon="9.379233456309974"><ele>173.0</ele><time>2026-04-19T17:58:09.001Z</time></trkpt><trkpt lat="45.58812184794056" lon="9.379253445872202"><ele>173.0</ele><time>2026-04-19T17:58:11.001Z</time></trkpt><trkpt lat="45.58822853453866" lon="9.379277296416365"><ele>173.0</ele><time>2026-04-19T17:58:13.001Z</time></trkpt><trkpt lat="45.5883267959171" lon="9.379291764479886"><ele>173.0</ele><time>2026-04-19T17:58:15.001Z</time></trkpt><trkpt lat="45.58842706307472" lon="9.379304189025914"><ele>173.0</ele><time>2026-04-19T17:58:17Z</time></trkpt><trkpt lat="45.58852643167928" lon="9.379318918493002"><ele>173.0</ele><time>2026-04-19T17:58:19Z</time></trkpt><trkpt lat="45.588625985210186" lon="9.379311804011403"><ele>172.8</ele><time>2026-04-19T17:58:21Z</time></trkpt><trkpt lat="45.58872321902019" lon="9.379344417311122"><ele>172.60000000000002</ele><time>2026-04-19T17:58:23Z</time></trkpt><trkpt lat="45.5888246322626" lon="9.37936475511257"><ele>172.39999999999998</ele><time>2026-04-19T17:58:25Z</time></trkpt><trkpt lat="45.58892366937698" lon="9.379384625426875"><ele>172.2</ele><time>2026-04-19T17:58:27Z</time></trkpt><trkpt lat="45.589023447910826" lon="9.379396710569763"><ele>172.0</ele><time>2026-04-19T17:58:29Z</time></trkpt><trkpt lat="45.589120265165505" lon="9.379414544162762"><ele>172.0</ele><time>2026-04-19T17:58:31Z</time></trkpt><trkpt lat="45.58921094390672" lon="9.37943330736508"><ele>172.0</ele><time>2026-04-19T17:58:33Z</time></trkpt><trkpt lat="45.58927734622644" lon="9.379419581540112"><ele>172.0</ele><time>2026-04-19T17:58:37Z</time></trkpt><trkpt lat="45.589374071683224" lon="9.37944751399247"><ele>172.0</ele><time>2026-04-19T17:58:40Z</time></trkpt><trkpt lat="45.5894509633492" lon="9.379449564460584"><ele>172.0</ele><time>2026-04-19T17:58:43Z</time></trkpt><trkpt lat="45.58951446295215" lon="9.37943764204209"><ele>172.0</ele><time>2026-04-19T17:58:47Z</time></trkpt><trkpt lat="45.58958201678442" lon="9.3794614767917"><ele>172.2</ele><time>2026-04-19T17:58:49Z</time></trkpt><trkpt lat="45.589663383361525" lon="9.37947525576111"><ele>172.39999999999998</ele><time>2026-04-19T17:58:51Z</time></trkpt><trkpt lat="45.5897446227967" lon="9.37947735666691"><ele>172.60000000000002</ele><time>2026-04-19T17:58:53Z</time></trkpt><trkpt lat="45.58983426062382" lon="9.379494318674896"><ele>172.8</ele><time>2026-04-19T17:58:55Z</time></trkpt><trkpt lat="45.589958175755825" lon="9.37949460592868"><ele>173.0</ele><time>2026-04-19T17:58:57Z</time></trkpt><trkpt lat="45.5900646020233" lon="9.379508597420887"><ele>173.0</ele><time>2026-04-19T17:58:59Z</time></trkpt><trkpt lat="45.59016925625883" lon="9.379523270893865"><ele>173.0</ele><time>2026-04-19T17:59:01Z</time></trkpt><trkpt lat="45.59027987869194" lon="9.379506516490903"><ele>173.0</ele><time>2026-04-19T17:59:03Z</time></trkpt><trkpt lat="45.59038542432204" lon="9.379513498754651"><ele>173.0</ele><time>2026-04-19T17:59:05Z</time></trkpt><trkpt lat="45.590450898658915" lon="9.379519570316106"><ele>173.0</ele><time>2026-04-19T17:59:06Z</time></trkpt><trkpt lat="45.59054700597082" lon="9.379529464349524"><ele>173.4</ele><time>2026-04-19T17:59:08Z</time></trkpt><trkpt lat="45.5906588617321" lon="9.379547060317597"><ele>173.8</ele><time>2026-04-19T17:59:10Z</time></trkpt><trkpt lat="45.59076964759713" lon="9.379578661465809"><ele>174.2</ele><time>2026-04-19T17:59:12Z</time></trkpt><trkpt lat="45.590877524473385" lon="9.379619957536038"><ele>174.6</ele><time>2026-04-19T17:59:14Z</time></trkpt><trkpt lat="45.59097689301989" lon="9.379672519715871"><ele>175.0</ele><time>2026-04-19T17:59:16Z</time></trkpt><trkpt lat="45.59106444429449" lon="9.379734205429056"><ele>175.0</ele><time>2026-04-19T17:59:18Z</time></trkpt><trkpt lat="45.59113563582312" lon="9.379790332174723"><ele>175.0</ele><time>2026-04-19T17:59:20Z</time></trkpt><trkpt lat="45.59115339999055" lon="9.379906156587664"><ele>175.0</ele><time>2026-04-19T17:59:21.001Z</time></trkpt><trkpt lat="45.59119098596324" lon="9.380024739997205"><ele>175.0</ele><time>2026-04-19T17:59:23.001Z</time></trkpt><trkpt lat="45.59126195876617" lon="9.380111888403741"><ele>175.0</ele><time>2026-04-19T17:59:25.001Z</time></trkpt><trkpt lat="45.59136342574126" lon="9.380145128016697"><ele>175.25</ele><time>2026-04-19T17:59:27.001Z</time></trkpt><trkpt lat="45.59146187382676" lon="9.380138081518309"><ele>175.5</ele><time>2026-04-19T17:59:29.001Z</time></trkpt><trkpt lat="45.59155632317767" lon="9.380094418414611"><ele>175.75</ele><time>2026-04-19T17:59:31.001Z</time></trkpt><trkpt lat="45.59159100376691" lon="9.379992259120515"><ele>176.0</ele><time>2026-04-19T17:59:33.001Z</time></trkpt><trkpt lat="45.59159015334405" lon="9.38030219224695"><ele>176.0</ele><time>2026-04-19T17:59:34.001Z</time></trkpt><trkpt lat="45.59164689591048" lon="9.380424123329572"><ele>176.0</ele><time>2026-04-19T17:59:36.001Z</time></trkpt><trkpt lat="45.591715219796754" lon="9.380570941002853"><ele>176.0</ele><time>2026-04-19T17:59:38.001Z</time></trkpt><trkpt lat="45.59177973727102" lon="9.38070957926867"><ele>176.0</ele><time>2026-04-19T17:59:40.001Z</time></trkpt><trkpt lat="45.59184564036171" lon="9.380852652110796"><ele>176.25</ele><time>2026-04-19T17:59:42.001Z</time></trkpt><trkpt lat="45.59190989218339" lon="9.38099897836091"><ele>176.5</ele><time>2026-04-19T17:59:44.001Z</time></trkpt><trkpt lat="45.59197311451245" lon="9.381144819254251"><ele>176.75</ele><time>2026-04-19T17:59:46.001Z</time></trkpt><trkpt lat="45.59203593940798" lon="9.381290855349969"><ele>177.0</ele><time>2026-04-19T17:59:48.001Z</time></trkpt><trkpt lat="45.59209851244429" lon="9.381436306001508"><ele>177.39999999999998</ele><time>2026-04-19T17:59:50.001Z</time></trkpt><trkpt lat="45.59213191516171" lon="9.381513950422297"><ele>177.79999999999998</ele><time>2026-04-19T17:59:51.001Z</time></trkpt><trkpt lat="45.59219532090693" lon="9.381661336693861"><ele>178.2</ele><time>2026-04-19T17:59:53.001Z</time></trkpt><trkpt lat="45.59225848779655" lon="9.381808167757136"><ele>178.6</ele><time>2026-04-19T17:59:55.001Z</time></trkpt><trkpt lat="45.592319426588006" lon="9.381949819613752"><ele>179.0</ele><time>2026-04-19T17:59:57.001Z</time></trkpt><trkpt lat="45.592381374571765" lon="9.382093817450732"><ele>178.25</ele><time>2026-04-19T17:59:59.001Z</time></trkpt><trkpt lat="45.59244208925563" lon="9.382235406720742"><ele>177.5</ele><time>2026-04-19T18:00:01Z</time></trkpt><trkpt lat="45.59250345571013" lon="9.382378086125057"><ele>176.75</ele><time>2026-04-19T18:00:03Z</time></trkpt><trkpt lat="45.59256291086769" lon="9.382515560718247"><ele>176.0</ele><time>2026-04-19T18:00:05Z</time></trkpt><trkpt lat="45.592624055430385" lon="9.382656941712044"><ele>176.0</ele><time>2026-04-19T18:00:07Z</time></trkpt><trkpt lat="45.592662525782735" lon="9.382745871649162"><ele>176.0</ele><time>2026-04-19T18:00:08Z</time></trkpt><trkpt lat="45.592718298711475" lon="9.382872087917816"><ele>176.0</ele><time>2026-04-19T18:00:10Z</time></trkpt><trkpt lat="45.59278068692865" lon="9.383009666283465"><ele>176.0</ele><time>2026-04-19T18:00:12Z</time></trkpt><trkpt lat="45.5928502004923" lon="9.383153577419069"><ele>176.0</ele><time>2026-04-19T18:00:14Z</time></trkpt><trkpt lat="45.59292252138944" lon="9.383278663985692"><ele>176.20000000000002</ele><time>2026-04-19T18:00:16Z</time></trkpt><trkpt lat="45.5930024573963" lon="9.383400827819806"><ele>176.4</ele><time>2026-04-19T18:00:18Z</time></trkpt><trkpt lat="45.593093926833696" lon="9.383515468159626"><ele>176.6</ele><time>2026-04-19T18:00:20Z</time></trkpt><trkpt lat="45.59318307874946" lon="9.383607988296399"><ele>176.8</ele><time>2026-04-19T18:00:22Z</time></trkpt><trkpt lat="45.59323901456141" lon="9.38365732882944"><ele>177.0</ele><time>2026-04-19T18:00:23Z</time></trkpt><trkpt lat="45.593296840446065" lon="9.383696363125072"><ele>177.0</ele><time>2026-04-19T18:00:24Z</time></trkpt><trkpt lat="45.59340040619442" lon="9.383760606481074"><ele>177.0</ele><time>2026-04-19T18:00:26Z</time></trkpt><trkpt lat="45.59349667727661" lon="9.38381038314705"><ele>177.0</ele><time>2026-04-19T18:00:28Z</time></trkpt><trkpt lat="45.59359273603155" lon="9.383846290618859"><ele>177.0</ele><time>2026-04-19T18:00:30Z</time></trkpt><trkpt lat="45.593690182679204" lon="9.383874485580224"><ele>177.0</ele><time>2026-04-19T18:00:32Z</time></trkpt><trkpt lat="45.593798664273756" lon="9.383899330003992"><ele>177.2</ele><time>2026-04-19T18:00:34Z</time></trkpt><trkpt lat="45.59390283839411" lon="9.383917647202423"><ele>177.39999999999998</ele><time>2026-04-19T18:00:36Z</time></trkpt><trkpt lat="45.594013215627854" lon="9.38393578247461"><ele>177.60000000000002</ele><time>2026-04-19T18:00:38Z</time></trkpt><trkpt lat="45.59412167670812" lon="9.383952053394681"><ele>177.8</ele><time>2026-04-19T18:00:40Z</time></trkpt><trkpt lat="45.59423411453114" lon="9.3839689208905"><ele>178.0</ele><time>2026-04-19T18:00:42Z</time></trkpt><trkpt lat="45.59434681722474" lon="9.383985828122777"><ele>178.0</ele><time>2026-04-19T18:00:44Z</time></trkpt><trkpt lat="45.5944621070798" lon="9.384003123469588"><ele>178.0</ele><time>2026-04-19T18:00:46Z</time></trkpt><trkpt lat="45.59457640631692" lon="9.384020270207806"><ele>178.0</ele><time>2026-04-19T18:00:48Z</time></trkpt><trkpt lat="45.59468912692059" lon="9.384038351907389"><ele>178.0</ele><time>2026-04-19T18:00:50Z</time></trkpt><trkpt lat="45.594805788254206" lon="9.384057633942817"><ele>178.0</ele><time>2026-04-19T18:00:52Z</time></trkpt><trkpt lat="45.594921653426184" lon="9.384076784388364"><ele>178.0</ele><time>2026-04-19T18:00:54Z</time></trkpt><trkpt lat="45.59502981934706" lon="9.384094160271003"><ele>178.0</ele><time>2026-04-19T18:00:56Z</time></trkpt><trkpt lat="45.59514952332906" lon="9.384112338755866"><ele>178.0</ele><time>2026-04-19T18:00:58Z</time></trkpt><trkpt lat="45.59526894651231" lon="9.384130074870296"><ele>178.4</ele><time>2026-04-19T18:01:00Z</time></trkpt><trkpt lat="45.59538185114513" lon="9.38414691758798"><ele>178.8</ele><time>2026-04-19T18:01:02Z</time></trkpt><trkpt lat="45.59548030824868" lon="9.384161668998196"><ele>179.2</ele><time>2026-04-19T18:01:04Z</time></trkpt><trkpt lat="45.59557509523685" lon="9.384176932985756"><ele>179.6</ele><time>2026-04-19T18:01:06Z</time></trkpt><trkpt lat="45.59566343370927" lon="9.384190920232996"><ele>180.0</ele><time>2026-04-19T18:01:08Z</time></trkpt><trkpt lat="45.5957487478577" lon="9.384204246666826"><ele>180.0</ele><time>2026-04-19T18:01:10Z</time></trkpt><trkpt lat="45.59583117151783" lon="9.384202055588696"><ele>180.0</ele><time>2026-04-19T18:01:13Z</time></trkpt><trkpt lat="45.59591969427693" lon="9.384250291453986"><ele>180.0</ele><time>2026-04-19T18:01:16Z</time></trkpt><trkpt lat="45.59598823481187" lon="9.384266921453303"><ele>180.0</ele><time>2026-04-19T18:01:18Z</time></trkpt><trkpt lat="45.59605970913868" lon="9.384296628257227"><ele>180.0</ele><time>2026-04-19T18:01:19Z</time></trkpt><trkpt lat="45.59613938648396" lon="9.384297669269001"><ele>180.0</ele><time>2026-04-19T18:01:22Z</time></trkpt><trkpt lat="45.59624157616506" lon="9.384295511073944"><ele>180.0</ele><time>2026-04-19T18:01:24Z</time></trkpt><trkpt lat="45.59634737939555" lon="9.384286662669213"><ele>180.0</ele><time>2026-04-19T18:01:26.001Z</time></trkpt><trkpt lat="45.5964654447943" lon="9.384268377912237"><ele>180.0</ele><time>2026-04-19T18:01:28.001Z</time></trkpt><trkpt lat="45.596528096484604" lon="9.384252338501808"><ele>180.0</ele><time>2026-04-19T18:01:29.001Z</time></trkpt><trkpt lat="45.596592498916415" lon="9.384232140310944"><ele>180.0</ele><time>2026-04-19T18:01:30.001Z</time></trkpt><trkpt lat="45.59665516992712" lon="9.384206374869725"><ele>180.0</ele><time>2026-04-19T18:01:31.001Z</time></trkpt><trkpt lat="45.59671551172056" lon="9.384173333656971"><ele>180.0</ele><time>2026-04-19T18:01:32.001Z</time></trkpt><trkpt lat="45.59677361726942" lon="9.384137392084165"><ele>180.0</ele><time>2026-04-19T18:01:33.001Z</time></trkpt><trkpt lat="45.596831338158864" lon="9.384087312343063"><ele>180.0</ele><time>2026-04-19T18:01:34.001Z</time></trkpt><trkpt lat="45.59693376290187" lon="9.383990808963137"><ele>180.0</ele><time>2026-04-19T18:01:36.001Z</time></trkpt><trkpt lat="45.59701991295971" lon="9.38389272349956"><ele>180.0</ele><time>2026-04-19T18:01:38.001Z</time></trkpt><trkpt lat="45.59710188295436" lon="9.383776523340075"><ele>180.2</ele><time>2026-04-19T18:01:40.001Z</time></trkpt><trkpt lat="45.59717773420927" lon="9.383659932004349"><ele>180.4</ele><time>2026-04-19T18:01:42.001Z</time></trkpt><trkpt lat="45.59725604642678" lon="9.383539557890085"><ele>180.60000000000002</ele><time>2026-04-19T18:01:44.001Z</time></trkpt><trkpt lat="45.59733185753882" lon="9.383423028247265"><ele>180.8</ele><time>2026-04-19T18:01:46.001Z</time></trkpt><trkpt lat="45.59740782654903" lon="9.383305889275922"><ele>181.0</ele><time>2026-04-19T18:01:48.001Z</time></trkpt><trkpt lat="45.59748367902476" lon="9.383189187894224"><ele>181.0</ele><time>2026-04-19T18:01:50.001Z</time></trkpt><trkpt lat="45.59756488692953" lon="9.383064458211562"><ele>181.0</ele><time>2026-04-19T18:01:52Z</time></trkpt><trkpt lat="45.597647750104386" lon="9.382936879394553"><ele>181.0</ele><time>2026-04-19T18:01:54Z</time></trkpt><trkpt lat="45.59773001857153" lon="9.382809433784416"><ele>181.0</ele><time>2026-04-19T18:01:56Z</time></trkpt><trkpt lat="45.59777312148357" lon="9.382742321193223"><ele>181.0</ele><time>2026-04-19T18:01:57Z</time></trkpt><trkpt lat="45.59785513455566" lon="9.38261462425809"><ele>181.0</ele><time>2026-04-19T18:01:59Z</time></trkpt><trkpt lat="45.5979365539531" lon="9.382487851693691"><ele>181.0</ele><time>2026-04-19T18:02:01Z</time></trkpt><trkpt lat="45.598022214140734" lon="9.382354476084604"><ele>181.0</ele><time>2026-04-19T18:02:03Z</time></trkpt><trkpt lat="45.598100488576506" lon="9.382232759355484"><ele>181.0</ele><time>2026-04-19T18:02:05Z</time></trkpt><trkpt lat="45.598178139816085" lon="9.382112032614138"><ele>181.0</ele><time>2026-04-19T18:02:07Z</time></trkpt><trkpt lat="45.59824877447075" lon="9.382002214776266"><ele>181.0</ele><time>2026-04-19T18:02:09Z</time></trkpt><trkpt lat="45.598306457525815" lon="9.381912533176859"><ele>181.0</ele><time>2026-04-19T18:02:11Z</time></trkpt><trkpt lat="45.598351639801926" lon="9.381842267857452"><ele>181.0</ele><time>2026-04-19T18:02:12Z</time></trkpt><trkpt lat="45.59842639782935" lon="9.381725904849343"><ele>181.0</ele><time>2026-04-19T18:02:14Z</time></trkpt><trkpt lat="45.59850532856987" lon="9.381603045614757"><ele>181.0</ele><time>2026-04-19T18:02:16Z</time></trkpt><trkpt lat="45.598583598020326" lon="9.381481214976091"><ele>181.0</ele><time>2026-04-19T18:02:18Z</time></trkpt><trkpt lat="45.59866713049404" lon="9.38135119290367"><ele>181.0</ele><time>2026-04-19T18:02:20Z</time></trkpt><trkpt lat="45.59873632207489" lon="9.381244316108866"><ele>181.0</ele><time>2026-04-19T18:02:22Z</time></trkpt><trkpt lat="45.5987794671085" lon="9.381177767381013"><ele>181.0</ele><time>2026-04-19T18:02:23Z</time></trkpt><trkpt lat="45.59882416581554" lon="9.381108822081076"><ele>181.20000000000002</ele><time>2026-04-19T18:02:24Z</time></trkpt><trkpt lat="45.598902158590235" lon="9.380988522620687"><ele>181.4</ele><time>2026-04-19T18:02:26Z</time></trkpt><trkpt lat="45.59898280382521" lon="9.380864132004564"><ele>181.6</ele><time>2026-04-19T18:02:28Z</time></trkpt><trkpt lat="45.59904513893853" lon="9.38076800547812"><ele>181.8</ele><time>2026-04-19T18:02:30Z</time></trkpt><trkpt lat="45.59908831761872" lon="9.380701431727621"><ele>182.0</ele><time>2026-04-19T18:02:31Z</time></trkpt><trkpt lat="45.59915380156178" lon="9.380600467655778"><ele>182.0</ele><time>2026-04-19T18:02:33Z</time></trkpt><trkpt lat="45.59920092277147" lon="9.38052781557052"><ele>182.0</ele><time>2026-04-19T18:02:35Z</time></trkpt><trkpt lat="45.59924811374985" lon="9.380455055923436"><ele>182.0</ele><time>2026-04-19T18:02:38Z</time></trkpt><trkpt lat="45.59931211099757" lon="9.380356383950533"><ele>182.0</ele><time>2026-04-19T18:02:41Z</time></trkpt><trkpt lat="45.599362815144914" lon="9.380277023399913"><ele>182.0</ele><time>2026-04-19T18:02:43Z</time></trkpt><trkpt lat="45.59940893447008" lon="9.380204643942006"><ele>182.0</ele><time>2026-04-19T18:02:45Z</time></trkpt><trkpt lat="45.59946757393243" lon="9.380112508673388"><ele>182.5</ele><time>2026-04-19T18:02:48Z</time></trkpt><trkpt lat="45.59938847753739" lon="9.379836764187191"><ele>183.0</ele><time>2026-04-19T18:02:53Z</time></trkpt><trkpt lat="45.59944883005276" lon="9.379886369184469"><ele>183.5</ele><time>2026-04-19T18:02:58Z</time></trkpt><trkpt lat="45.599608811767894" lon="9.37989130185086"><ele>184.0</ele><time>2026-04-19T18:02:59Z</time></trkpt><trkpt lat="45.599653856909924" lon="9.379821629234131"><ele>184.0</ele><time>2026-04-19T18:03:01Z</time></trkpt><trkpt lat="45.599712908601504" lon="9.37973089237074"><ele>184.0</ele><time>2026-04-19T18:03:03Z</time></trkpt><trkpt lat="45.59977379069535" lon="9.379639967305259"><ele>184.0</ele><time>2026-04-19T18:03:05Z</time></trkpt><trkpt lat="45.59984078938848" lon="9.379539907219216"><ele>184.0</ele><time>2026-04-19T18:03:07Z</time></trkpt><trkpt lat="45.59990895077728" lon="9.379438111199523"><ele>184.0</ele><time>2026-04-19T18:03:09Z</time></trkpt><trkpt lat="45.59997706952948" lon="9.379343109717341"><ele>184.0</ele><time>2026-04-19T18:03:11Z</time></trkpt><trkpt lat="45.600055065002365" lon="9.379251539839208"><ele>184.0</ele><time>2026-04-19T18:03:13Z</time></trkpt><trkpt lat="45.60013656420553" lon="9.37916825426372"><ele>184.0</ele><time>2026-04-19T18:03:15Z</time></trkpt><trkpt lat="45.60022321529773" lon="9.379083446399683"><ele>184.0</ele><time>2026-04-19T18:03:17Z</time></trkpt><trkpt lat="45.600312352510386" lon="9.379008451401992"><ele>184.0</ele><time>2026-04-19T18:03:19Z</time></trkpt><trkpt lat="45.60040716783757" lon="9.378943988534534"><ele>184.2</ele><time>2026-04-19T18:03:21Z</time></trkpt><trkpt lat="45.60050438584185" lon="9.378891813725001"><ele>184.39999999999998</ele><time>2026-04-19T18:03:23Z</time></trkpt><trkpt lat="45.60060340020342" lon="9.378850527293745"><ele>184.6</ele><time>2026-04-19T18:03:25Z</time></trkpt><trkpt lat="45.60069794359974" lon="9.378829219725137"><ele>184.8</ele><time>2026-04-19T18:03:27Z</time></trkpt><trkpt lat="45.60081849050396" lon="9.378810674418277"><ele>185.0</ele><time>2026-04-19T18:03:29Z</time></trkpt><trkpt lat="45.600891047921394" lon="9.37880432177252"><ele>185.0</ele><time>2026-04-19T18:03:30Z</time></trkpt><trkpt lat="45.60095605896861" lon="9.378801128474372"><ele>185.0</ele><time>2026-04-19T18:03:32.001Z</time></trkpt><trkpt lat="45.601051652886085" lon="9.378799271427058"><ele>185.0</ele><time>2026-04-19T18:03:34.001Z</time></trkpt><trkpt lat="45.6011504744696" lon="9.378797973046675"><ele>185.0</ele><time>2026-04-19T18:03:36.001Z</time></trkpt><trkpt lat="45.60125476276255" lon="9.378798858987127"><ele>185.0</ele><time>2026-04-19T18:03:38.001Z</time></trkpt><trkpt lat="45.60136202680676" lon="9.378800597461728"><ele>184.6</ele><time>2026-04-19T18:03:40.001Z</time></trkpt><trkpt lat="45.601469700119445" lon="9.37880285529319"><ele>184.2</ele><time>2026-04-19T18:03:42.001Z</time></trkpt><trkpt lat="45.601571850769865" lon="9.378805668218702"><ele>183.8</ele><time>2026-04-19T18:03:44.001Z</time></trkpt><trkpt lat="45.60168071080807" lon="9.378809196011563"><ele>183.4</ele><time>2026-04-19T18:03:46.001Z</time></trkpt><trkpt lat="45.601775268078114" lon="9.37881263133275"><ele>183.0</ele><time>2026-04-19T18:03:48.001Z</time></trkpt><trkpt lat="45.601871260444405" lon="9.37881611879333"><ele>183.0</ele><time>2026-04-19T18:03:50Z</time></trkpt><trkpt lat="45.60195753804766" lon="9.378819253330684"><ele>183.0</ele><time>2026-04-19T18:03:52Z</time></trkpt><trkpt lat="45.60205561476351" lon="9.3788248693502"><ele>183.0</ele><time>2026-04-19T18:03:54Z</time></trkpt><trkpt lat="45.60216994833889" lon="9.378831349312147"><ele>183.0</ele><time>2026-04-19T18:03:56Z</time></trkpt><trkpt lat="45.60228434732678" lon="9.378838142148663"><ele>183.0</ele><time>2026-04-19T18:03:58Z</time></trkpt><trkpt lat="45.60238958616162" lon="9.378844391066126"><ele>183.4</ele><time>2026-04-19T18:04:00Z</time></trkpt><trkpt lat="45.602506931678306" lon="9.37885135888017"><ele>183.8</ele><time>2026-04-19T18:04:02Z</time></trkpt><trkpt lat="45.60260833644338" lon="9.378859669744566"><ele>184.2</ele><time>2026-04-19T18:04:04Z</time></trkpt><trkpt lat="45.602721606306666" lon="9.37887034768327"><ele>184.6</ele><time>2026-04-19T18:04:06Z</time></trkpt><trkpt lat="45.60282093764076" lon="9.378884888821553"><ele>185.0</ele><time>2026-04-19T18:04:08Z</time></trkpt><trkpt lat="45.60292622042314" lon="9.37890373385026"><ele>185.2</ele><time>2026-04-19T18:04:10Z</time></trkpt><trkpt lat="45.603028306284386" lon="9.378923824302067"><ele>185.4</ele><time>2026-04-19T18:04:12Z</time></trkpt><trkpt lat="45.603131304643895" lon="9.378944609371166"><ele>185.60000000000002</ele><time>2026-04-19T18:04:14Z</time></trkpt><trkpt lat="45.60323413165809" lon="9.37896569506828"><ele>185.8</ele><time>2026-04-19T18:04:16Z</time></trkpt><trkpt lat="45.60332449467303" lon="9.378986174833997"><ele>186.0</ele><time>2026-04-19T18:04:18Z</time></trkpt><trkpt lat="45.603413712780444" lon="9.379007061704757"><ele>186.0</ele><time>2026-04-19T18:04:20Z</time></trkpt><trkpt lat="45.60347735578148" lon="9.37902256909564"><ele>186.0</ele><time>2026-04-19T18:04:22Z</time></trkpt><trkpt lat="45.60355187587879" lon="9.379040726860723"><ele>186.0</ele><time>2026-04-19T18:04:24Z</time></trkpt><trkpt lat="45.603643441881076" lon="9.37906303807134"><ele>186.0</ele><time>2026-04-19T18:04:26Z</time></trkpt><trkpt lat="45.60373990402904" lon="9.379086542230002"><ele>186.0</ele><time>2026-04-19T18:04:28Z</time></trkpt><trkpt lat="45.60384002278806" lon="9.379110937449001"><ele>186.0</ele><time>2026-04-19T18:04:30Z</time></trkpt><trkpt lat="45.603931284151386" lon="9.379133174423838"><ele>186.33333333333334</ele><time>2026-04-19T18:04:32Z</time></trkpt><trkpt lat="45.60401500782246" lon="9.379153574714108"><ele>186.66666666666666</ele><time>2026-04-19T18:04:34Z</time></trkpt><trkpt lat="45.604089911765115" lon="9.379171826017842"><ele>187.0</ele><time>2026-04-19T18:04:36Z</time></trkpt><trkpt lat="45.60415658080234" lon="9.379188070762401"><ele>187.33333333333331</ele><time>2026-04-19T18:04:38Z</time></trkpt><trkpt lat="45.604224720162584" lon="9.3792046734854"><ele>187.66666666666666</ele><time>2026-04-19T18:04:40Z</time></trkpt><trkpt lat="45.60429949120951" lon="9.37922261847644"><ele>188.0</ele><time>2026-04-19T18:04:42Z</time></trkpt><trkpt lat="45.6043994046452" lon="9.379246676068526"><ele>188.0</ele><time>2026-04-19T18:04:44Z</time></trkpt><trkpt lat="45.60449210944726" lon="9.379268997928685"><ele>188.0</ele><time>2026-04-19T18:04:46Z</time></trkpt><trkpt lat="45.60459708692186" lon="9.379294274903787"><ele>188.0</ele><time>2026-04-19T18:04:48Z</time></trkpt><trkpt lat="45.60470044734448" lon="9.379319065846195"><ele>188.0</ele><time>2026-04-19T18:04:50Z</time></trkpt><trkpt lat="45.60480318630559" lon="9.37934366787681"><ele>188.0</ele><time>2026-04-19T18:04:52Z</time></trkpt><trkpt lat="45.60490426639836" lon="9.379367872645144"><ele>188.0</ele><time>2026-04-19T18:04:54Z</time></trkpt><trkpt lat="45.604999540204595" lon="9.379390954333227"><ele>188.0</ele><time>2026-04-19T18:04:56Z</time></trkpt><trkpt lat="45.605105985826356" lon="9.379417375315164"><ele>188.0</ele><time>2026-04-19T18:04:58Z</time></trkpt><trkpt lat="45.60521074734158" lon="9.379443378301918"><ele>188.0</ele><time>2026-04-19T18:05:00Z</time></trkpt><trkpt lat="45.60530623382885" lon="9.379467079121303"><ele>188.0</ele><time>2026-04-19T18:05:02Z</time></trkpt><trkpt lat="45.605405691519834" lon="9.379491162488913"><ele>188.0</ele><time>2026-04-19T18:05:04Z</time></trkpt><trkpt lat="45.60550513702316" lon="9.379515046819716"><ele>188.0</ele><time>2026-04-19T18:05:06Z</time></trkpt><trkpt lat="45.60559475929873" lon="9.379552026567424"><ele>188.0</ele><time>2026-04-19T18:05:08Z</time></trkpt><trkpt lat="45.60567542656718" lon="9.379604094857246"><ele>188.0</ele><time>2026-04-19T18:05:10Z</time></trkpt><trkpt lat="45.60575231553519" lon="9.379679935114927"><ele>188.0</ele><time>2026-04-19T18:05:12Z</time></trkpt><trkpt lat="45.605825751244076" lon="9.379765295887866"><ele>188.0</ele><time>2026-04-19T18:05:14Z</time></trkpt><trkpt lat="45.60592232021632" lon="9.379874630124775"><ele>188.0</ele><time>2026-04-19T18:05:16Z</time></trkpt><trkpt lat="45.60599997804059" lon="9.37994268187727"><ele>188.0</ele><time>2026-04-19T18:05:18Z</time></trkpt><trkpt lat="45.60608531832363" lon="9.379990799648791"><ele>188.0</ele><time>2026-04-19T18:05:20Z</time></trkpt><trkpt lat="45.606189279078706" lon="9.380034881127044"><ele>188.0</ele><time>2026-04-19T18:05:22Z</time></trkpt><trkpt lat="45.60629899758169" lon="9.380063091962295"><ele>188.60000000000002</ele><time>2026-04-19T18:05:24Z</time></trkpt><trkpt lat="45.606390062746776" lon="9.380082320704426"><ele>189.20000000000002</ele><time>2026-04-19T18:05:26Z</time></trkpt><trkpt lat="45.60648507877265" lon="9.3800992818172"><ele>189.8</ele><time>2026-04-19T18:05:28Z</time></trkpt><trkpt lat="45.606586403539396" lon="9.380113619912683"><ele>190.4</ele><time>2026-04-19T18:05:30Z</time></trkpt><trkpt lat="45.60670491467696" lon="9.380111186143933"><ele>191.0</ele><time>2026-04-19T18:05:32Z</time></trkpt><trkpt lat="45.60681789539815" lon="9.380081107995233"><ele>191.0</ele><time>2026-04-19T18:05:34Z</time></trkpt><trkpt lat="45.60693038562844" lon="9.380031415823137"><ele>191.0</ele><time>2026-04-19T18:05:36Z</time></trkpt><trkpt lat="45.60704468464018" lon="9.379974513719645"><ele>191.0</ele><time>2026-04-19T18:05:38.001Z</time></trkpt><trkpt lat="45.60714785301388" lon="9.37994766116533"><ele>191.0</ele><time>2026-04-19T18:05:40.001Z</time></trkpt><trkpt lat="45.6072426087112" lon="9.379946081641164"><ele>191.0</ele><time>2026-04-19T18:05:42.001Z</time></trkpt><trkpt lat="45.60734464493208" lon="9.379964665014473"><ele>191.0</ele><time>2026-04-19T18:05:44.001Z</time></trkpt><trkpt lat="45.607452286616244" lon="9.37998789925084"><ele>191.0</ele><time>2026-04-19T18:05:46Z</time></trkpt><trkpt lat="45.60756077503059" lon="9.38001178101864"><ele>191.0</ele><time>2026-04-19T18:05:48Z</time></trkpt><trkpt lat="45.60765476216504" lon="9.380034054916457"><ele>191.0</ele><time>2026-04-19T18:05:50Z</time></trkpt><trkpt lat="45.60774429657185" lon="9.380049554422223"><ele>191.0</ele><time>2026-04-19T18:05:52Z</time></trkpt><trkpt lat="45.607856247459644" lon="9.38009342050496"><ele>191.60000000000002</ele><time>2026-04-19T18:05:54Z</time></trkpt><trkpt lat="45.607971208190975" lon="9.380106227416187"><ele>192.2</ele><time>2026-04-19T18:05:56Z</time></trkpt><trkpt lat="45.60806647141136" lon="9.380134340204627"><ele>192.8</ele><time>2026-04-19T18:05:58Z</time></trkpt><trkpt lat="45.6081356702026" lon="9.380143948703145"><ele>193.39999999999998</ele><time>2026-04-19T18:05:59Z</time></trkpt><trkpt lat="45.60824762469731" lon="9.380169008130201"><ele>194.0</ele><time>2026-04-19T18:06:01Z</time></trkpt><trkpt lat="45.60836523075168" lon="9.38020416336315"><ele>194.0</ele><time>2026-04-19T18:06:03Z</time></trkpt><trkpt lat="45.6084787128401" lon="9.380238014592228"><ele>194.0</ele><time>2026-04-19T18:06:05Z</time></trkpt><trkpt lat="45.60857424135341" lon="9.380287619356844"><ele>194.0</ele><time>2026-04-19T18:06:07Z</time></trkpt><trkpt lat="45.60864529054219" lon="9.380286946752241"><ele>194.0</ele><time>2026-04-19T18:06:08Z</time></trkpt><trkpt lat="45.608754977806676" lon="9.380291865457995"><ele>194.0</ele><time>2026-04-19T18:06:10Z</time></trkpt><trkpt lat="45.60887118612295" lon="9.380325229205123"><ele>194.25</ele><time>2026-04-19T18:06:12Z</time></trkpt><trkpt lat="45.60898387427815" lon="9.380347854987141"><ele>194.5</ele><time>2026-04-19T18:06:14Z</time></trkpt><trkpt lat="45.60909294042018" lon="9.380376022875215"><ele>194.75</ele><time>2026-04-19T18:06:16Z</time></trkpt><trkpt lat="45.609206686811106" lon="9.380409296471175"><ele>195.0</ele><time>2026-04-19T18:06:18Z</time></trkpt><trkpt lat="45.609314223779414" lon="9.380434589501878"><ele>195.0</ele><time>2026-04-19T18:06:20Z</time></trkpt><trkpt lat="45.60942520151822" lon="9.380455409698902"><ele>195.0</ele><time>2026-04-19T18:06:22Z</time></trkpt><trkpt lat="45.60953814789951" lon="9.380469137395732"><ele>195.0</ele><time>2026-04-19T18:06:24Z</time></trkpt><trkpt lat="45.60965494721688" lon="9.380479767458889"><ele>195.0</ele><time>2026-04-19T18:06:26Z</time></trkpt><trkpt lat="45.609765653211795" lon="9.380480431994167"><ele>195.2</ele><time>2026-04-19T18:06:28Z</time></trkpt><trkpt lat="45.609877998053726" lon="9.380481042206279"><ele>195.4</ele><time>2026-04-19T18:06:30Z</time></trkpt><trkpt lat="45.609986884948576" lon="9.380500001339554"><ele>195.60000000000002</ele><time>2026-04-19T18:06:32Z</time></trkpt><trkpt lat="45.610098311000804" lon="9.380510798268201"><ele>195.8</ele><time>2026-04-19T18:06:34Z</time></trkpt><trkpt lat="45.61020626603906" lon="9.38052857251265"><ele>196.0</ele><time>2026-04-19T18:06:36Z</time></trkpt><trkpt lat="45.61034073194494" lon="9.38055381334775"><ele>196.20000000000002</ele><time>2026-04-19T18:06:38Z</time></trkpt><trkpt lat="45.610439434161925" lon="9.38058278166294"><ele>196.4</ele><time>2026-04-19T18:06:40Z</time></trkpt><trkpt lat="45.61054644215668" lon="9.380564883409058"><ele>196.6</ele><time>2026-04-19T18:06:42Z</time></trkpt><trkpt lat="45.61065113205622" lon="9.380617178298433"><ele>196.8</ele><time>2026-04-19T18:06:44Z</time></trkpt><trkpt lat="45.6107490839966" lon="9.380616306422855"><ele>197.0</ele><time>2026-04-19T18:06:46Z</time></trkpt><trkpt lat="45.61084845585794" lon="9.38067507539811"><ele>197.00000000000003</ele><time>2026-04-19T18:06:48Z</time></trkpt><trkpt lat="45.61093152926595" lon="9.380691227424448"><ele>197.0</ele><time>2026-04-19T18:06:50Z</time></trkpt><trkpt lat="45.611012485818016" lon="9.380719736885268"><ele>197.0</ele><time>2026-04-19T18:06:52Z</time></trkpt><trkpt lat="45.61107960519346" lon="9.380736745647326"><ele>197.0</ele><time>2026-04-19T18:06:54Z</time></trkpt><trkpt lat="45.6111627969847" lon="9.380768821807067"><ele>197.00000000000003</ele><time>2026-04-19T18:06:57Z</time></trkpt><trkpt lat="45.61122606543232" lon="9.380815894355006"><ele>197.0</ele><time>2026-04-19T18:07:00Z</time></trkpt><trkpt lat="45.6112956048904" lon="9.38085838734735"><ele>196.66666666666669</ele><time>2026-04-19T18:07:03Z</time></trkpt><trkpt lat="45.61137110721396" lon="9.380880743828682"><ele>196.33333333333334</ele><time>2026-04-19T18:07:06Z</time></trkpt><trkpt lat="45.61145017513022" lon="9.38092050171606"><ele>196.0</ele><time>2026-04-19T18:07:09Z</time></trkpt><trkpt lat="45.61151643135407" lon="9.380977937604454"><ele>195.66666666666669</ele><time>2026-04-19T18:07:12Z</time></trkpt><trkpt lat="45.61160248817072" lon="9.381016716708833"><ele>195.33333333333334</ele><time>2026-04-19T18:07:15Z</time></trkpt><trkpt lat="45.61168039757033" lon="9.381038214416174"><ele>195.0</ele><time>2026-04-19T18:07:18Z</time></trkpt><trkpt lat="45.611743492022335" lon="9.381052810045713"><ele>195.0</ele><time>2026-04-19T18:07:20Z</time></trkpt><trkpt lat="45.61181670608803" lon="9.381045654204588"><ele>195.0</ele><time>2026-04-19T18:07:22Z</time></trkpt><trkpt lat="45.611900551702206" lon="9.381058341507952"><ele>195.0</ele><time>2026-04-19T18:07:25Z</time></trkpt><trkpt lat="45.61196031931518" lon="9.381086680084623"><ele>195.0</ele><time>2026-04-19T18:07:27Z</time></trkpt><trkpt lat="45.61203288028951" lon="9.381101667056795"><ele>195.0</ele><time>2026-04-19T18:07:30Z</time></trkpt><trkpt lat="45.612038029396565" lon="9.380825651589085"><ele>195.16666666666666</ele><time>2026-04-19T18:07:34.999Z</time></trkpt><trkpt lat="45.61202415016147" lon="9.380723353207605"><ele>195.33333333333331</ele><time>2026-04-19T18:07:36.999Z</time></trkpt><trkpt lat="45.61203943338999" lon="9.380632960064819"><ele>195.5</ele><time>2026-04-19T18:07:38.999Z</time></trkpt><trkpt lat="45.61205640828897" lon="9.380533142962967"><ele>195.66666666666666</ele><time>2026-04-19T18:07:41.999Z</time></trkpt><trkpt lat="45.61206708923805" lon="9.380432240996132"><ele>195.83333333333331</ele><time>2026-04-19T18:07:46Z</time></trkpt><trkpt lat="45.6121314662037" lon="9.380348006434783"><ele>196.0</ele><time>2026-04-19T18:07:49Z</time></trkpt><trkpt lat="45.612206530953195" lon="9.380401749911176"><ele>195.99999999999997</ele><time>2026-04-19T18:07:52Z</time></trkpt><trkpt lat="45.61227790030506" lon="9.38049908560982"><ele>196.0</ele><time>2026-04-19T18:07:55Z</time></trkpt><trkpt lat="45.61232297084463" lon="9.380562703580875"><ele>196.0</ele><time>2026-04-19T18:07:57Z</time></trkpt><trkpt lat="45.61237665314358" lon="9.380627712702587"><ele>196.0</ele><time>2026-04-19T18:07:59Z</time></trkpt><trkpt lat="45.61244126738591" lon="9.380693419480465"><ele>195.99999999999997</ele><time>2026-04-19T18:08:02Z</time></trkpt><trkpt lat="45.612512064135274" lon="9.380782678394624"><ele>196.0</ele><time>2026-04-19T18:08:05Z</time></trkpt><trkpt lat="45.612566285908194" lon="9.380839623724661"><ele>196.0</ele><time>2026-04-19T18:08:07Z</time></trkpt><trkpt lat="45.61251051970389" lon="9.381000897691306"><ele>196.0</ele><time>2026-04-19T18:08:08Z</time></trkpt><trkpt lat="45.612572160858434" lon="9.381089690184202"><ele>196.0</ele><time>2026-04-19T18:08:10Z</time></trkpt><trkpt lat="45.61263824289013" lon="9.381187450214014"><ele>196.0</ele><time>2026-04-19T18:08:12Z</time></trkpt><trkpt lat="45.612686617102355" lon="9.381263315601199"><ele>196.0</ele><time>2026-04-19T18:08:14Z</time></trkpt><trkpt lat="45.61273601304453" lon="9.38134336886171"><ele>195.66666666666666</ele><time>2026-04-19T18:08:16Z</time></trkpt><trkpt lat="45.61278253388641" lon="9.381419908158028"><ele>195.33333333333331</ele><time>2026-04-19T18:08:18Z</time></trkpt><trkpt lat="45.61308067071544" lon="9.38131632690323"><ele>195.0</ele><time>2026-04-19T18:08:20Z</time></trkpt><trkpt lat="45.61315513582714" lon="9.381329257667568"><ele>195.2</ele><time>2026-04-19T18:08:22Z</time></trkpt><trkpt lat="45.613237195131106" lon="9.381350799622322"><ele>195.4</ele><time>2026-04-19T18:08:24Z</time></trkpt><trkpt lat="45.61332726431127" lon="9.381392120537893"><ele>195.60000000000002</ele><time>2026-04-19T18:08:26Z</time></trkpt><trkpt lat="45.61342171504536" lon="9.38143545155829"><ele>195.8</ele><time>2026-04-19T18:08:28Z</time></trkpt><trkpt lat="45.61350299336632" lon="9.381472739522058"><ele>196.0</ele><time>2026-04-19T18:08:30Z</time></trkpt><trkpt lat="45.61360598893171" lon="9.38151683073275"><ele>196.0</ele><time>2026-04-19T18:08:32Z</time></trkpt><trkpt lat="45.6137042217517" lon="9.381555442247032"><ele>196.0</ele><time>2026-04-19T18:08:34Z</time></trkpt><trkpt lat="45.61379491246049" lon="9.381589903759625"><ele>196.0</ele><time>2026-04-19T18:08:36Z</time></trkpt><trkpt lat="45.613892231593205" lon="9.381616513376429"><ele>196.0</ele><time>2026-04-19T18:08:38Z</time></trkpt><trkpt lat="45.61399126263162" lon="9.38164785109562"><ele>196.0</ele><time>2026-04-19T18:08:40Z</time></trkpt><trkpt lat="45.61408016173555" lon="9.381666877279349"><ele>195.99999999999997</ele><time>2026-04-19T18:08:42Z</time></trkpt><trkpt lat="45.6141579863387" lon="9.3816835638342"><ele>196.0</ele><time>2026-04-19T18:08:44Z</time></trkpt><trkpt lat="45.614226331098756" lon="9.381698217838933"><ele>196.0</ele><time>2026-04-19T18:08:46Z</time></trkpt><trkpt lat="45.61429393697536" lon="9.381712713373034"><ele>196.0</ele><time>2026-04-19T18:08:48Z</time></trkpt><trkpt lat="45.61437634411351" lon="9.381730382500592"><ele>195.99999999999997</ele><time>2026-04-19T18:08:50Z</time></trkpt><trkpt lat="45.614475403361745" lon="9.381752012203966"><ele>196.0</ele><time>2026-04-19T18:08:52Z</time></trkpt><trkpt lat="45.61453984505688" lon="9.381766466904075"><ele>196.4</ele><time>2026-04-19T18:08:53Z</time></trkpt><trkpt lat="45.614650132765895" lon="9.381770442127246"><ele>196.8</ele><time>2026-04-19T18:08:55Z</time></trkpt><trkpt lat="45.61473864954078" lon="9.381770442127754"><ele>197.20000000000002</ele><time>2026-04-19T18:08:57Z</time></trkpt><trkpt lat="45.614838908496466" lon="9.381770442127948"><ele>197.60000000000002</ele><time>2026-04-19T18:08:59Z</time></trkpt><trkpt lat="45.61488892509227" lon="9.3815782556279"><ele>198.0</ele><time>2026-04-19T18:09:00Z</time></trkpt><trkpt lat="45.614992045208325" lon="9.381567852837714"><ele>198.0</ele><time>2026-04-19T18:09:02Z</time></trkpt><trkpt lat="45.61509420194819" lon="9.381513776424041"><ele>198.0</ele><time>2026-04-19T18:09:05Z</time></trkpt><trkpt lat="45.61522335929431" lon="9.381651050623057"><ele>198.0</ele><time>2026-04-19T18:09:07Z</time></trkpt><trkpt lat="45.615325612194496" lon="9.381683269704267"><ele>198.0</ele><time>2026-04-19T18:09:09Z</time></trkpt><trkpt lat="45.61542583118703" lon="9.381701742858246"><ele>198.4</ele><time>2026-04-19T18:09:11Z</time></trkpt><trkpt lat="45.615527444981666" lon="9.381725265909804"><ele>198.8</ele><time>2026-04-19T18:09:13Z</time></trkpt><trkpt lat="45.615608149194706" lon="9.381750378525549"><ele>199.2</ele><time>2026-04-19T18:09:15Z</time></trkpt><trkpt lat="45.615689404813956" lon="9.381780381174353"><ele>199.6</ele><time>2026-04-19T18:09:17Z</time></trkpt><trkpt lat="45.615717091266575" lon="9.38200745244622"><ele>200.0</ele><time>2026-04-19T18:09:18Z</time></trkpt><trkpt lat="45.615809018370705" lon="9.382021530763547"><ele>200.0</ele><time>2026-04-19T18:09:20Z</time></trkpt><trkpt lat="45.61590555808271" lon="9.382039203453843"><ele>200.0</ele><time>2026-04-19T18:09:22Z</time></trkpt><trkpt lat="45.615999704120256" lon="9.382056437980717"><ele>200.0</ele><time>2026-04-19T18:09:23.999Z</time></trkpt><trkpt lat="45.61610652028164" lon="9.382061506431102"><ele>200.0</ele><time>2026-04-19T18:09:25.999Z</time></trkpt><trkpt lat="45.616204414773506" lon="9.382108752497608"><ele>200.0</ele><time>2026-04-19T18:09:27.999Z</time></trkpt><trkpt lat="45.616303029422575" lon="9.382130331641196"><ele>200.0</ele><time>2026-04-19T18:09:29.999Z</time></trkpt><trkpt lat="45.61641393609632" lon="9.382150164195574"><ele>200.0</ele><time>2026-04-19T18:09:31.999Z</time></trkpt><trkpt lat="45.61648320740088" lon="9.382161708736296"><ele>200.0</ele><time>2026-04-19T18:09:32.999Z</time></trkpt><trkpt lat="45.616578572143425" lon="9.382171257467594"><ele>200.0</ele><time>2026-04-19T18:09:34.999Z</time></trkpt><trkpt lat="45.61669606585472" lon="9.382178125414182"><ele>200.0</ele><time>2026-04-19T18:09:36.999Z</time></trkpt><trkpt lat="45.616785073379354" lon="9.382182725283329"><ele>200.0</ele><time>2026-04-19T18:09:38.999Z</time></trkpt><trkpt lat="45.61687806900188" lon="9.382185453688686"><ele>200.0</ele><time>2026-04-19T18:09:40.999Z</time></trkpt><trkpt lat="45.616973587811856" lon="9.38218817120872"><ele>200.0</ele><time>2026-04-19T18:09:42.999Z</time></trkpt><trkpt lat="45.61706351462081" lon="9.382190765624335"><ele>200.0</ele><time>2026-04-19T18:09:44.999Z</time></trkpt><trkpt lat="45.61715282052514" lon="9.382193388267964"><ele>200.0</ele><time>2026-04-19T18:09:46.999Z</time></trkpt><trkpt lat="45.6172516741943" lon="9.382196291294955"><ele>200.0</ele><time>2026-04-19T18:09:48.999Z</time></trkpt><trkpt lat="45.61734799000254" lon="9.382199119797678"><ele>200.0</ele><time>2026-04-19T18:09:51Z</time></trkpt><trkpt lat="45.61744748024265" lon="9.382202041526988"><ele>200.0</ele><time>2026-04-19T18:09:53Z</time></trkpt><trkpt lat="45.617548762593145" lon="9.3822050870236"><ele>200.0</ele><time>2026-04-19T18:09:55Z</time></trkpt><trkpt lat="45.61765121532625" lon="9.382207117775705"><ele>200.0</ele><time>2026-04-19T18:09:57Z</time></trkpt><trkpt lat="45.617765222358294" lon="9.382206659727315"><ele>199.75</ele><time>2026-04-19T18:09:59Z</time></trkpt><trkpt lat="45.61787813524711" lon="9.382205817095278"><ele>199.5</ele><time>2026-04-19T18:10:01Z</time></trkpt><trkpt lat="45.61797386073956" lon="9.38221433556379"><ele>199.25</ele><time>2026-04-19T18:10:03Z</time></trkpt><trkpt lat="45.61808187643023" lon="9.382225542099123"><ele>199.0</ele><time>2026-04-19T18:10:05Z</time></trkpt><trkpt lat="45.61819676277485" lon="9.38211912549367"><ele>199.0</ele><time>2026-04-19T18:10:07Z</time></trkpt><trkpt lat="45.61830719625596" lon="9.382150844042835"><ele>199.0</ele><time>2026-04-19T18:10:09Z</time></trkpt><trkpt lat="45.618303966016285" lon="9.382427774312374"><ele>199.0</ele><time>2026-04-19T18:10:11Z</time></trkpt><trkpt lat="45.61839093485866" lon="9.382510714762693"><ele>199.0</ele><time>2026-04-19T18:10:13Z</time></trkpt><trkpt lat="45.6184248410505" lon="9.382589873858315"><ele>200.0</ele><time>2026-04-19T18:10:15Z</time></trkpt><trkpt lat="45.61878884952303" lon="9.382233825148436"><ele>201.0</ele><time>2026-04-19T18:10:18Z</time></trkpt><trkpt lat="45.618886738907534" lon="9.382247330455794"><ele>201.0</ele><time>2026-04-19T18:10:20Z</time></trkpt><trkpt lat="45.618994882540804" lon="9.382272854849898"><ele>201.0</ele><time>2026-04-19T18:10:22Z</time></trkpt><trkpt lat="45.61910701795055" lon="9.382300404688433"><ele>201.0</ele><time>2026-04-19T18:10:24Z</time></trkpt><trkpt lat="45.61922145784048" lon="9.382311880638603"><ele>201.0</ele><time>2026-04-19T18:10:26Z</time></trkpt><trkpt lat="45.61932966980656" lon="9.382452483088981"><ele>201.0</ele><time>2026-04-19T18:10:28Z</time></trkpt><trkpt lat="45.61944703844388" lon="9.382476270835937"><ele>201.0</ele><time>2026-04-19T18:10:30Z</time></trkpt><trkpt lat="45.619509313867724" lon="9.382490369074775"><ele>201.0</ele><time>2026-04-19T18:10:31Z</time></trkpt><trkpt lat="45.61963521701744" lon="9.382518871561365"><ele>201.0</ele><time>2026-04-19T18:10:33Z</time></trkpt><trkpt lat="45.61970087610807" lon="9.382533374735349"><ele>201.0</ele><time>2026-04-19T18:10:34Z</time></trkpt><trkpt lat="45.6198005116186" lon="9.382555451845143"><ele>202.0</ele><time>2026-04-19T18:10:36Z</time></trkpt><trkpt lat="45.61991980439272" lon="9.38258188458377"><ele>203.0</ele><time>2026-04-19T18:10:38Z</time></trkpt><trkpt lat="45.62004092570586" lon="9.382608722488682"><ele>204.0</ele><time>2026-04-19T18:10:40Z</time></trkpt><trkpt lat="45.62010390199331" lon="9.38262267679577"><ele>205.0</ele><time>2026-04-19T18:10:41Z</time></trkpt><trkpt lat="45.62020751174841" lon="9.382654025162813"><ele>206.0</ele><time>2026-04-19T18:10:43Z</time></trkpt><trkpt lat="45.62027250376228" lon="9.382673112108604"><ele>205.5</ele><time>2026-04-19T18:10:44Z</time></trkpt><trkpt lat="45.620362302604235" lon="9.382699484389486"><ele>205.0</ele><time>2026-04-19T18:10:46Z</time></trkpt><trkpt lat="45.62046590663875" lon="9.382729911717272"><ele>204.5</ele><time>2026-04-19T18:10:48Z</time></trkpt><trkpt lat="45.62055384492339" lon="9.382755738248797"><ele>204.0</ele><time>2026-04-19T18:10:50Z</time></trkpt><trkpt lat="45.620650369147036" lon="9.382516317101528"><ele>204.0</ele><time>2026-04-19T18:10:52Z</time></trkpt><trkpt lat="45.620714101565675" lon="9.38241272679532"><ele>204.0</ele><time>2026-04-19T18:10:54Z</time></trkpt><trkpt lat="45.62067275714324" lon="9.382289635742861"><ele>204.0</ele><time>2026-04-19T18:10:55Z</time></trkpt><trkpt lat="45.620677728749115" lon="9.382177718105687"><ele>204.0</ele><time>2026-04-19T18:10:57Z</time></trkpt><trkpt lat="45.62066846908928" lon="9.38200365975014"><ele>204.0</ele><time>2026-04-19T18:10:59Z</time></trkpt><trkpt lat="45.620645998280786" lon="9.381852562337219"><ele>202.75</ele><time>2026-04-19T18:11:01Z</time></trkpt><trkpt lat="45.62061301043864" lon="9.381723239447744"><ele>201.5</ele><time>2026-04-19T18:11:03Z</time></trkpt><trkpt lat="45.62055980091689" lon="9.38161621975793"><ele>200.25</ele><time>2026-04-19T18:11:05Z</time></trkpt><trkpt lat="45.62052324031792" lon="9.381498582679596"><ele>199.0</ele><time>2026-04-19T18:11:08Z</time></trkpt><trkpt lat="45.62069697076956" lon="9.381368455690502"><ele>198.39999999999998</ele><time>2026-04-19T18:11:10Z</time></trkpt><trkpt lat="45.620683036466986" lon="9.381251710424984"><ele>197.8</ele><time>2026-04-19T18:11:12Z</time></trkpt><trkpt lat="45.620637996368224" lon="9.381110810516102"><ele>197.2</ele><time>2026-04-19T18:11:14Z</time></trkpt><trkpt lat="45.6206210042029" lon="9.380995906723195"><ele>196.60000000000002</ele><time>2026-04-19T18:11:16Z</time></trkpt><trkpt lat="45.62057261024644" lon="9.38083724319833"><ele>196.0</ele><time>2026-04-19T18:11:18Z</time></trkpt><trkpt lat="45.620547208890876" lon="9.380716878302922"><ele>196.0</ele><time>2026-04-19T18:11:20Z</time></trkpt><trkpt lat="45.6205107260321" lon="9.38057135735092"><ele>196.0</ele><time>2026-04-19T18:11:22Z</time></trkpt><trkpt lat="45.62047417110402" lon="9.380433768871349"><ele>196.0</ele><time>2026-04-19T18:11:23.999Z</time></trkpt><trkpt lat="45.62043884140307" lon="9.38029985195007"><ele>196.0</ele><time>2026-04-19T18:11:25.999Z</time></trkpt><trkpt lat="45.620418136947194" lon="9.380174339753122"><ele>196.0</ele><time>2026-04-19T18:11:27.999Z</time></trkpt><trkpt lat="45.6203801159029" lon="9.38004512333117"><ele>196.20000000000002</ele><time>2026-04-19T18:11:29.999Z</time></trkpt><trkpt lat="45.62034592989989" lon="9.379903958785814"><ele>196.4</ele><time>2026-04-19T18:11:31.999Z</time></trkpt><trkpt lat="45.62039742814784" lon="9.379805294558968"><ele>196.6</ele><time>2026-04-19T18:11:32.999Z</time></trkpt><trkpt lat="45.62036563514687" lon="9.379664240406589"><ele>196.8</ele><time>2026-04-19T18:11:34.999Z</time></trkpt><trkpt lat="45.62033704601471" lon="9.379535494666975"><ele>197.0</ele><time>2026-04-19T18:11:36.999Z</time></trkpt><trkpt lat="45.620311546248836" lon="9.379420661326705"><ele>197.16666666666669</ele><time>2026-04-19T18:11:38.999Z</time></trkpt><trkpt lat="45.62028709430441" lon="9.379310546563877"><ele>197.33333333333334</ele><time>2026-04-19T18:11:40.999Z</time></trkpt><trkpt lat="45.620263079302525" lon="9.379202399587511"><ele>197.5</ele><time>2026-04-19T18:11:42.999Z</time></trkpt><trkpt lat="45.62024076683414" lon="9.379101919510978"><ele>197.66666666666669</ele><time>2026-04-19T18:11:44.999Z</time></trkpt><trkpt lat="45.620211791631874" lon="9.378971956764628"><ele>197.83333333333334</ele><time>2026-04-19T18:11:47.999Z</time></trkpt><trkpt lat="45.62019243286319" lon="9.378885330785314"><ele>198.0</ele><time>2026-04-19T18:11:49.999Z</time></trkpt><trkpt lat="45.62017098154142" lon="9.378789341189266"><ele>198.16666666666666</ele><time>2026-04-19T18:11:51.999Z</time></trkpt><trkpt lat="45.62014090536002" lon="9.378654757254955"><ele>198.33333333333331</ele><time>2026-04-19T18:11:54.999Z</time></trkpt><trkpt lat="45.62011667032108" lon="9.378546968688704"><ele>198.5</ele><time>2026-04-19T18:11:57Z</time></trkpt><trkpt lat="45.62008904616052" lon="9.378426207635803"><ele>198.66666666666666</ele><time>2026-04-19T18:11:59Z</time></trkpt><trkpt lat="45.62006421645044" lon="9.378317662761482"><ele>198.83333333333331</ele><time>2026-04-19T18:12:01Z</time></trkpt><trkpt lat="45.62004174721202" lon="9.378219436706297"><ele>199.0</ele><time>2026-04-19T18:12:03Z</time></trkpt><trkpt lat="45.620016299360444" lon="9.378108188683997"><ele>198.99999999999997</ele><time>2026-04-19T18:12:05Z</time></trkpt><trkpt lat="45.619925048446525" lon="9.378022180127589"><ele>199.0</ele><time>2026-04-19T18:12:07Z</time></trkpt><trkpt lat="45.619909521897355" lon="9.37791642653441"><ele>199.0</ele><time>2026-04-19T18:12:09Z</time></trkpt><trkpt lat="45.61988962628102" lon="9.377827177955878"><ele>199.0</ele><time>2026-04-19T18:12:11Z</time></trkpt><trkpt lat="45.619863962831126" lon="9.377692256572022"><ele>198.99999999999997</ele><time>2026-04-19T18:12:13Z</time></trkpt><trkpt lat="45.61989329077695" lon="9.377565547461662"><ele>199.0</ele><time>2026-04-19T18:12:15Z</time></trkpt><trkpt lat="45.619825562948094" lon="9.377532235356062"><ele>198.99999999999997</ele><time>2026-04-19T18:12:16Z</time></trkpt><trkpt lat="45.61980006518223" lon="9.377416934066089"><ele>199.0</ele><time>2026-04-19T18:12:18Z</time></trkpt><trkpt lat="45.6198287889591" lon="9.377283743757772"><ele>199.0</ele><time>2026-04-19T18:12:20Z</time></trkpt><trkpt lat="45.6198048530411" lon="9.3771885584842"><ele>199.0</ele><time>2026-04-19T18:12:24Z</time></trkpt><trkpt lat="45.61981212417817" lon="9.377081175245143"><ele>198.99999999999997</ele><time>2026-04-19T18:12:29Z</time></trkpt><trkpt lat="45.61976266956169" lon="9.376950547911207"><ele>199.0</ele><time>2026-04-19T18:12:31Z</time></trkpt><trkpt lat="45.619748582508336" lon="9.376799626569607"><ele>199.0</ele><time>2026-04-19T18:12:33Z</time></trkpt><trkpt lat="45.61976502974297" lon="9.376649655630937"><ele>199.0</ele><time>2026-04-19T18:12:35Z</time></trkpt><trkpt lat="45.619773069627776" lon="9.376491322285448"><ele>199.0</ele><time>2026-04-19T18:12:37Z</time></trkpt><trkpt lat="45.61982317775669" lon="9.37633895380491"><ele>199.0</ele><time>2026-04-19T18:12:39Z</time></trkpt><trkpt lat="45.6198588864858" lon="9.376195722603835"><ele>199.0</ele><time>2026-04-19T18:12:41Z</time></trkpt><trkpt lat="45.619874547257865" lon="9.376023421413288"><ele>198.79999999999998</ele><time>2026-04-19T18:12:43Z</time></trkpt><trkpt lat="45.61992378633816" lon="9.375874387883977"><ele>198.6</ele><time>2026-04-19T18:12:45Z</time></trkpt><trkpt lat="45.61997771431586" lon="9.375726150696362"><ele>198.4</ele><time>2026-04-19T18:12:47Z</time></trkpt><trkpt lat="45.620016555634166" lon="9.375651047493454"><ele>198.2</ele><time>2026-04-19T18:12:48Z</time></trkpt><trkpt lat="45.6200295788063" lon="9.375505295202704"><ele>198.0</ele><time>2026-04-19T18:12:50Z</time></trkpt><trkpt lat="45.62005427802289" lon="9.375399533419808"><ele>198.33333333333334</ele><time>2026-04-19T18:12:52Z</time></trkpt><trkpt lat="45.62007985518" lon="9.37531427214691"><ele>198.66666666666669</ele><time>2026-04-19T18:12:54Z</time></trkpt><trkpt lat="45.620111028025335" lon="9.37519445586874"><ele>199.0</ele><time>2026-04-19T18:12:56Z</time></trkpt><trkpt lat="45.620123158813776" lon="9.375081700550806"><ele>199.33333333333334</ele><time>2026-04-19T18:12:58Z</time></trkpt><trkpt lat="45.62015840927296" lon="9.374972641215212"><ele>199.66666666666669</ele><time>2026-04-19T18:13:00Z</time></trkpt><trkpt lat="45.62017723931498" lon="9.374852937855664"><ele>200.0</ele><time>2026-04-19T18:13:02Z</time></trkpt><trkpt lat="45.620193507027416" lon="9.374716675079725"><ele>200.0</ele><time>2026-04-19T18:13:04Z</time></trkpt><trkpt lat="45.62020744886343" lon="9.37458405096231"><ele>200.0</ele><time>2026-04-19T18:13:06Z</time></trkpt><trkpt lat="45.62025150188611" lon="9.374437431850081"><ele>200.0</ele><time>2026-04-19T18:13:08Z</time></trkpt><trkpt lat="45.620291946010184" lon="9.374276700279399"><ele>200.0</ele><time>2026-04-19T18:13:10Z</time></trkpt><trkpt lat="45.620324811372654" lon="9.374116523659627"><ele>200.0</ele><time>2026-04-19T18:13:12Z</time></trkpt><trkpt lat="45.62035237500519" lon="9.373955637879684"><ele>199.25</ele><time>2026-04-19T18:13:14Z</time></trkpt><trkpt lat="45.62037491903924" lon="9.373788872905669"><ele>198.5</ele><time>2026-04-19T18:13:16Z</time></trkpt><trkpt lat="45.62039650247271" lon="9.373620079185603"><ele>197.75</ele><time>2026-04-19T18:13:18Z</time></trkpt><trkpt lat="45.620407991678896" lon="9.373445846432402"><ele>197.0</ele><time>2026-04-19T18:13:19.999Z</time></trkpt><trkpt lat="45.620413299711174" lon="9.373286463245384"><ele>197.0</ele><time>2026-04-19T18:13:21.999Z</time></trkpt><trkpt lat="45.620412188632486" lon="9.373133561942733"><ele>197.0</ele><time>2026-04-19T18:13:23.999Z</time></trkpt><trkpt lat="45.62040663880632" lon="9.372964320771201"><ele>197.0</ele><time>2026-04-19T18:13:25.999Z</time></trkpt><trkpt lat="45.620392635450116" lon="9.372794833292433"><ele>197.0</ele><time>2026-04-19T18:13:27.999Z</time></trkpt><trkpt lat="45.620376352212254" lon="9.37262472465854"><ele>197.5</ele><time>2026-04-19T18:13:29.999Z</time></trkpt><trkpt lat="45.62035698131674" lon="9.372451876191745"><ele>198.0</ele><time>2026-04-19T18:13:31.999Z</time></trkpt><trkpt lat="45.62034323078644" lon="9.37227856512374"><ele>198.5</ele><time>2026-04-19T18:13:33.999Z</time></trkpt><trkpt lat="45.62032748234892" lon="9.372104156729089"><ele>199.0</ele><time>2026-04-19T18:13:35.999Z</time></trkpt><trkpt lat="45.620301754547334" lon="9.371937430117736"><ele>198.99999999999997</ele><time>2026-04-19T18:13:37.999Z</time></trkpt><trkpt lat="45.620294302161746" lon="9.371845201599271"><ele>199.0</ele><time>2026-04-19T18:13:38.999Z</time></trkpt><trkpt lat="45.62028789128364" lon="9.371754257560843"><ele>199.0</ele><time>2026-04-19T18:13:39.999Z</time></trkpt><trkpt lat="45.620265651024255" lon="9.371597542856303"><ele>199.0</ele><time>2026-04-19T18:13:41.999Z</time></trkpt><trkpt lat="45.620275989239516" lon="9.371439755080848"><ele>198.99999999999997</ele><time>2026-04-19T18:13:43.999Z</time></trkpt><trkpt lat="45.6202737044301" lon="9.371315843486478"><ele>199.0</ele><time>2026-04-19T18:13:45.999Z</time></trkpt><trkpt lat="45.62024526265743" lon="9.371197982984038"><ele>198.99999999999997</ele><time>2026-04-19T18:13:47.999Z</time></trkpt><trkpt lat="45.62023653802841" lon="9.371072719525916"><ele>199.0</ele><time>2026-04-19T18:13:49.999Z</time></trkpt><trkpt lat="45.62022128581279" lon="9.370955898630267"><ele>199.0</ele><time>2026-04-19T18:13:51.999Z</time></trkpt><trkpt lat="45.620215676115315" lon="9.370847775702552"><ele>199.0</ele><time>2026-04-19T18:13:53.999Z</time></trkpt><trkpt lat="45.620202894310566" lon="9.3707435547818"><ele>198.99999999999997</ele><time>2026-04-19T18:13:55.999Z</time></trkpt><trkpt lat="45.6201891810964" lon="9.37064959355434"><ele>199.0</ele><time>2026-04-19T18:13:57.999Z</time></trkpt><trkpt lat="45.62026670724749" lon="9.370570561064314"><ele>199.0</ele><time>2026-04-19T18:14:02Z</time></trkpt><trkpt lat="45.620356633573564" lon="9.37054155377504"><ele>199.0</ele><time>2026-04-19T18:14:05Z</time></trkpt><trkpt lat="45.62044270969751" lon="9.370523768424622"><ele>199.0</ele><time>2026-04-19T18:14:07Z</time></trkpt><trkpt lat="45.62052738290224" lon="9.370501883304094"><ele>199.0</ele><time>2026-04-19T18:14:09Z</time></trkpt><trkpt lat="45.62061711298457" lon="9.370477321696173"><ele>199.0</ele><time>2026-04-19T18:14:11Z</time></trkpt><trkpt lat="45.62071978174325" lon="9.370451605446751"><ele>198.79999999999998</ele><time>2026-04-19T18:14:13Z</time></trkpt><trkpt lat="45.62082367169357" lon="9.370433446819"><ele>198.6</ele><time>2026-04-19T18:14:15Z</time></trkpt><trkpt lat="45.62093087624868" lon="9.370407459418479"><ele>198.4</ele><time>2026-04-19T18:14:17Z</time></trkpt><trkpt lat="45.62104056045108" lon="9.370385661657634"><ele>198.2</ele><time>2026-04-19T18:14:19Z</time></trkpt><trkpt lat="45.62115028342712" lon="9.370361315330154"><ele>198.0</ele><time>2026-04-19T18:14:21Z</time></trkpt><trkpt lat="45.62126140314621" lon="9.370342845154404"><ele>198.5</ele><time>2026-04-19T18:14:23Z</time></trkpt><trkpt lat="45.621375203055514" lon="9.370317846217846"><ele>199.0</ele><time>2026-04-19T18:14:25Z</time></trkpt><trkpt lat="45.62148829266227" lon="9.37029581681747"><ele>199.5</ele><time>2026-04-19T18:14:27Z</time></trkpt><trkpt lat="45.62160344129471" lon="9.370280591832298"><ele>200.0</ele><time>2026-04-19T18:14:29Z</time></trkpt><trkpt lat="45.62171734726463" lon="9.370264897901368"><ele>200.0</ele><time>2026-04-19T18:14:31Z</time></trkpt><trkpt lat="45.62183045901808" lon="9.370235700463196"><ele>200.0</ele><time>2026-04-19T18:14:33Z</time></trkpt><trkpt lat="45.62194232346614" lon="9.37021508747714"><ele>200.0</ele><time>2026-04-19T18:14:35Z</time></trkpt><trkpt lat="45.62206137975188" lon="9.37018471009944"><ele>200.0</ele><time>2026-04-19T18:14:37Z</time></trkpt><trkpt lat="45.62217390539866" lon="9.37015971259074"><ele>200.0</ele><time>2026-04-19T18:14:39Z</time></trkpt><trkpt lat="45.62223630459817" lon="9.370147073599973"><ele>200.0</ele><time>2026-04-19T18:14:40Z</time></trkpt><trkpt lat="45.62234431530535" lon="9.370121503896554"><ele>200.0</ele><time>2026-04-19T18:14:42Z</time></trkpt><trkpt lat="45.62244266099805" lon="9.370097555572972"><ele>200.0</ele><time>2026-04-19T18:14:44Z</time></trkpt><trkpt lat="45.62254954992959" lon="9.370067789917291"><ele>200.0</ele><time>2026-04-19T18:14:46Z</time></trkpt><trkpt lat="45.622658406927464" lon="9.370045537963358"><ele>200.0</ele><time>2026-04-19T18:14:48Z</time></trkpt><trkpt lat="45.62276175753959" lon="9.370019783059293"><ele>200.0</ele><time>2026-04-19T18:14:50Z</time></trkpt><trkpt lat="45.622864345105135" lon="9.369996129672005"><ele>200.0</ele><time>2026-04-19T18:14:52Z</time></trkpt><trkpt lat="45.62297107741191" lon="9.36997313806065"><ele>200.0</ele><time>2026-04-19T18:14:54Z</time></trkpt><trkpt lat="45.62307355629302" lon="9.369950764519912"><ele>200.0</ele><time>2026-04-19T18:14:56Z</time></trkpt><trkpt lat="45.62318262347992" lon="9.369915735197127"><ele>200.6</ele><time>2026-04-19T18:14:58Z</time></trkpt><trkpt lat="45.623287976232646" lon="9.369888090651141"><ele>201.2</ele><time>2026-04-19T18:15:00Z</time></trkpt><trkpt lat="45.623387626137394" lon="9.369866515434767"><ele>201.8</ele><time>2026-04-19T18:15:02Z</time></trkpt><trkpt lat="45.62347292787308" lon="9.369849951009277"><ele>202.4</ele><time>2026-04-19T18:15:04Z</time></trkpt><trkpt lat="45.62356466993932" lon="9.369841831170643"><ele>203.0</ele><time>2026-04-19T18:15:06Z</time></trkpt><trkpt lat="45.62365427516464" lon="9.369812427891297"><ele>203.0</ele><time>2026-04-19T18:15:08Z</time></trkpt><trkpt lat="45.623756651151844" lon="9.369797377073132"><ele>203.0</ele><time>2026-04-19T18:15:10Z</time></trkpt><trkpt lat="45.62385936434387" lon="9.369769472012814"><ele>203.0</ele><time>2026-04-19T18:15:12Z</time></trkpt><trkpt lat="45.623968492247776" lon="9.369752054624364"><ele>203.0</ele><time>2026-04-19T18:15:14Z</time></trkpt><trkpt lat="45.624077971683576" lon="9.369735642112548"><ele>203.0</ele><time>2026-04-19T18:15:16Z</time></trkpt><trkpt lat="45.624185501285154" lon="9.369708370105611"><ele>203.0</ele><time>2026-04-19T18:15:18Z</time></trkpt><trkpt lat="45.62430238944254" lon="9.369694627810924"><ele>203.0</ele><time>2026-04-19T18:15:19.999Z</time></trkpt><trkpt lat="45.6244053257145" lon="9.36967445213262"><ele>203.0</ele><time>2026-04-19T18:15:21.999Z</time></trkpt><trkpt lat="45.62450013304502" lon="9.369670068897985"><ele>203.0</ele><time>2026-04-19T18:15:23.999Z</time></trkpt><trkpt lat="45.62459661440448" lon="9.369643273641103"><ele>203.0</ele><time>2026-04-19T18:15:25.999Z</time></trkpt><trkpt lat="45.6246977379599" lon="9.369616490208545"><ele>203.2</ele><time>2026-04-19T18:15:27.999Z</time></trkpt><trkpt lat="45.624812044398304" lon="9.369596268997425"><ele>203.4</ele><time>2026-04-19T18:15:29.999Z</time></trkpt><trkpt lat="45.624918880093524" lon="9.36957954429115"><ele>203.6</ele><time>2026-04-19T18:15:31.999Z</time></trkpt><trkpt lat="45.62503159235423" lon="9.369554385749296"><ele>203.79999999999998</ele><time>2026-04-19T18:15:33.999Z</time></trkpt><trkpt lat="45.625135543956915" lon="9.369532567568024"><ele>204.0</ele><time>2026-04-19T18:15:35.999Z</time></trkpt><trkpt lat="45.62524589502262" lon="9.36951205567913"><ele>204.25</ele><time>2026-04-19T18:15:37.999Z</time></trkpt><trkpt lat="45.62535673149116" lon="9.369485085279111"><ele>204.5</ele><time>2026-04-19T18:15:39.999Z</time></trkpt><trkpt lat="45.625470503274855" lon="9.369461372903514"><ele>204.75</ele><time>2026-04-19T18:15:41.999Z</time></trkpt><trkpt lat="45.62558838637044" lon="9.369437321778275"><ele>205.0</ele><time>2026-04-19T18:15:43.999Z</time></trkpt><trkpt lat="45.625699080074696" lon="9.369410939600773"><ele>205.0</ele><time>2026-04-19T18:15:45.999Z</time></trkpt><trkpt lat="45.62581303828069" lon="9.369384211976021"><ele>205.0</ele><time>2026-04-19T18:15:47.999Z</time></trkpt><trkpt lat="45.62592713491042" lon="9.36935781659534"><ele>205.0</ele><time>2026-04-19T18:15:49.999Z</time></trkpt><trkpt lat="45.626039788666915" lon="9.369330963736102"><ele>205.0</ele><time>2026-04-19T18:15:51.999Z</time></trkpt><trkpt lat="45.62614403833396" lon="9.369306932425221"><ele>205.0</ele><time>2026-04-19T18:15:53.999Z</time></trkpt><trkpt lat="45.62625493116821" lon="9.369287713788282"><ele>205.0</ele><time>2026-04-19T18:15:55.999Z</time></trkpt><trkpt lat="45.626349741906516" lon="9.369269112958175"><ele>205.0</ele><time>2026-04-19T18:15:57.999Z</time></trkpt><trkpt lat="45.62645019018148" lon="9.369246897700204"><ele>205.0</ele><time>2026-04-19T18:15:59.999Z</time></trkpt><trkpt lat="45.626554558302736" lon="9.369229026989634"><ele>205.0</ele><time>2026-04-19T18:16:01.999Z</time></trkpt><trkpt lat="45.62665988800353" lon="9.369213966167642"><ele>205.0</ele><time>2026-04-19T18:16:03.999Z</time></trkpt><trkpt lat="45.6267578080769" lon="9.369192802896235"><ele>205.0</ele><time>2026-04-19T18:16:05.999Z</time></trkpt><trkpt lat="45.62686615934114" lon="9.369168000242963"><ele>205.0</ele><time>2026-04-19T18:16:08Z</time></trkpt><trkpt lat="45.626965517975556" lon="9.369144318682801"><ele>205.0</ele><time>2026-04-19T18:16:10Z</time></trkpt><trkpt lat="45.627070879141534" lon="9.369119416577423"><ele>205.0</ele><time>2026-04-19T18:16:12Z</time></trkpt><trkpt lat="45.62717018796068" lon="9.369085442372699"><ele>205.2</ele><time>2026-04-19T18:16:14Z</time></trkpt><trkpt lat="45.62728142888486" lon="9.369065883245652"><ele>205.4</ele><time>2026-04-19T18:16:16Z</time></trkpt><trkpt lat="45.62738740139025" lon="9.36904162462873"><ele>205.60000000000002</ele><time>2026-04-19T18:16:18Z</time></trkpt><trkpt lat="45.62749717778933" lon="9.36901314354254"><ele>205.8</ele><time>2026-04-19T18:16:20Z</time></trkpt><trkpt lat="45.62760581571118" lon="9.368992798523253"><ele>206.0</ele><time>2026-04-19T18:16:22Z</time></trkpt><trkpt lat="45.62771059510363" lon="9.368957633104184"><ele>206.0</ele><time>2026-04-19T18:16:24Z</time></trkpt><trkpt lat="45.62781562151653" lon="9.368931424029618"><ele>206.0</ele><time>2026-04-19T18:16:26Z</time></trkpt><trkpt lat="45.62792451559975" lon="9.368915898759534"><ele>206.0</ele><time>2026-04-19T18:16:28Z</time></trkpt><trkpt lat="45.6280350848284" lon="9.368890891735992"><ele>206.0</ele><time>2026-04-19T18:16:30Z</time></trkpt><trkpt lat="45.62814808084075" lon="9.368866388284754"><ele>206.0</ele><time>2026-04-19T18:16:32Z</time></trkpt><trkpt lat="45.628252543750655" lon="9.368836057979953"><ele>206.20000000000002</ele><time>2026-04-19T18:16:34Z</time></trkpt><trkpt lat="45.628356358397035" lon="9.36881723506796"><ele>206.4</ele><time>2026-04-19T18:16:36Z</time></trkpt><trkpt lat="45.628468224101" lon="9.368786366462503"><ele>206.6</ele><time>2026-04-19T18:16:38Z</time></trkpt><trkpt lat="45.628571845745476" lon="9.368784212811589"><ele>206.8</ele><time>2026-04-19T18:16:40Z</time></trkpt><trkpt lat="45.628674276288706" lon="9.36876210163585"><ele>207.0</ele><time>2026-04-19T18:16:42Z</time></trkpt><trkpt lat="45.628782849966825" lon="9.368747472413064"><ele>206.6</ele><time>2026-04-19T18:16:44Z</time></trkpt><trkpt lat="45.628883800573774" lon="9.368726549792457"><ele>206.2</ele><time>2026-04-19T18:16:46Z</time></trkpt><trkpt lat="45.6290024022283" lon="9.368710975254851"><ele>205.8</ele><time>2026-04-19T18:16:48Z</time></trkpt><trkpt lat="45.629108555216" lon="9.368713972315964"><ele>205.4</ele><time>2026-04-19T18:16:50Z</time></trkpt><trkpt lat="45.629223819188645" lon="9.36871946032256"><ele>205.0</ele><time>2026-04-19T18:16:52Z</time></trkpt><trkpt lat="45.62933678090464" lon="9.368727229920188"><ele>205.0</ele><time>2026-04-19T18:16:54Z</time></trkpt><trkpt lat="45.629453106241954" lon="9.3687404947087"><ele>205.0</ele><time>2026-04-19T18:16:56Z</time></trkpt><trkpt lat="45.62957148600836" lon="9.368759879631643"><ele>205.0</ele><time>2026-04-19T18:16:58Z</time></trkpt><trkpt lat="45.629688918818715" lon="9.36877891874222"><ele>205.0</ele><time>2026-04-19T18:17:00Z</time></trkpt><trkpt lat="45.62980910676035" lon="9.368793480112757"><ele>205.25</ele><time>2026-04-19T18:17:02Z</time></trkpt><trkpt lat="45.629923720895924" lon="9.36879947726333"><ele>205.5</ele><time>2026-04-19T18:17:04Z</time></trkpt><trkpt lat="45.630031619773554" lon="9.368799805979188"><ele>205.75</ele><time>2026-04-19T18:17:06Z</time></trkpt><trkpt lat="45.630141838997126" lon="9.368788719299006"><ele>206.0</ele><time>2026-04-19T18:17:08Z</time></trkpt><trkpt lat="45.630257305990874" lon="9.368765187183733"><ele>206.25</ele><time>2026-04-19T18:17:10Z</time></trkpt><trkpt lat="45.630370255125975" lon="9.368741820259462"><ele>206.5</ele><time>2026-04-19T18:17:12Z</time></trkpt><trkpt lat="45.630487351027995" lon="9.368711054894533"><ele>206.75</ele><time>2026-04-19T18:17:14Z</time></trkpt><trkpt lat="45.63060673121464" lon="9.36868154548939"><ele>207.0</ele><time>2026-04-19T18:17:16Z</time></trkpt><trkpt lat="45.6307235744109" lon="9.368645371476408"><ele>207.0</ele><time>2026-04-19T18:17:18Z</time></trkpt><trkpt lat="45.630841518962804" lon="9.368621975896238"><ele>207.0</ele><time>2026-04-19T18:17:20Z</time></trkpt><trkpt lat="45.63095705830777" lon="9.368587925027265"><ele>207.0</ele><time>2026-04-19T18:17:21.999Z</time></trkpt><trkpt lat="45.63106740089214" lon="9.368549678078992"><ele>207.0</ele><time>2026-04-19T18:17:23.999Z</time></trkpt><trkpt lat="45.63118265980227" lon="9.36851937737743"><ele>207.2</ele><time>2026-04-19T18:17:25.999Z</time></trkpt><trkpt lat="45.63129454672672" lon="9.368478048131935"><ele>207.39999999999998</ele><time>2026-04-19T18:17:27.999Z</time></trkpt><trkpt lat="45.63139645651657" lon="9.368440097102162"><ele>207.60000000000002</ele><time>2026-04-19T18:17:29.999Z</time></trkpt><trkpt lat="45.631497056153606" lon="9.36838411314838"><ele>207.8</ele><time>2026-04-19T18:17:31.999Z</time></trkpt><trkpt lat="45.6316026378875" lon="9.368324724200834"><ele>208.0</ele><time>2026-04-19T18:17:33.999Z</time></trkpt><trkpt lat="45.63171221877993" lon="9.368265460980925"><ele>208.0</ele><time>2026-04-19T18:17:35.999Z</time></trkpt><trkpt lat="45.631823762755914" lon="9.368205257924327"><ele>208.0</ele><time>2026-04-19T18:17:37.999Z</time></trkpt><trkpt lat="45.631934800757826" lon="9.3681383820362"><ele>208.0</ele><time>2026-04-19T18:17:39.999Z</time></trkpt><trkpt lat="45.6320448141317" lon="9.36807667137126"><ele>208.0</ele><time>2026-04-19T18:17:41.999Z</time></trkpt><trkpt lat="45.63215934376192" lon="9.368022161595466"><ele>208.0</ele><time>2026-04-19T18:17:43.999Z</time></trkpt><trkpt lat="45.63227331625917" lon="9.36795953071551"><ele>208.0</ele><time>2026-04-19T18:17:45.999Z</time></trkpt><trkpt lat="45.632382859204924" lon="9.367897641987172"><ele>208.0</ele><time>2026-04-19T18:17:47.999Z</time></trkpt><trkpt lat="45.6324957442462" lon="9.36782918771124"><ele>208.0</ele><time>2026-04-19T18:17:49.999Z</time></trkpt><trkpt lat="45.63260452260602" lon="9.36781623413695"><ele>208.0</ele><time>2026-04-19T18:17:51.999Z</time></trkpt><trkpt lat="45.63265613003139" lon="9.367760320246509"><ele>208.0</ele><time>2026-04-19T18:17:52.999Z</time></trkpt><trkpt lat="45.63276738675432" lon="9.36769401388792"><ele>208.0</ele><time>2026-04-19T18:17:54.999Z</time></trkpt><trkpt lat="45.63287992399388" lon="9.367633223991994"><ele>208.0</ele><time>2026-04-19T18:17:56.999Z</time></trkpt><trkpt lat="45.63298997311349" lon="9.36756908286946"><ele>208.0</ele><time>2026-04-19T18:17:58.999Z</time></trkpt><trkpt lat="45.63309117391228" lon="9.36751587755842"><ele>207.8</ele><time>2026-04-19T18:18:00.999Z</time></trkpt><trkpt lat="45.633161470090045" lon="9.36750166191472"><ele>207.60000000000002</ele><time>2026-04-19T18:18:01.999Z</time></trkpt><trkpt lat="45.63326814136232" lon="9.36752933566345"><ele>207.39999999999998</ele><time>2026-04-19T18:18:03.999Z</time></trkpt><trkpt lat="45.63334892077055" lon="9.36741468901283"><ele>207.2</ele><time>2026-04-19T18:18:05.999Z</time></trkpt><trkpt lat="45.63343754130234" lon="9.3673303472132"><ele>207.0</ele><time>2026-04-19T18:18:07.999Z</time></trkpt><trkpt lat="45.633539597428786" lon="9.367257774601166"><ele>208.25</ele><time>2026-04-19T18:18:09.999Z</time></trkpt><trkpt lat="45.63364766095253" lon="9.36719278139697"><ele>209.5</ele><time>2026-04-19T18:18:11.999Z</time></trkpt><trkpt lat="45.63375513269964" lon="9.36712846852298"><ele>210.75</ele><time>2026-04-19T18:18:14Z</time></trkpt><trkpt lat="45.63386221828011" lon="9.367061143587174"><ele>212.0</ele><time>2026-04-19T18:18:16Z</time></trkpt><trkpt lat="45.63396958698602" lon="9.366991807094871"><ele>212.0</ele><time>2026-04-19T18:18:18Z</time></trkpt><trkpt lat="45.63407853456787" lon="9.366926040005524"><ele>212.0</ele><time>2026-04-19T18:18:20Z</time></trkpt><trkpt lat="45.63418528238889" lon="9.36685803077756"><ele>212.0</ele><time>2026-04-19T18:18:22Z</time></trkpt><trkpt lat="45.63429342330055" lon="9.36679176249871"><ele>212.0</ele><time>2026-04-19T18:18:24Z</time></trkpt><trkpt lat="45.634402063811116" lon="9.366719249966982"><ele>211.6</ele><time>2026-04-19T18:18:26Z</time></trkpt><trkpt lat="45.634509021465355" lon="9.36665661599189"><ele>211.2</ele><time>2026-04-19T18:18:28Z</time></trkpt><trkpt lat="45.63461574139224" lon="9.366590698079781"><ele>210.8</ele><time>2026-04-19T18:18:30Z</time></trkpt><trkpt lat="45.63472430162697" lon="9.366522595012784"><ele>210.4</ele><time>2026-04-19T18:18:32Z</time></trkpt><trkpt lat="45.6347832056331" lon="9.366486624702894"><ele>210.0</ele><time>2026-04-19T18:18:33Z</time></trkpt><trkpt lat="45.634893494803116" lon="9.366420339151043"><ele>210.0</ele><time>2026-04-19T18:18:35Z</time></trkpt><trkpt lat="45.63500563041636" lon="9.366355407240087"><ele>210.0</ele><time>2026-04-19T18:18:37Z</time></trkpt><trkpt lat="45.635115033063045" lon="9.366291968978842"><ele>210.0</ele><time>2026-04-19T18:18:39Z</time></trkpt><trkpt lat="45.63523013550207" lon="9.366222130197494"><ele>210.0</ele><time>2026-04-19T18:18:41Z</time></trkpt><trkpt lat="45.635334410446255" lon="9.366159346598304"><ele>210.0</ele><time>2026-04-19T18:18:43Z</time></trkpt><trkpt lat="45.63544641352725" lon="9.366095361218331"><ele>210.0</ele><time>2026-04-19T18:18:45Z</time></trkpt><trkpt lat="45.635559279877214" lon="9.366033994506804"><ele>210.0</ele><time>2026-04-19T18:18:47Z</time></trkpt><trkpt lat="45.635656843427824" lon="9.365949123435469"><ele>210.0</ele><time>2026-04-19T18:18:49Z</time></trkpt><trkpt lat="45.63576880016066" lon="9.365901724470302"><ele>210.0</ele><time>2026-04-19T18:18:51Z</time></trkpt><trkpt lat="45.63587058677027" lon="9.365824155782589"><ele>210.0</ele><time>2026-04-19T18:18:53Z</time></trkpt><trkpt lat="45.63597823261307" lon="9.365774381814546"><ele>210.0</ele><time>2026-04-19T18:18:55Z</time></trkpt><trkpt lat="45.63609013616668" lon="9.365706420075092"><ele>210.0</ele><time>2026-04-19T18:18:57Z</time></trkpt><trkpt lat="45.6361916715343" lon="9.365623542001643"><ele>210.0</ele><time>2026-04-19T18:18:59Z</time></trkpt><trkpt lat="45.636298880936856" lon="9.36553336502745"><ele>210.0</ele><time>2026-04-19T18:19:01Z</time></trkpt><trkpt lat="45.636397880049024" lon="9.3654491509965"><ele>210.0</ele><time>2026-04-19T18:19:03Z</time></trkpt><trkpt lat="45.63649776012242" lon="9.365358240124452"><ele>210.0</ele><time>2026-04-19T18:19:05Z</time></trkpt><trkpt lat="45.636602235334685" lon="9.365271661398483"><ele>210.0</ele><time>2026-04-19T18:19:07Z</time></trkpt><trkpt lat="45.63670950367612" lon="9.365185512583713"><ele>210.0</ele><time>2026-04-19T18:19:09Z</time></trkpt><trkpt lat="45.63681410176817" lon="9.365113934788596"><ele>210.0</ele><time>2026-04-19T18:19:11Z</time></trkpt><trkpt lat="45.63691331000838" lon="9.365055071112252"><ele>210.0</ele><time>2026-04-19T18:19:13Z</time></trkpt><trkpt lat="45.637008458077865" lon="9.365006134345643"><ele>210.0</ele><time>2026-04-19T18:19:15Z</time></trkpt><trkpt lat="45.63710224302801" lon="9.364954343231332"><ele>210.2</ele><time>2026-04-19T18:19:17Z</time></trkpt><trkpt lat="45.63720133106076" lon="9.364900508860783"><ele>210.4</ele><time>2026-04-19T18:19:19Z</time></trkpt><trkpt lat="45.63730937334737" lon="9.364848322910035"><ele>210.60000000000002</ele><time>2026-04-19T18:19:20.999Z</time></trkpt><trkpt lat="45.637416495415245" lon="9.364801364298273"><ele>210.8</ele><time>2026-04-19T18:19:22.999Z</time></trkpt><trkpt lat="45.637529505897106" lon="9.364770738242328"><ele>211.0</ele><time>2026-04-19T18:19:24.999Z</time></trkpt><trkpt lat="45.63764084473454" lon="9.36473731954184"><ele>211.0</ele><time>2026-04-19T18:19:26.999Z</time></trkpt><trkpt lat="45.63774239791402" lon="9.364709692604325"><ele>211.0</ele><time>2026-04-19T18:19:28.999Z</time></trkpt><trkpt lat="45.637849890248205" lon="9.364682171064196"><ele>211.0</ele><time>2026-04-19T18:19:30.999Z</time></trkpt><trkpt lat="45.63795950037459" lon="9.364651219225717"><ele>211.0</ele><time>2026-04-19T18:19:32.999Z</time></trkpt><trkpt lat="45.63806258747236" lon="9.364631140543711"><ele>211.0</ele><time>2026-04-19T18:19:34.999Z</time></trkpt><trkpt lat="45.638157648927844" lon="9.364607274749059"><ele>211.0</ele><time>2026-04-19T18:19:36.999Z</time></trkpt><trkpt lat="45.638259028287905" lon="9.36458177768305"><ele>211.0</ele><time>2026-04-19T18:19:38.999Z</time></trkpt><trkpt lat="45.63835734803317" lon="9.364559912280185"><ele>211.0</ele><time>2026-04-19T18:19:40.999Z</time></trkpt><trkpt lat="45.63845277335151" lon="9.364557767907261"><ele>211.0</ele><time>2026-04-19T18:19:42.999Z</time></trkpt><trkpt lat="45.63855039692003" lon="9.364537860351302"><ele>211.0</ele><time>2026-04-19T18:19:44.999Z</time></trkpt><trkpt lat="45.63865663682653" lon="9.364563010503357"><ele>211.0</ele><time>2026-04-19T18:19:46.999Z</time></trkpt><trkpt lat="45.63876775213561" lon="9.364586286379284"><ele>211.0</ele><time>2026-04-19T18:19:48.999Z</time></trkpt><trkpt lat="45.63884925120113" lon="9.364600739731346"><ele>211.0</ele><time>2026-04-19T18:19:50.999Z</time></trkpt><trkpt lat="45.638837094829526" lon="9.36480960460263"><ele>211.0</ele><time>2026-04-19T18:19:51.999Z</time></trkpt><trkpt lat="45.6388370834027" lon="9.364900636489326"><ele>211.0</ele><time>2026-04-19T18:19:52.999Z</time></trkpt><trkpt lat="45.63884626676141" lon="9.364994289006104"><ele>210.99999999999997</ele><time>2026-04-19T18:19:53.999Z</time></trkpt><trkpt lat="45.63886344263348" lon="9.36508399089363"><ele>211.0</ele><time>2026-04-19T18:19:54.999Z</time></trkpt><trkpt lat="45.638876016647984" lon="9.365174110328216"><ele>211.0</ele><time>2026-04-19T18:19:55.999Z</time></trkpt><trkpt lat="45.6388888094222" lon="9.365263609007664"><ele>211.0</ele><time>2026-04-19T18:19:56.999Z</time></trkpt><trkpt lat="45.63889920354149" lon="9.36545093249125"><ele>210.99999999999997</ele><time>2026-04-19T18:19:58.999Z</time></trkpt><trkpt lat="45.63893663288979" lon="9.365621393969326"><ele>211.0</ele><time>2026-04-19T18:20:00.999Z</time></trkpt><trkpt lat="45.63897405140243" lon="9.365784501847257"><ele>210.75</ele><time>2026-04-19T18:20:02.999Z</time></trkpt><trkpt lat="45.639009934973664" lon="9.36595423076697"><ele>210.5</ele><time>2026-04-19T18:20:04.999Z</time></trkpt><trkpt lat="45.639036735478534" lon="9.366107064137092"><ele>210.25</ele><time>2026-04-19T18:20:06.999Z</time></trkpt><trkpt lat="45.639063957384884" lon="9.3662582000931"><ele>210.0</ele><time>2026-04-19T18:20:08.999Z</time></trkpt><trkpt lat="45.63909570027179" lon="9.36641399858352"><ele>210.0</ele><time>2026-04-19T18:20:10.999Z</time></trkpt><trkpt lat="45.63911762969616" lon="9.366573693567513"><ele>210.0</ele><time>2026-04-19T18:20:12.999Z</time></trkpt><trkpt lat="45.63914090875267" lon="9.366733725816898"><ele>210.0</ele><time>2026-04-19T18:20:14.999Z</time></trkpt><trkpt lat="45.63915829095316" lon="9.366886828948607"><ele>210.0</ele><time>2026-04-19T18:20:16.999Z</time></trkpt><trkpt lat="45.639180479494904" lon="9.367025147328214"><ele>210.0</ele><time>2026-04-19T18:20:19Z</time></trkpt><trkpt lat="45.63918012726241" lon="9.367159440350855"><ele>210.16666666666666</ele><time>2026-04-19T18:20:21Z</time></trkpt><trkpt lat="45.63918692662764" lon="9.36728994141067"><ele>210.33333333333331</ele><time>2026-04-19T18:20:23Z</time></trkpt><trkpt lat="45.63920838806278" lon="9.367414702737745"><ele>210.5</ele><time>2026-04-19T18:20:25Z</time></trkpt><trkpt lat="45.6392202981888" lon="9.367540017064004"><ele>210.66666666666666</ele><time>2026-04-19T18:20:27Z</time></trkpt><trkpt lat="45.639214343356386" lon="9.367663917928077"><ele>210.83333333333331</ele><time>2026-04-19T18:20:29Z</time></trkpt><trkpt lat="45.63922908073698" lon="9.367787897424401"><ele>211.0</ele><time>2026-04-19T18:20:31Z</time></trkpt><trkpt lat="45.63924594346417" lon="9.367885409328327"><ele>211.0</ele><time>2026-04-19T18:20:33Z</time></trkpt><trkpt lat="45.63941268418465" lon="9.36782883187423"><ele>211.0</ele><time>2026-04-19T18:20:35Z</time></trkpt><trkpt lat="45.63950950732536" lon="9.367802530977174"><ele>211.0</ele><time>2026-04-19T18:20:37Z</time></trkpt><trkpt lat="45.63960757610225" lon="9.367816887100135"><ele>211.0</ele><time>2026-04-19T18:20:39Z</time></trkpt><trkpt lat="45.63970004550989" lon="9.367814615533328"><ele>210.60000000000002</ele><time>2026-04-19T18:20:41Z</time></trkpt><trkpt lat="45.63978915694439" lon="9.367813259814271"><ele>210.2</ele><time>2026-04-19T18:20:43Z</time></trkpt><trkpt lat="45.63988348942446" lon="9.36779338818669"><ele>209.8</ele><time>2026-04-19T18:20:45Z</time></trkpt><trkpt lat="45.6399774920815" lon="9.367800553338888"><ele>209.39999999999998</ele><time>2026-04-19T18:20:47Z</time></trkpt><trkpt lat="45.64007002849355" lon="9.367791093942385"><ele>209.0</ele><time>2026-04-19T18:20:49Z</time></trkpt><trkpt lat="45.64015575071608" lon="9.367793924987996"><ele>209.00000000000003</ele><time>2026-04-19T18:20:51Z</time></trkpt><trkpt lat="45.640233699675164" lon="9.367803886783527"><ele>209.0</ele><time>2026-04-19T18:20:53Z</time></trkpt><trkpt lat="45.64032077048626" lon="9.367806868562187"><ele>209.0</ele><time>2026-04-19T18:20:55Z</time></trkpt><trkpt lat="45.64039870923812" lon="9.367824361757508"><ele>209.0</ele><time>2026-04-19T18:20:57Z</time></trkpt><trkpt lat="45.64047057827107" lon="9.36783885165432"><ele>209.00000000000003</ele><time>2026-04-19T18:20:59Z</time></trkpt><trkpt lat="45.64056930645657" lon="9.36782816131601"><ele>209.0</ele><time>2026-04-19T18:21:02Z</time></trkpt><trkpt lat="45.640651577669814" lon="9.367816810908913"><ele>209.0</ele><time>2026-04-19T18:21:04Z</time></trkpt><trkpt lat="45.64074109709764" lon="9.367816706115429"><ele>209.0</ele><time>2026-04-19T18:21:06Z</time></trkpt><trkpt lat="45.64083426245766" lon="9.367847945343925"><ele>209.0</ele><time>2026-04-19T18:21:08Z</time></trkpt><trkpt lat="45.64092689884821" lon="9.367832355498969"><ele>209.0</ele><time>2026-04-19T18:21:10Z</time></trkpt><trkpt lat="45.64101974809437" lon="9.367837163023001"><ele>209.0</ele><time>2026-04-19T18:21:12Z</time></trkpt><trkpt lat="45.641118221018786" lon="9.3678049735767"><ele>209.39999999999998</ele><time>2026-04-19T18:21:14Z</time></trkpt><trkpt lat="45.641221704409006" lon="9.36780131999231"><ele>209.8</ele><time>2026-04-19T18:21:16Z</time></trkpt><trkpt lat="45.64132389448507" lon="9.367798473473377"><ele>210.2</ele><time>2026-04-19T18:21:18Z</time></trkpt><trkpt lat="45.64142801568442" lon="9.367797939484612"><ele>210.60000000000002</ele><time>2026-04-19T18:21:20Z</time></trkpt><trkpt lat="45.641532327948546" lon="9.367807228758577"><ele>211.0</ele><time>2026-04-19T18:21:21.999Z</time></trkpt><trkpt lat="45.64162880327007" lon="9.36780060288794"><ele>211.0</ele><time>2026-04-19T18:21:23.999Z</time></trkpt><trkpt lat="45.64169555648062" lon="9.367818199937696"><ele>211.0</ele><time>2026-04-19T18:21:25.999Z</time></trkpt><trkpt lat="45.64172219270172" lon="9.368082377028555"><ele>211.0</ele><time>2026-04-19T18:21:26.999Z</time></trkpt><trkpt lat="45.64173675678907" lon="9.368170929804258"><ele>211.0</ele><time>2026-04-19T18:21:27.999Z</time></trkpt><trkpt lat="45.64175753838522" lon="9.368326792281103"><ele>211.0</ele><time>2026-04-19T18:21:29.999Z</time></trkpt><trkpt lat="45.64177540655904" lon="9.368413205483051"><ele>211.0</ele><time>2026-04-19T18:21:30.999Z</time></trkpt><trkpt lat="45.64180467090073" lon="9.368567646208163"><ele>211.0</ele><time>2026-04-19T18:21:32.999Z</time></trkpt><trkpt lat="45.64184289178816" lon="9.368727642114113"><ele>211.0</ele><time>2026-04-19T18:21:34.999Z</time></trkpt><trkpt lat="45.64189116542411" lon="9.368859093203415"><ele>211.0</ele><time>2026-04-19T18:21:36.999Z</time></trkpt><trkpt lat="45.6419436146128" lon="9.368985176062923"><ele>211.0</ele><time>2026-04-19T18:21:38.999Z</time></trkpt><trkpt lat="45.64200126069981" lon="9.369082589331422"><ele>210.8</ele><time>2026-04-19T18:21:40.999Z</time></trkpt><trkpt lat="45.64207442306182" lon="9.369195343952"><ele>210.60000000000002</ele><time>2026-04-19T18:21:42.999Z</time></trkpt><trkpt lat="45.64216173715584" lon="9.369267130080292"><ele>210.4</ele><time>2026-04-19T18:21:44.999Z</time></trkpt><trkpt lat="45.642256017990896" lon="9.369307227312998"><ele>210.2</ele><time>2026-04-19T18:21:46.999Z</time></trkpt><trkpt lat="45.642357560901644" lon="9.369288511158883"><ele>210.0</ele><time>2026-04-19T18:21:48.999Z</time></trkpt><trkpt lat="45.64246001661613" lon="9.369240445068362"><ele>210.0</ele><time>2026-04-19T18:21:50.999Z</time></trkpt><trkpt lat="45.64251201558924" lon="9.369117260373313"><ele>210.0</ele><time>2026-04-19T18:21:52.999Z</time></trkpt><trkpt lat="45.64258756892706" lon="9.369041817208629"><ele>210.0</ele><time>2026-04-19T18:21:54.999Z</time></trkpt><trkpt lat="45.64266097717916" lon="9.368999933085865"><ele>210.0</ele><time>2026-04-19T18:21:56.999Z</time></trkpt><trkpt lat="45.64278746878029" lon="9.36898388210645"><ele>210.0</ele><time>2026-04-19T18:21:58.999Z</time></trkpt><trkpt lat="45.64288653476006" lon="9.369065063606412"><ele>211.0</ele><time>2026-04-19T18:22:00.999Z</time></trkpt><trkpt lat="45.64298846795697" lon="9.369154627297837"><ele>212.0</ele><time>2026-04-19T18:22:02.999Z</time></trkpt><trkpt lat="45.643088412969576" lon="9.369251166802792"><ele>213.0</ele><time>2026-04-19T18:22:04.999Z</time></trkpt><trkpt lat="45.64319178601108" lon="9.369344993573561"><ele>214.0</ele><time>2026-04-19T18:22:06.999Z</time></trkpt><trkpt lat="45.64329419114113" lon="9.369443511181451"><ele>214.00000000000003</ele><time>2026-04-19T18:22:08.999Z</time></trkpt><trkpt lat="45.64334348390742" lon="9.3695035535327"><ele>214.0</ele><time>2026-04-19T18:22:09.999Z</time></trkpt><trkpt lat="45.64339408558338" lon="9.369565437498753"><ele>214.0</ele><time>2026-04-19T18:22:10.999Z</time></trkpt><trkpt lat="45.643442079361" lon="9.369631128995728"><ele>214.0</ele><time>2026-04-19T18:22:11.999Z</time></trkpt><trkpt lat="45.643488271475505" lon="9.369707768549263"><ele>214.0</ele><time>2026-04-19T18:22:12.999Z</time></trkpt><trkpt lat="45.6435141230486" lon="9.369794686400269"><ele>214.00000000000003</ele><time>2026-04-19T18:22:13.999Z</time></trkpt><trkpt lat="45.64355455325938" lon="9.369880764402557"><ele>214.0</ele><time>2026-04-19T18:22:14.999Z</time></trkpt><trkpt lat="45.643587030339404" lon="9.369978127166652"><ele>213.66666666666666</ele><time>2026-04-19T18:22:15.999Z</time></trkpt><trkpt lat="45.643618321513244" lon="9.370077123889189"><ele>213.33333333333331</ele><time>2026-04-19T18:22:16.999Z</time></trkpt><trkpt lat="45.643646540628595" lon="9.370180371064706"><ele>213.0</ele><time>2026-04-19T18:22:17.999Z</time></trkpt><trkpt lat="45.64365944297692" lon="9.370282864463391"><ele>212.66666666666669</ele><time>2026-04-19T18:22:18.999Z</time></trkpt><trkpt lat="45.643664180146786" lon="9.370390969873492"><ele>212.33333333333334</ele><time>2026-04-19T18:22:19.999Z</time></trkpt><trkpt lat="45.64367044315019" lon="9.370496592297076"><ele>212.0</ele><time>2026-04-19T18:22:20.999Z</time></trkpt><trkpt lat="45.64367666623876" lon="9.370608411169636"><ele>212.0</ele><time>2026-04-19T18:22:21.999Z</time></trkpt><trkpt lat="45.643684798095954" lon="9.370712762763622"><ele>212.0</ele><time>2026-04-19T18:22:22.999Z</time></trkpt><trkpt lat="45.643690258723865" lon="9.370813314030887"><ele>212.0</ele><time>2026-04-19T18:22:23.999Z</time></trkpt><trkpt lat="45.64369666887696" lon="9.370913752496683"><ele>212.0</ele><time>2026-04-19T18:22:25Z</time></trkpt><trkpt lat="45.64370318712825" lon="9.371014080362565"><ele>212.0</ele><time>2026-04-19T18:22:26Z</time></trkpt><trkpt lat="45.643708266620415" lon="9.37111025748359"><ele>212.0</ele><time>2026-04-19T18:22:27Z</time></trkpt><trkpt lat="45.64371402474219" lon="9.37120711912062"><ele>212.0</ele><time>2026-04-19T18:22:28Z</time></trkpt><trkpt lat="45.643720262826385" lon="9.371304329567103"><ele>212.2</ele><time>2026-04-19T18:22:29Z</time></trkpt><trkpt lat="45.643727234642" lon="9.371398677428783"><ele>212.39999999999998</ele><time>2026-04-19T18:22:30Z</time></trkpt><trkpt lat="45.64373369070228" lon="9.371497489199593"><ele>212.60000000000002</ele><time>2026-04-19T18:22:31Z</time></trkpt><trkpt lat="45.643738992662335" lon="9.371669132536585"><ele>212.8</ele><time>2026-04-19T18:22:33Z</time></trkpt><trkpt lat="45.6437476180872" lon="9.371835549313868"><ele>213.0</ele><time>2026-04-19T18:22:35Z</time></trkpt><trkpt lat="45.643767625615936" lon="9.371990121389493"><ele>213.0</ele><time>2026-04-19T18:22:37Z</time></trkpt><trkpt lat="45.64377585475602" lon="9.372153283412045"><ele>213.0</ele><time>2026-04-19T18:22:39Z</time></trkpt><trkpt lat="45.643783217608764" lon="9.37230294837828"><ele>213.0</ele><time>2026-04-19T18:22:41Z</time></trkpt><trkpt lat="45.643790040738345" lon="9.372446831265936"><ele>213.0</ele><time>2026-04-19T18:22:43Z</time></trkpt><trkpt lat="45.643798169415746" lon="9.372591173625164"><ele>213.0</ele><time>2026-04-19T18:22:45Z</time></trkpt><trkpt lat="45.64380602188832" lon="9.372729033036459"><ele>212.75</ele><time>2026-04-19T18:22:47Z</time></trkpt><trkpt lat="45.64381289495802" lon="9.372849697799104"><ele>212.5</ele><time>2026-04-19T18:22:49Z</time></trkpt><trkpt lat="45.64381911262731" lon="9.372958863629664"><ele>212.25</ele><time>2026-04-19T18:22:51Z</time></trkpt><trkpt lat="45.64405059252544" lon="9.372964720127433"><ele>212.0</ele><time>2026-04-19T18:22:53Z</time></trkpt><trkpt lat="45.64416584631828" lon="9.372967616624841"><ele>212.0</ele><time>2026-04-19T18:22:55Z</time></trkpt><trkpt lat="45.64427257542113" lon="9.373021561418486"><ele>212.0</ele><time>2026-04-19T18:22:57Z</time></trkpt><trkpt lat="45.644366292162054" lon="9.373062615167916"><ele>212.0</ele><time>2026-04-19T18:22:59Z</time></trkpt><trkpt lat="45.64447030233307" lon="9.373107936058863"><ele>212.0</ele><time>2026-04-19T18:23:01Z</time></trkpt><trkpt lat="45.64456399553854" lon="9.373151238316519"><ele>212.0</ele><time>2026-04-19T18:23:03Z</time></trkpt><trkpt lat="45.64466333456325" lon="9.373194962623254"><ele>212.39999999999998</ele><time>2026-04-19T18:23:05Z</time></trkpt><trkpt lat="45.6447654254476" lon="9.373235999300075"><ele>212.79999999999998</ele><time>2026-04-19T18:23:07Z</time></trkpt><trkpt lat="45.644870645480026" lon="9.373280723586175"><ele>213.2</ele><time>2026-04-19T18:23:09Z</time></trkpt><trkpt lat="45.64497541227371" lon="9.373332772795111"><ele>213.6</ele><time>2026-04-19T18:23:11Z</time></trkpt><trkpt lat="45.64508298864448" lon="9.373368768884804"><ele>214.0</ele><time>2026-04-19T18:23:13Z</time></trkpt><trkpt lat="45.64519024654485" lon="9.373425986963714"><ele>214.0</ele><time>2026-04-19T18:23:15Z</time></trkpt><trkpt lat="45.64530308538913" lon="9.373469954118107"><ele>214.0</ele><time>2026-04-19T18:23:17Z</time></trkpt><trkpt lat="45.64541273496886" lon="9.373524426608633"><ele>214.0</ele><time>2026-04-19T18:23:19Z</time></trkpt><trkpt lat="45.645516369553604" lon="9.373570018690296"><ele>214.0</ele><time>2026-04-19T18:23:21Z</time></trkpt><trkpt lat="45.64562867814389" lon="9.373618003997109"><ele>214.0</ele><time>2026-04-19T18:23:23Z</time></trkpt><trkpt lat="45.64573528341281" lon="9.373668328896379"><ele>213.99999999999997</ele><time>2026-04-19T18:23:24.999Z</time></trkpt><trkpt lat="45.645838058614025" lon="9.373710769275268"><ele>213.99999999999997</ele><time>2026-04-19T18:23:26.999Z</time></trkpt><trkpt lat="45.64594258299206" lon="9.373756215039437"><ele>214.0</ele><time>2026-04-19T18:23:28.999Z</time></trkpt><trkpt lat="45.646035235709675" lon="9.373798371200282"><ele>214.0</ele><time>2026-04-19T18:23:30.999Z</time></trkpt><trkpt lat="45.646125089076975" lon="9.373836444955645"><ele>214.39999999999998</ele><time>2026-04-19T18:23:32.999Z</time></trkpt><trkpt lat="45.64622378271148" lon="9.373874703439354"><ele>214.79999999999998</ele><time>2026-04-19T18:23:34.999Z</time></trkpt><trkpt lat="45.6463197599663" lon="9.37390901166258"><ele>215.20000000000002</ele><time>2026-04-19T18:23:36.999Z</time></trkpt><trkpt lat="45.64641491281049" lon="9.373972754835656"><ele>215.60000000000002</ele><time>2026-04-19T18:23:38.999Z</time></trkpt><trkpt lat="45.64650779013723" lon="9.373995181726913"><ele>216.0</ele><time>2026-04-19T18:23:40.999Z</time></trkpt><trkpt lat="45.64659796552611" lon="9.374026997372512"><ele>216.0</ele><time>2026-04-19T18:23:42.999Z</time></trkpt><trkpt lat="45.64669000838204" lon="9.3740865538333"><ele>216.00000000000003</ele><time>2026-04-19T18:23:44.999Z</time></trkpt><trkpt lat="45.64676865276467" lon="9.37418951043193"><ele>216.00000000000003</ele><time>2026-04-19T18:23:46.999Z</time></trkpt><trkpt lat="45.64685189178357" lon="9.374305149607391"><ele>216.0</ele><time>2026-04-19T18:23:48.999Z</time></trkpt><trkpt lat="45.646907220387746" lon="9.37442909152492"><ele>216.0</ele><time>2026-04-19T18:23:50.999Z</time></trkpt><trkpt lat="45.64698743004732" lon="9.374490567482589"><ele>216.33333333333334</ele><time>2026-04-19T18:23:52.999Z</time></trkpt><trkpt lat="45.647055912968185" lon="9.374526206212494"><ele>216.66666666666669</ele><time>2026-04-19T18:23:54.999Z</time></trkpt><trkpt lat="45.647135677390956" lon="9.374556044259553"><ele>217.0</ele><time>2026-04-19T18:23:56.999Z</time></trkpt><trkpt lat="45.64723684914518" lon="9.374585875722772"><ele>217.33333333333334</ele><time>2026-04-19T18:23:58.999Z</time></trkpt><trkpt lat="45.64731525200025" lon="9.374606818524395"><ele>217.66666666666669</ele><time>2026-04-19T18:24:00.999Z</time></trkpt><trkpt lat="45.64741066777206" lon="9.37463230578266"><ele>218.0</ele><time>2026-04-19T18:24:02.999Z</time></trkpt><trkpt lat="45.64750905967228" lon="9.374681102706866"><ele>218.0</ele><time>2026-04-19T18:24:04.999Z</time></trkpt><trkpt lat="45.64760653432945" lon="9.374696886041843"><ele>218.0</ele><time>2026-04-19T18:24:06.999Z</time></trkpt><trkpt lat="45.647700728814236" lon="9.374719732875034"><ele>218.0</ele><time>2026-04-19T18:24:08.999Z</time></trkpt><trkpt lat="45.647790118080394" lon="9.37478569535805"><ele>218.0</ele><time>2026-04-19T18:24:10.999Z</time></trkpt><trkpt lat="45.64788601924662" lon="9.374812695863366"><ele>218.0</ele><time>2026-04-19T18:24:12.999Z</time></trkpt><trkpt lat="45.647986058998384" lon="9.3748410931753"><ele>218.0</ele><time>2026-04-19T18:24:14.999Z</time></trkpt><trkpt lat="45.64808259063688" lon="9.374868785758775"><ele>218.0</ele><time>2026-04-19T18:24:16.999Z</time></trkpt><trkpt lat="45.648180008715336" lon="9.374900389570751"><ele>218.0</ele><time>2026-04-19T18:24:18.999Z</time></trkpt><trkpt lat="45.64827650868415" lon="9.374909361728484"><ele>218.0</ele><time>2026-04-19T18:24:20.999Z</time></trkpt><trkpt lat="45.64837274567599" lon="9.37494550632027"><ele>218.0</ele><time>2026-04-19T18:24:22.999Z</time></trkpt><trkpt lat="45.64847173647532" lon="9.374971221053618"><ele>218.0</ele><time>2026-04-19T18:24:24.999Z</time></trkpt><trkpt lat="45.64856348696858" lon="9.374992866908583"><ele>218.0</ele><time>2026-04-19T18:24:26.999Z</time></trkpt><trkpt lat="45.648649047082934" lon="9.375013349078849"><ele>218.0</ele><time>2026-04-19T18:24:28.999Z</time></trkpt><trkpt lat="45.64872356217986" lon="9.375037362332012"><ele>218.0</ele><time>2026-04-19T18:24:31Z</time></trkpt><trkpt lat="45.64887584750827" lon="9.37490672216912"><ele>218.0</ele><time>2026-04-19T18:24:33Z</time></trkpt><trkpt lat="45.64892440969631" lon="9.374792109266696"><ele>218.2</ele><time>2026-04-19T18:24:35Z</time></trkpt><trkpt lat="45.6489803115904" lon="9.374671097644228"><ele>218.4</ele><time>2026-04-19T18:24:37Z</time></trkpt><trkpt lat="45.64904370395757" lon="9.37456982349101"><ele>218.59999999999997</ele><time>2026-04-19T18:24:39Z</time></trkpt><trkpt lat="45.649106320407355" lon="9.374520157824298"><ele>218.79999999999998</ele><time>2026-04-19T18:24:41Z</time></trkpt><trkpt lat="45.649211486286916" lon="9.374520331790446"><ele>219.0</ele><time>2026-04-19T18:24:44Z</time></trkpt><trkpt lat="45.6493024015484" lon="9.374520331790393"><ele>219.0</ele><time>2026-04-19T18:24:46Z</time></trkpt><trkpt lat="45.64939398713017" lon="9.374520331788663"><ele>219.0</ele><time>2026-04-19T18:24:48Z</time></trkpt><trkpt lat="45.649481334913034" lon="9.37452138530196"><ele>219.0</ele><time>2026-04-19T18:24:50Z</time></trkpt><trkpt lat="45.64956039095586" lon="9.374536519853775"><ele>219.0</ele><time>2026-04-19T18:24:52Z</time></trkpt><trkpt lat="45.64963835201278" lon="9.37455109121685"><ele>219.0</ele><time>2026-04-19T18:24:54Z</time></trkpt><trkpt lat="45.6497147508449" lon="9.374571163439525"><ele>219.0</ele><time>2026-04-19T18:24:56Z</time></trkpt><trkpt lat="45.64978748036988" lon="9.374578851050888"><ele>219.66666666666666</ele><time>2026-04-19T18:24:58Z</time></trkpt><trkpt lat="45.64986304769277" lon="9.374594060250239"><ele>220.33333333333331</ele><time>2026-04-19T18:25:00Z</time></trkpt><trkpt lat="45.649939998831165" lon="9.374606626085834"><ele>221.0</ele><time>2026-04-19T18:25:02Z</time></trkpt><trkpt lat="45.6500162619328" lon="9.374612173637036"><ele>221.66666666666666</ele><time>2026-04-19T18:25:04Z</time></trkpt><trkpt lat="45.65008544971251" lon="9.374620050330106"><ele>222.33333333333331</ele><time>2026-04-19T18:25:06Z</time></trkpt><trkpt lat="45.65017895537105" lon="9.374644225293057"><ele>223.0</ele><time>2026-04-19T18:25:09Z</time></trkpt><trkpt lat="45.650242146901874" lon="9.37465923105322"><ele>223.33333333333331</ele><time>2026-04-19T18:25:11Z</time></trkpt><trkpt lat="45.65031459359289" lon="9.374682021069525"><ele>223.66666666666666</ele><time>2026-04-19T18:25:13Z</time></trkpt><trkpt lat="45.650380912536235" lon="9.374692997938986"><ele>224.0</ele><time>2026-04-19T18:25:15Z</time></trkpt><trkpt lat="45.65047399541612" lon="9.37470666277549"><ele>224.33333333333331</ele><time>2026-04-19T18:25:18Z</time></trkpt><trkpt lat="45.650553774083946" lon="9.374726588702279"><ele>224.66666666666666</ele><time>2026-04-19T18:25:21Z</time></trkpt><trkpt lat="45.650630041499504" lon="9.374738767815218"><ele>225.0</ele><time>2026-04-19T18:25:23.999Z</time></trkpt><trkpt lat="45.65069881339161" lon="9.374741194422336"><ele>225.0</ele><time>2026-04-19T18:25:26.999Z</time></trkpt><trkpt lat="45.650706599701095" lon="9.374631321126353"><ele>225.0</ele><time>2026-04-19T18:25:33.999Z</time></trkpt><trkpt lat="45.65072501899304" lon="9.374517037315071"><ele>225.0</ele><time>2026-04-19T18:25:36.999Z</time></trkpt><trkpt lat="45.65072801719743" lon="9.374421636034695"><ele>225.0</ele><time>2026-04-19T18:25:38.999Z</time></trkpt><trkpt lat="45.650692801413534" lon="9.37431974280183"><ele>225.0</ele><time>2026-04-19T18:25:40.999Z</time></trkpt><trkpt lat="45.650669896865885" lon="9.374231875967837"><ele>225.0</ele><time>2026-04-19T18:25:42.999Z</time></trkpt><trkpt lat="45.650624865525565" lon="9.374132241740256"><ele>225.0</ele><time>2026-04-19T18:25:46.064Z</time></trkpt><trkpt lat="45.650595149888545" lon="9.374034589756567"><ele>225.0</ele><time>2026-04-19T18:25:48.06Z</time></trkpt><trkpt lat="45.65063641243504" lon="9.374220896656151"><ele>225.0</ele><time>2026-04-19T18:25:50.034Z</time></trkpt></trkseg></trk></gpx>